Darstellungsparameter: Aktuell verwendete Einstellungen:
Skalierung der Graphiken ... ?
xyx+y,   Skalierungsfaktor:      Skalierung: Modus: x, Faktor: 1
Darstellungszeitraum ... ?
Vom - - bis: - -   Zeitraum: 18.09.2010 - 18.10.2010
Min/Max/Avg-Anzeige ... ?
Zeige MMA aktuell
Zeige MMA Monat
Zeige MMA alles
Zeige --A aktuell
Zeige --A Monat
Zeige --A alles
Keine MMA-Anzeige
MMA:
Average (ber die Originaldaten)
MMA-Basis: 18.09.2010 - 18.10.2010
Quicknavigation für Darstellung... ?
Tage:      1T, 2T, 3T, 5T -1T -2T -3T -5T +1T +2T +3T +5T
Wochen: 1W, 2W, 3W -1W -2W -3W +1W +2W +3W
Monate: 1M, 3M, 6M -1M -3M -6M +1M +3M +6M
Jahre:    1J, 3J, 5J, 10J -1J -3J -5J -10J +1J +3J +5J +10J
Nutze für die Darstellung ... ?
Originaldaten oder Mittelwerte auf ...
Stundenbasis Tagesbasis Wochenbasis
Monatsbasis Jahresbasis      Datenbasis: Original-Daten
Darstellen als:
Statistik (Auto) Statistik J:M      Darstellung:
Zur Graphik,    zurück zur Übersicht aller Sensoren.
 
Tabellarische Datenbersicht: ?
 
Sensor: Nr:Datum:Temp:Abs-Feuchte:Windchill:Wind:
Aussen-T/F 1 18-09-2010 00:03:37 12.2 C 6.8 g/m*3 12.2 C 0 km/h
2 18-09-2010 00:15:37 12.3 C 6.95 g/m*3 12.3 C 0 km/h
3 18-09-2010 00:27:37 12 C 6.82 g/m*3 12 C 0 km/h
4 18-09-2010 00:39:37 12 C 7.03 g/m*3 12 C 0 km/h
5 18-09-2010 00:51:37 12.1 C 7.08 g/m*3 12.1 C 0 km/h
6 18-09-2010 01:03:37 11.9 C 7.2 g/m*3 11.9 C 0 km/h
7 18-09-2010 01:15:37 11.2 C 6.99 g/m*3 11.2 C 0 km/h
8 18-09-2010 01:27:37 10.8 C 7.02 g/m*3 10.8 C 0 km/h
9 18-09-2010 01:39:37 10.4 C 6.94 g/m*3 10.4 C 0 km/h
10 18-09-2010 01:51:37 10.2 C 6.85 g/m*3 10.2 C 0 km/h
11 18-09-2010 02:03:37 10.2 C 6.95 g/m*3 10.2 C 0 km/h
12 18-09-2010 02:15:37 10 C 7.05 g/m*3 10 C 0 km/h
13 18-09-2010 02:27:37 10 C 7.24 g/m*3 10 C 0 km/h
14 18-09-2010 02:39:37 9.8 C 7.33 g/m*3 9.8 C 0 km/h
15 18-09-2010 02:51:37 10 C 7.42 g/m*3 10 C 0 km/h
16 18-09-2010 03:03:38 9.9 C 7.47 g/m*3 9.9 C 0 km/h
17 18-09-2010 03:15:38 9.5 C 7.28 g/m*3 9.5 C 0 km/h
18 18-09-2010 03:27:38 9.4 C 7.33 g/m*3 9.4 C 0 km/h
19 18-09-2010 03:39:38 9.1 C 7.19 g/m*3 9.1 C 0 km/h
20 18-09-2010 03:51:38 9 C 7.23 g/m*3 9 C 0 km/h
21 18-09-2010 04:03:38 8.9 C 7.36 g/m*3 8.9 C 0 km/h
22 18-09-2010 04:15:38 8.7 C 7.26 g/m*3 8.7 C 0 km/h
23 18-09-2010 04:27:38 8.5 C 7.17 g/m*3 8.5 C 0 km/h
24 18-09-2010 04:39:38 8.4 C 7.13 g/m*3 8.4 C 0 km/h
25 18-09-2010 04:51:38 8.2 C 7.03 g/m*3 8.2 C 0 km/h
Sensor: Nr:Datum:Temp:Abs-Feuchte:Windchill:Wind:
Aussen-T/F 26 18-09-2010 05:03:38 8.2 C 7.12 g/m*3 8.2 C 0 km/h
27 18-09-2010 05:15:38 8.1 C 7.16 g/m*3 8.1 C 0 km/h
28 18-09-2010 05:27:38 7.9 C 7.23 g/m*3 7.9 C 0 km/h
29 18-09-2010 05:39:38 7.7 C 7.14 g/m*3 7.7 C 0 km/h
30 18-09-2010 05:51:38 7.8 C 7.26 g/m*3 7.8 C 0 km/h
31 18-09-2010 06:03:38 7.8 C 7.35 g/m*3 7.8 C 0 km/h
32 18-09-2010 06:15:38 7.5 C 7.28 g/m*3 7.5 C 0 km/h
33 18-09-2010 06:27:38 7.5 C 7.28 g/m*3 7.5 C 0 km/h
34 18-09-2010 06:39:38 7.6 C 7.41 g/m*3 7.6 C 0 km/h
35 18-09-2010 06:51:38 7.7 C 7.46 g/m*3 7.7 C 0 km/h
36 18-09-2010 07:03:39 7.7 C 7.46 g/m*3 7.7 C 0 km/h
37 18-09-2010 07:15:39 7.6 C 7.33 g/m*3 7.6 C 0 km/h
38 18-09-2010 07:27:39 7.5 C 7.28 g/m*3 7.5 C 0 km/h
39 18-09-2010 07:39:39 7.3 C 7.19 g/m*3 7.3 C 0 km/h
40 18-09-2010 07:51:39 7.4 C 7.24 g/m*3 7.4 C 0 km/h
41 18-09-2010 08:03:02 7.3 C 7.11 g/m*3 7.3 C 0 km/h
42 18-09-2010 08:15:03 7.4 C 7.16 g/m*3 7.4 C 0 km/h
43 18-09-2010 08:27:03 7.5 C 7.28 g/m*3 7.5 C 0 km/h
44 18-09-2010 08:39:02 7.5 C 7.28 g/m*3 7.5 C 0 km/h
45 18-09-2010 08:51:02 7.6 C 7.33 g/m*3 7.6 C 0 km/h
46 18-09-2010 09:03:02 7.7 C 7.38 g/m*3 7.7 C 0 km/h
47 18-09-2010 09:15:02 7.8 C 7.43 g/m*3 7.8 C 0 km/h
48 18-09-2010 09:27:02 8 C 7.44 g/m*3 8 C 0 km/h
49 18-09-2010 09:39:02 8.2 C 7.54 g/m*3 8.2 C 0 km/h
50 18-09-2010 09:51:02 8.9 C 7.97 g/m*3 8.9 C 0 km/h
Sensor: Nr:Datum:Temp:Abs-Feuchte:Windchill:Wind:
Aussen-T/F 51 18-09-2010 10:03:02 9.3 C 8.09 g/m*3 9.3 C 0 km/h
52 18-09-2010 10:15:02 9.5 C 8.1 g/m*3 9.5 C 0 km/h
53 18-09-2010 10:27:03 9.8 C 8.07 g/m*3 9.8 C 0 km/h
54 18-09-2010 10:39:01 10.7 C 8.25 g/m*3 10.7 C 0 km/h
55 18-09-2010 10:51:02 11.7 C 8.37 g/m*3 11.7 C 0 km/h
56 18-09-2010 11:03:02 12.2 C 6.91 g/m*3 12.2 C 0 km/h
57 18-09-2010 11:15:02 13 C 6.8 g/m*3 13 C 0 km/h
58 18-09-2010 11:27:02 13.6 C 6.59 g/m*3 13.6 C 0 km/h
59 18-09-2010 11:39:02 14 C 6.39 g/m*3 14 C 0 km/h
60 18-09-2010 11:51:01 14.5 C 6.47 g/m*3 14.5 C 0 km/h
61 18-09-2010 12:03:02 14.6 C 6.13 g/m*3 14.6 C 0 km/h
62 18-09-2010 12:15:01 15.7 C 6.15 g/m*3 15.7 C 0 km/h
63 18-09-2010 12:27:01 15.1 C 5.42 g/m*3 15.1 C 0 km/h
64 18-09-2010 12:39:01 15.4 C 6.04 g/m*3 15.4 C 0 km/h
65 18-09-2010 12:51:01 14.9 C 5.86 g/m*3 14.9 C 0 km/h
66 18-09-2010 13:03:02 14.9 C 5.86 g/m*3 14.9 C 0 km/h
67 18-09-2010 13:15:01 15.3 C 5.48 g/m*3 15.3 C 0 km/h
68 18-09-2010 13:27:01 15.6 C 5.32 g/m*3 15.6 C 0 km/h
69 18-09-2010 13:39:01 15.8 C 5.25 g/m*3 15.8 C 0 km/h
70 18-09-2010 13:51:01 16.4 C 5.16 g/m*3 16.4 C 0 km/h
71 18-09-2010 14:03:01 16.2 C 4.96 g/m*3 16.2 C 0 km/h
72 18-09-2010 14:15:02 15.4 C 4.73 g/m*3 15.4 C 0 km/h
73 18-09-2010 14:27:02 14.7 C 4.66 g/m*3 14.7 C 0 km/h
74 18-09-2010 14:39:01 14.9 C 4.72 g/m*3 14.9 C 0 km/h
75 18-09-2010 14:51:02 15.1 C 4.77 g/m*3 15.1 C 0 km/h
Sensor: Nr:Datum:Temp:Abs-Feuchte:Windchill:Wind:
Aussen-T/F 76 18-09-2010 15:03:02 15.4 C 4.6 g/m*3 15.4 C 0 km/h
77 18-09-2010 15:15:02 16.1 C 4.52 g/m*3 16.1 C 0 km/h
78 18-09-2010 15:27:02 15.9 C 4.74 g/m*3 15.9 C 0 km/h
79 18-09-2010 15:39:02 17.3 C 4.57 g/m*3 17.3 C 0 km/h
80 18-09-2010 15:51:02 16.8 C 4.43 g/m*3 16.8 C 0 km/h
81 18-09-2010 16:03:01 16.4 C 4.75 g/m*3 16.4 C 0 km/h
82 18-09-2010 16:15:02 16.2 C 4.55 g/m*3 16.2 C 0 km/h
83 18-09-2010 16:27:03 16.1 C 4.66 g/m*3 16.1 C 0 km/h
84 18-09-2010 16:39:01 16.1 C 4.8 g/m*3 16.1 C 0 km/h
85 18-09-2010 16:51:02 16.3 C 5.55 g/m*3 16.3 C 0 km/h
86 18-09-2010 17:03:02 16.3 C 4.99 g/m*3 16.3 C 0 km/h
87 18-09-2010 17:15:02 16.4 C 6.14 g/m*3 16.4 C 0 km/h
88 18-09-2010 17:27:02 16.3 C 5.41 g/m*3 16.3 C 0 km/h
89 18-09-2010 17:39:02 15.6 C 6.12 g/m*3 15.6 C 0 km/h
90 18-09-2010 17:51:01 14.7 C 5.92 g/m*3 14.7 C 0 km/h
91 18-09-2010 18:03:02 14.5 C 6.09 g/m*3 14.5 C 0 km/h
92 18-09-2010 18:15:01 15.6 C 5.98 g/m*3 15.6 C 0 km/h
93 18-09-2010 18:27:01 16.2 C 5.93 g/m*3 16.2 C 0 km/h
94 18-09-2010 18:39:01 16.2 C 6.07 g/m*3 16.2 C 0 km/h
95 18-09-2010 18:51:01 15.8 C 6.19 g/m*3 15.8 C 0 km/h
96 18-09-2010 19:03:02 15.2 C 6.1 g/m*3 15.2 C 0 km/h
97 18-09-2010 19:15:01 14 C 5.91 g/m*3 14 C 0 km/h
98 18-09-2010 19:27:01 13 C 6.12 g/m*3 13 C 0 km/h
99 18-09-2010 19:39:01 12.2 C 6.04 g/m*3 12.2 C 0 km/h
100 18-09-2010 19:51:01 11.9 C 6.14 g/m*3 11.9 C 0 km/h
Sensor: Nr:Datum:Temp:Abs-Feuchte:Windchill:Wind:
Aussen-T/F 101 18-09-2010 20:03:02 11.4 C 6.36 g/m*3 11.4 C 0 km/h
102 18-09-2010 20:15:02 11.2 C 6.39 g/m*3 11.2 C 0 km/h
103 18-09-2010 20:27:02 11.1 C 6.75 g/m*3 11.1 C 0 km/h
104 18-09-2010 20:39:01 10.9 C 6.76 g/m*3 10.9 C 0 km/h
105 18-09-2010 20:51:01 10.8 C 6.72 g/m*3 10.8 C 0 km/h
106 18-09-2010 21:03:01 10.6 C 6.73 g/m*3 10.6 C 0 km/h
107 18-09-2010 21:15:02 10.2 C 6.66 g/m*3 10.2 C 0 km/h
108 18-09-2010 21:27:02 10 C 6.48 g/m*3 10 C 0 km/h
109 18-09-2010 21:39:01 9.7 C 6.64 g/m*3 9.7 C 0 km/h
110 18-09-2010 21:51:02 9.6 C 6.6 g/m*3 9.6 C 0 km/h
111 18-09-2010 22:03:02 9.3 C 6.56 g/m*3 9.3 C 0 km/h
112 18-09-2010 22:15:02 9.2 C 6.61 g/m*3 9.2 C 0 km/h
113 18-09-2010 22:27:02 9 C 6.7 g/m*3 9 C 0 km/h
114 18-09-2010 22:40:03 8.8 C 6.79 g/m*3 8.8 C 0 km/h
115 18-09-2010 22:52:03 8.6 C 6.79 g/m*3 8.6 C 0 km/h
116 18-09-2010 23:04:03 8.5 C 6.74 g/m*3 8.5 C 0 km/h
117 18-09-2010 23:16:03 8.4 C 6.87 g/m*3 8.4 C 0 km/h
118 18-09-2010 23:28:03 8.2 C 6.78 g/m*3 8.2 C 0 km/h
119 18-09-2010 23:40:03 8 C 6.7 g/m*3 8 C 0 km/h
120 18-09-2010 23:52:03 7.9 C 6.74 g/m*3 7.9 C 0 km/h
121 19-09-2010 00:04:03 7.8 C 6.77 g/m*3 7.8 C 0 km/h
122 19-09-2010 00:16:03 7.7 C 6.73 g/m*3 7.7 C 0 km/h
123 19-09-2010 00:28:03 7.6 C 6.77 g/m*3 7.6 C 0 km/h
124 19-09-2010 00:40:03 7.4 C 6.68 g/m*3 7.4 C 0 km/h
125 19-09-2010 00:52:03 7.3 C 6.64 g/m*3 7.3 C 0 km/h
Sensor: Nr:Datum:Temp:Abs-Feuchte:Windchill:Wind:
Aussen-T/F 126 19-09-2010 01:04:04 7.1 C 6.47 g/m*3 7.1 C 0 km/h
127 19-09-2010 01:16:04 7.1 C 6.55 g/m*3 7.1 C 0 km/h
128 19-09-2010 01:28:04 6.9 C 6.54 g/m*3 6.9 C 0 km/h
129 19-09-2010 01:40:04 6.8 C 6.58 g/m*3 6.8 C 0 km/h
130 19-09-2010 01:52:04 6.7 C 6.53 g/m*3 6.7 C 0 km/h
131 19-09-2010 02:04:04 6.6 C 6.57 g/m*3 6.6 C 0 km/h
132 19-09-2010 02:16:04 6.4 C 6.48 g/m*3 6.4 C 0 km/h
133 19-09-2010 02:28:04 6.4 C 6.48 g/m*3 6.4 C 0 km/h
134 19-09-2010 02:40:04 6.4 C 6.56 g/m*3 6.4 C 0 km/h
135 19-09-2010 02:52:04 6.4 C 6.56 g/m*3 6.4 C 0 km/h
136 19-09-2010 03:04:04 6.4 C 6.56 g/m*3 6.4 C 0 km/h
137 19-09-2010 03:16:04 6.4 C 6.56 g/m*3 6.4 C 0 km/h
138 19-09-2010 03:28:04 6.4 C 6.56 g/m*3 6.4 C 0 km/h
139 19-09-2010 03:40:04 6.5 C 6.6 g/m*3 6.5 C 0 km/h
140 19-09-2010 03:52:04 6.4 C 6.56 g/m*3 6.4 C 0 km/h
141 19-09-2010 04:04:04 6.3 C 6.51 g/m*3 6.3 C 0 km/h
142 19-09-2010 04:16:04 6.1 C 6.43 g/m*3 6.1 C 0 km/h
143 19-09-2010 04:28:04 5.9 C 6.42 g/m*3 5.9 C 0 km/h
144 19-09-2010 04:40:04 6.2 C 6.47 g/m*3 6.2 C 0 km/h
145 19-09-2010 04:52:04 6.5 C 6.67 g/m*3 6.5 C 0 km/h
146 19-09-2010 05:04:05 6.6 C 6.72 g/m*3 6.6 C 0 km/h
147 19-09-2010 05:16:05 6.2 C 6.47 g/m*3 6.2 C 0 km/h
148 19-09-2010 05:28:05 6 C 6.39 g/m*3 6 C 0 km/h
149 19-09-2010 05:40:05 5.8 C 6.3 g/m*3 5.8 C 0 km/h
150 19-09-2010 05:52:05 5.6 C 6.22 g/m*3 5.6 C 0 km/h
Sensor: Nr:Datum:Temp:Abs-Feuchte:Windchill:Wind:
Aussen-T/F 151 19-09-2010 06:04:05 5.5 C 6.18 g/m*3 5.5 C 0 km/h
152 19-09-2010 06:16:05 5.5 C 6.18 g/m*3 5.5 C 0 km/h
153 19-09-2010 06:28:05 5.7 C 6.33 g/m*3 5.7 C 0 km/h
154 19-09-2010 06:40:05 6 C 6.46 g/m*3 6 C 0 km/h
155 19-09-2010 06:52:05 6.1 C 6.5 g/m*3 6.1 C 0 km/h
156 19-09-2010 07:04:05 6.3 C 6.59 g/m*3 6.3 C 0 km/h
157 19-09-2010 07:16:05 6.1 C 6.5 g/m*3 6.1 C 0 km/h
158 19-09-2010 07:28:05 5.8 C 6.38 g/m*3 5.8 C 0 km/h
159 19-09-2010 07:40:05 5.9 C 6.42 g/m*3 5.9 C 0 km/h
160 19-09-2010 07:52:05 5.9 C 6.42 g/m*3 5.9 C 0 km/h
161 19-09-2010 08:04:05 6.2 C 6.47 g/m*3 6.2 C 0 km/h
162 19-09-2010 08:16:05 6.7 C 6.76 g/m*3 6.7 C 0 km/h
163 19-09-2010 08:28:05 7.3 C 6.95 g/m*3 7.3 C 0 km/h
164 19-09-2010 08:40:05 7.4 C 7 g/m*3 7.4 C 0 km/h
165 19-09-2010 08:52:02 7.2 C 6.75 g/m*3 7.2 C 0 km/h
166 19-09-2010 09:04:02 7.2 C 6.67 g/m*3 7.2 C 0 km/h
167 19-09-2010 09:16:02 7.3 C 6.79 g/m*3 7.3 C 0 km/h
168 19-09-2010 09:28:02 7.7 C 6.97 g/m*3 7.7 C 0 km/h
169 19-09-2010 09:40:02 8.8 C 7.31 g/m*3 8.8 C 0 km/h
170 19-09-2010 09:52:01 9.6 C 7.15 g/m*3 9.6 C 0 km/h
171 19-09-2010 10:04:01 10.2 C 6.76 g/m*3 10.2 C 0 km/h
172 19-09-2010 10:16:01 10.9 C 6.86 g/m*3 10.9 C 0 km/h
173 19-09-2010 10:28:01 10.8 C 6.62 g/m*3 10.8 C 0 km/h
174 19-09-2010 10:40:01 10.7 C 6.58 g/m*3 10.7 C 0 km/h
175 19-09-2010 10:52:01 11 C 6.61 g/m*3 11 C 0 km/h
Sensor: Nr:Datum:Temp:Abs-Feuchte:Windchill:Wind:
Aussen-T/F 176 19-09-2010 11:04:01 11.5 C 6.51 g/m*3 11.5 C 0 km/h
177 19-09-2010 11:16:02 12.2 C 6.58 g/m*3 12.2 C 0 km/h
178 19-09-2010 11:28:02 13.3 C 6.47 g/m*3 13.3 C 0 km/h
179 19-09-2010 11:40:01 13.8 C 5.96 g/m*3 13.8 C 0 km/h
180 19-09-2010 11:52:03 13.8 C 5.72 g/m*3 13.8 C 0 km/h
181 19-09-2010 12:04:02 13.8 C 5.84 g/m*3 13.8 C 0 km/h
182 19-09-2010 12:16:02 14.3 C 5.9 g/m*3 14.3 C 0 km/h
183 19-09-2010 12:28:02 15.2 C 5.84 g/m*3 15.2 C 0 km/h
184 19-09-2010 12:40:02 15.7 C 5.35 g/m*3 15.7 C 0 km/h
185 19-09-2010 12:52:02 15.7 C 5.35 g/m*3 15.7 C 0 km/h
186 19-09-2010 13:04:01 16.2 C 5.52 g/m*3 16.2 C 0 km/h
187 19-09-2010 13:16:02 16.4 C 5.58 g/m*3 16.4 C 0 km/h
188 19-09-2010 13:28:02 16.1 C 5.48 g/m*3 16.1 C 0 km/h
189 19-09-2010 13:40:02 16 C 5.59 g/m*3 16 C 0 km/h
190 19-09-2010 13:52:01 15.9 C 5.55 g/m*3 15.9 C 0 km/h
191 19-09-2010 14:04:02 16.5 C 5.62 g/m*3 16.5 C 0 km/h
192 19-09-2010 14:16:01 17.5 C 5.67 g/m*3 17.5 C 0 km/h
193 19-09-2010 14:28:01 17.5 C 5.67 g/m*3 17.5 C 0 km/h
194 19-09-2010 14:40:01 17.5 C 5.67 g/m*3 17.5 C 0 km/h
195 19-09-2010 14:52:01 17.9 C 5.8 g/m*3 17.9 C 0 km/h
196 19-09-2010 15:04:02 17.8 C 5.46 g/m*3 17.8 C 0 km/h
197 19-09-2010 15:16:01 18.6 C 5.73 g/m*3 18.6 C 0 km/h
198 19-09-2010 15:28:01 18.4 C 5.66 g/m*3 18.4 C 0 km/h
199 19-09-2010 15:40:02 19 C 5.38 g/m*3 19 C 0 km/h
200 19-09-2010 15:52:01 19.3 C 4.98 g/m*3 19.3 C 0 km/h
Sensor: Nr:Datum:Temp:Abs-Feuchte:Windchill:Wind:
Aussen-T/F 201 19-09-2010 16:04:02 18.8 C 5.31 g/m*3 18.8 C 0 km/h
202 19-09-2010 16:16:01 18.6 C 5.41 g/m*3 18.6 C 0 km/h
203 19-09-2010 16:28:01 18.8 C 5.31 g/m*3 18.8 C 0 km/h
204 19-09-2010 16:40:02 19.6 C 5.4 g/m*3 19.6 C 0 km/h
205 19-09-2010 16:52:01 19.4 C 5.01 g/m*3 19.4 C 0 km/h
206 19-09-2010 17:04:02 19.8 C 5.3 g/m*3 19.8 C 0 km/h
207 19-09-2010 17:16:02 19.1 C 5.25 g/m*3 19.1 C 0 km/h
208 19-09-2010 17:28:02 18.6 C 5.57 g/m*3 18.6 C 0 km/h
209 19-09-2010 17:40:01 18.4 C 6.29 g/m*3 18.4 C 0 km/h
210 19-09-2010 17:52:02 18 C 5.99 g/m*3 18 C 0 km/h
211 19-09-2010 18:04:01 17.6 C 6 g/m*3 17.6 C 0 km/h
212 19-09-2010 18:16:02 17.2 C 6.3 g/m*3 17.2 C 0 km/h
213 19-09-2010 18:28:03 17.1 C 5.82 g/m*3 17.1 C 0 km/h
214 19-09-2010 18:40:01 17 C 6.08 g/m*3 17 C 0 km/h
215 19-09-2010 18:52:02 16.5 C 5.76 g/m*3 16.5 C 0 km/h
216 19-09-2010 19:04:02 16.2 C 5.79 g/m*3 16.2 C 0 km/h
217 19-09-2010 19:16:02 16 C 5.99 g/m*3 16 C 0 km/h
218 19-09-2010 19:28:02 15.8 C 5.92 g/m*3 15.8 C 0 km/h
219 19-09-2010 19:40:03 15.6 C 5.98 g/m*3 15.6 C 0 km/h
220 19-09-2010 19:52:02 15.3 C 6.14 g/m*3 15.3 C 0 km/h
221 19-09-2010 20:04:02 14.8 C 6.33 g/m*3 14.8 C 0 km/h
222 19-09-2010 20:16:02 14.5 C 6.34 g/m*3 14.5 C 0 km/h
223 19-09-2010 20:28:02 14.3 C 6.27 g/m*3 14.3 C 0 km/h
224 19-09-2010 20:40:02 14.3 C 6.39 g/m*3 14.3 C 0 km/h
225 19-09-2010 20:52:02 14.4 C 6.18 g/m*3 14.4 C 0 km/h
Sensor: Nr:Datum:Temp:Abs-Feuchte:Windchill:Wind:
Aussen-T/F 226 19-09-2010 21:04:02 14.4 C 6.43 g/m*3 14.4 C 0 km/h
227 19-09-2010 21:16:02 14.2 C 6.47 g/m*3 14.2 C 0 km/h
228 19-09-2010 21:28:02 14 C 6.51 g/m*3 14 C 0 km/h
229 19-09-2010 21:40:02 13.7 C 6.87 g/m*3 13.7 C 0 km/h
230 19-09-2010 21:52:03 13.5 C 6.78 g/m*3 13.5 C 0 km/h
231 19-09-2010 22:04:03 13.4 C 6.74 g/m*3 13.4 C 0 km/h
232 19-09-2010 22:17:01 13.3 C 6.7 g/m*3 13.3 C 0 km/h
233 19-09-2010 22:29:01 13.4 C 6.86 g/m*3 13.4 C 0 km/h
234 19-09-2010 22:41:01 13.3 C 6.82 g/m*3 13.3 C 0 km/h
235 19-09-2010 22:53:01 13.2 C 6.77 g/m*3 13.2 C 0 km/h
236 19-09-2010 23:05:01 13 C 6.8 g/m*3 13 C 0 km/h
237 19-09-2010 23:17:01 12.5 C 6.82 g/m*3 12.5 C 0 km/h
238 19-09-2010 23:29:01 12.2 C 6.8 g/m*3 12.2 C 0 km/h
239 19-09-2010 23:41:01 11.9 C 6.67 g/m*3 11.9 C 0 km/h
240 19-09-2010 23:53:01 11.8 C 6.74 g/m*3 11.8 C 0 km/h
241 20-09-2010 00:05:01 11.9 C 6.88 g/m*3 11.9 C 0 km/h
242 20-09-2010 00:17:01 11.9 C 6.99 g/m*3 11.9 C 0 km/h
243 20-09-2010 00:29:02 11.9 C 6.88 g/m*3 11.9 C 0 km/h
244 20-09-2010 00:41:02 11.4 C 6.77 g/m*3 11.4 C 0 km/h
245 20-09-2010 00:53:02 11.3 C 6.83 g/m*3 11.3 C 0 km/h
246 20-09-2010 01:05:02 10.8 C 6.72 g/m*3 10.8 C 0 km/h
247 20-09-2010 01:17:02 10.5 C 6.69 g/m*3 10.5 C 0 km/h
248 20-09-2010 01:29:02 10.4 C 6.75 g/m*3 10.4 C 0 km/h
249 20-09-2010 01:41:02 10.2 C 6.85 g/m*3 10.2 C 0 km/h
250 20-09-2010 01:53:02 10.3 C 6.9 g/m*3 10.3 C 0 km/h
Sensor: Nr:Datum:Temp:Abs-Feuchte:Windchill:Wind:
Aussen-T/F 251 20-09-2010 02:05:02 10.1 C 6.81 g/m*3 10.1 C 0 km/h
252 20-09-2010 02:17:02 10 C 6.77 g/m*3 10 C 0 km/h
253 20-09-2010 02:29:02 9.8 C 6.96 g/m*3 9.8 C 0 km/h
254 20-09-2010 02:41:02 9.6 C 6.87 g/m*3 9.6 C 0 km/h
255 20-09-2010 02:53:02 9.7 C 7.01 g/m*3 9.7 C 0 km/h
256 20-09-2010 03:05:02 9.8 C 6.96 g/m*3 9.8 C 0 km/h
257 20-09-2010 03:17:02 9.6 C 6.96 g/m*3 9.6 C 0 km/h
258 20-09-2010 03:29:02 9.7 C 7.1 g/m*3 9.7 C 0 km/h
259 20-09-2010 03:41:02 9.7 C 7.1 g/m*3 9.7 C 0 km/h
260 20-09-2010 03:53:02 9.4 C 6.96 g/m*3 9.4 C 0 km/h
261 20-09-2010 04:05:02 9.3 C 6.92 g/m*3 9.3 C 0 km/h
262 20-09-2010 04:17:02 9.2 C 6.88 g/m*3 9.2 C 0 km/h
263 20-09-2010 04:29:02 9 C 6.88 g/m*3 9 C 0 km/h
264 20-09-2010 04:41:03 8.8 C 6.88 g/m*3 8.8 C 0 km/h
265 20-09-2010 04:53:03 8.6 C 6.87 g/m*3 8.6 C 0 km/h
266 20-09-2010 05:05:03 8.4 C 6.87 g/m*3 8.4 C 0 km/h
267 20-09-2010 05:17:03 8.4 C 6.87 g/m*3 8.4 C 0 km/h
268 20-09-2010 05:29:03 8.3 C 6.91 g/m*3 8.3 C 0 km/h
269 20-09-2010 05:41:03 8.2 C 6.87 g/m*3 8.2 C 0 km/h
270 20-09-2010 05:53:03 8.3 C 6.91 g/m*3 8.3 C 0 km/h
271 20-09-2010 06:05:03 8.3 C 6.91 g/m*3 8.3 C 0 km/h
272 20-09-2010 06:17:03 8.4 C 7.04 g/m*3 8.4 C 0 km/h
273 20-09-2010 06:29:03 8.5 C 7 g/m*3 8.5 C 0 km/h
274 20-09-2010 06:41:03 8.5 C 7 g/m*3 8.5 C 0 km/h
275 20-09-2010 06:53:03 8.7 C 7.18 g/m*3 8.7 C 0 km/h
Sensor: Nr:Datum:Temp:Abs-Feuchte:Windchill:Wind:
Aussen-T/F 276 20-09-2010 07:05:01 8.6 C 7.13 g/m*3 8.6 C 0 km/h
277 20-09-2010 07:17:02 8.4 C 7.04 g/m*3 8.4 C 0 km/h
278 20-09-2010 07:29:02 8.5 C 7.09 g/m*3 8.5 C 0 km/h
279 20-09-2010 07:41:01 8.5 C 7.09 g/m*3 8.5 C 0 km/h
280 20-09-2010 07:53:02 8.6 C 7.13 g/m*3 8.6 C 0 km/h
281 20-09-2010 08:05:02 9 C 7.14 g/m*3 9 C 0 km/h
282 20-09-2010 08:17:02 9.2 C 6.97 g/m*3 9.2 C 0 km/h
283 20-09-2010 08:29:02 9.2 C 6.79 g/m*3 9.2 C 0 km/h
284 20-09-2010 08:41:02 9.3 C 6.74 g/m*3 9.3 C 0 km/h
285 20-09-2010 08:53:01 9.2 C 6.7 g/m*3 9.2 C 0 km/h
286 20-09-2010 09:05:02 9.3 C 6.83 g/m*3 9.3 C 0 km/h
287 20-09-2010 09:17:01 9.6 C 6.87 g/m*3 9.6 C 0 km/h
288 20-09-2010 09:29:01 9.7 C 6.82 g/m*3 9.7 C 0 km/h
289 20-09-2010 09:41:01 10 C 6.95 g/m*3 10 C 0 km/h
290 20-09-2010 09:53:01 10.6 C 7.12 g/m*3 10.6 C 0 km/h
291 20-09-2010 10:05:02 11.4 C 7.29 g/m*3 11.4 C 0 km/h
292 20-09-2010 10:17:02 12.1 C 7.18 g/m*3 12.1 C 0 km/h
293 20-09-2010 10:29:02 12.4 C 7.1 g/m*3 12.4 C 0 km/h
294 20-09-2010 10:41:01 12.9 C 7.33 g/m*3 12.9 C 0 km/h
295 20-09-2010 10:53:01 13.2 C 7.12 g/m*3 13.2 C 0 km/h
296 20-09-2010 11:05:01 13.3 C 7.39 g/m*3 13.3 C 0 km/h
297 20-09-2010 11:17:02 13.8 C 7.15 g/m*3 13.8 C 0 km/h
298 20-09-2010 11:29:02 14.8 C 6.84 g/m*3 14.8 C 0 km/h
299 20-09-2010 11:41:01 15.3 C 6.66 g/m*3 15.3 C 0 km/h
300 20-09-2010 11:53:02 15.9 C 6.77 g/m*3 15.9 C 0 km/h
Sensor: Nr:Datum:Temp:Abs-Feuchte:Windchill:Wind:
Aussen-T/F 301 20-09-2010 12:05:02 16.1 C 6.31 g/m*3 16.1 C 0 km/h
302 20-09-2010 12:17:02 15.9 C 6.5 g/m*3 15.9 C 0 km/h
303 20-09-2010 12:29:03 16.1 C 6.31 g/m*3 16.1 C 0 km/h
304 20-09-2010 12:41:02 16.4 C 6.42 g/m*3 16.4 C 0 km/h
305 20-09-2010 12:53:02 16.8 C 6.15 g/m*3 16.8 C 0 km/h
306 20-09-2010 13:05:01 17.1 C 6.11 g/m*3 17.1 C 0 km/h
307 20-09-2010 13:17:02 17.5 C 6.26 g/m*3 17.5 C 0 km/h
308 20-09-2010 13:29:02 18.1 C 6.33 g/m*3 18.1 C 0 km/h
309 20-09-2010 13:41:02 18.5 C 6.01 g/m*3 18.5 C 0 km/h
310 20-09-2010 13:53:02 18.9 C 5.83 g/m*3 18.9 C 0 km/h
311 20-09-2010 14:05:03 19.5 C 6.04 g/m*3 19.5 C 0 km/h
312 20-09-2010 14:17:02 19.7 C 5.94 g/m*3 19.7 C 0 km/h
313 20-09-2010 14:29:02 20.1 C 5.91 g/m*3 20.1 C 0 km/h
314 20-09-2010 14:41:02 20.5 C 5.69 g/m*3 20.5 C 0 km/h
315 20-09-2010 14:53:01 20.3 C 5.45 g/m*3 20.3 C 0 km/h
316 20-09-2010 15:05:02 20.8 C 5.79 g/m*3 20.8 C 0 km/h
317 20-09-2010 15:17:01 21.4 C 5.81 g/m*3 21.4 C 0 km/h
318 20-09-2010 15:29:01 21.5 C 5.85 g/m*3 21.5 C 0 km/h
319 20-09-2010 15:41:01 21.6 C 5.88 g/m*3 21.6 C 0 km/h
320 20-09-2010 15:53:01 21.8 C 5.95 g/m*3 21.8 C 0 km/h
321 20-09-2010 16:05:01 22.2 C 6.48 g/m*3 22.2 C 0 km/h
322 20-09-2010 16:17:02 22.6 C 6.23 g/m*3 22.6 C 0 km/h
323 20-09-2010 16:29:02 22.8 C 6.1 g/m*3 22.8 C 0 km/h
324 20-09-2010 16:41:01 22.6 C 6.23 g/m*3 22.6 C 0 km/h
325 20-09-2010 16:53:01 22.1 C 6.05 g/m*3 22.1 C 0 km/h
Sensor: Nr:Datum:Temp:Abs-Feuchte:Windchill:Wind:
Aussen-T/F 326 20-09-2010 17:05:01 22.2 C 6.28 g/m*3 22.2 C 0 km/h
327 20-09-2010 17:17:02 22.1 C 5.86 g/m*3 22.1 C 0 km/h
328 20-09-2010 17:29:02 22.3 C 6.32 g/m*3 22.3 C 0 km/h
329 20-09-2010 17:41:01 22.1 C 5.86 g/m*3 22.1 C 0 km/h
330 20-09-2010 17:53:02 22.7 C 6.26 g/m*3 22.7 C 0 km/h
331 20-09-2010 18:05:02 22.7 C 6.47 g/m*3 22.7 C 0 km/h
332 20-09-2010 18:17:02 22.2 C 6.28 g/m*3 22.2 C 0 km/h
333 20-09-2010 18:29:02 21.6 C 6.64 g/m*3 21.6 C 0 km/h
334 20-09-2010 18:41:02 20.6 C 6.8 g/m*3 20.6 C 0 km/h
335 20-09-2010 18:53:02 19.4 C 7.01 g/m*3 19.4 C 0 km/h
336 20-09-2010 19:05:01 18.9 C 6.97 g/m*3 18.9 C 0 km/h
337 20-09-2010 19:17:01 18.1 C 7.11 g/m*3 18.1 C 0 km/h
338 20-09-2010 19:29:01 17.5 C 7.31 g/m*3 17.5 C 0 km/h
339 20-09-2010 19:41:02 16.8 C 7.29 g/m*3 16.8 C 0 km/h
340 20-09-2010 19:53:02 16.2 C 7.17 g/m*3 16.2 C 0 km/h
341 20-09-2010 20:05:02 15.9 C 7.31 g/m*3 15.9 C 0 km/h
342 20-09-2010 20:17:02 15.6 C 7.45 g/m*3 15.6 C 0 km/h
343 20-09-2010 20:29:02 15.3 C 7.57 g/m*3 15.3 C 0 km/h
344 20-09-2010 20:41:02 15.1 C 7.74 g/m*3 15.1 C 0 km/h
345 20-09-2010 20:53:02 14.8 C 7.6 g/m*3 14.8 C 0 km/h
346 20-09-2010 21:05:02 14.7 C 7.68 g/m*3 14.7 C 0 km/h
347 20-09-2010 21:17:02 14.4 C 7.66 g/m*3 14.4 C 0 km/h
348 20-09-2010 21:29:02 14.2 C 7.69 g/m*3 14.2 C 0 km/h
349 20-09-2010 21:41:02 14 C 7.72 g/m*3 14 C 0 km/h
350 20-09-2010 21:53:02 13.7 C 7.82 g/m*3 13.7 C 0 km/h
Sensor: Nr:Datum:Temp:Abs-Feuchte:Windchill:Wind:
Aussen-T/F 351 20-09-2010 22:06:02 13.6 C 8 g/m*3 13.6 C 0 km/h
352 20-09-2010 22:18:02 13.5 C 7.95 g/m*3 13.5 C 0 km/h
353 20-09-2010 22:30:02 13.5 C 8.07 g/m*3 13.5 C 0 km/h
354 20-09-2010 22:42:02 12.9 C 8.11 g/m*3 12.9 C 0 km/h
355 20-09-2010 22:54:02 12.6 C 8.19 g/m*3 12.6 C 0 km/h
356 20-09-2010 23:06:02 12.6 C 8.19 g/m*3 12.6 C 0 km/h
357 20-09-2010 23:18:02 12.5 C 8.14 g/m*3 12.5 C 0 km/h
358 20-09-2010 23:30:02 12.3 C 8.04 g/m*3 12.3 C 0 km/h
359 20-09-2010 23:42:02 12.1 C 7.94 g/m*3 12.1 C 0 km/h
360 20-09-2010 23:54:02 11.9 C 7.94 g/m*3 11.9 C 0 km/h
361 21-09-2010 00:06:03 11.8 C 7.89 g/m*3 11.8 C 0 km/h
362 21-09-2010 00:18:03 11.6 C 7.9 g/m*3 11.6 C 0 km/h
363 21-09-2010 00:30:03 11.5 C 7.85 g/m*3 11.5 C 0 km/h
364 21-09-2010 00:42:03 11.4 C 7.9 g/m*3 11.4 C 0 km/h
365 21-09-2010 00:54:03 11.3 C 7.85 g/m*3 11.3 C 0 km/h
366 21-09-2010 01:06:03 11.2 C 7.8 g/m*3 11.2 C 0 km/h
367 21-09-2010 01:18:03 11.1 C 7.86 g/m*3 11.1 C 0 km/h
368 21-09-2010 01:30:03 10.9 C 7.86 g/m*3 10.9 C 0 km/h
369 21-09-2010 01:42:03 10.8 C 7.81 g/m*3 10.8 C 0 km/h
370 21-09-2010 01:54:03 10.5 C 7.66 g/m*3 10.5 C 0 km/h
371 21-09-2010 02:06:03 10.4 C 7.71 g/m*3 10.4 C 0 km/h
372 21-09-2010 02:18:03 10.4 C 7.71 g/m*3 10.4 C 0 km/h
373 21-09-2010 02:30:03 10.3 C 7.76 g/m*3 10.3 C 0 km/h
374 21-09-2010 02:42:03 10.1 C 7.66 g/m*3 10.1 C 0 km/h
375 21-09-2010 02:54:03 10 C 7.61 g/m*3 10 C 0 km/h
Sensor: Nr:Datum:Temp:Abs-Feuchte:Windchill:Wind:
Aussen-T/F 376 21-09-2010 03:06:03 10 C 7.71 g/m*3 10 C 0 km/h
377 21-09-2010 03:18:03 9.9 C 7.75 g/m*3 9.9 C 0 km/h
378 21-09-2010 03:30:03 9.8 C 7.79 g/m*3 9.8 C 0 km/h
379 21-09-2010 03:42:03 9.5 C 7.65 g/m*3 9.5 C 0 km/h
380 21-09-2010 03:54:03 9.5 C 7.65 g/m*3 9.5 C 0 km/h
381 21-09-2010 04:06:04 9.4 C 7.6 g/m*3 9.4 C 0 km/h
382 21-09-2010 04:18:04 9.3 C 7.55 g/m*3 9.3 C 0 km/h
383 21-09-2010 04:30:04 9.2 C 7.5 g/m*3 9.2 C 0 km/h
384 21-09-2010 04:42:04 9.2 C 7.5 g/m*3 9.2 C 0 km/h
385 21-09-2010 04:54:04 9 C 7.41 g/m*3 9 C 0 km/h
386 21-09-2010 05:06:04 9 C 7.49 g/m*3 9 C 0 km/h
387 21-09-2010 05:18:04 8.8 C 7.49 g/m*3 8.8 C 0 km/h
388 21-09-2010 05:30:04 8.8 C 7.49 g/m*3 8.8 C 0 km/h
389 21-09-2010 05:42:04 8.7 C 7.44 g/m*3 8.7 C 0 km/h
390 21-09-2010 05:54:04 8.6 C 7.39 g/m*3 8.6 C 0 km/h
391 21-09-2010 06:06:04 8.5 C 7.43 g/m*3 8.5 C 0 km/h
392 21-09-2010 06:18:04 8.4 C 7.38 g/m*3 8.4 C 0 km/h
393 21-09-2010 06:30:04 8.3 C 7.33 g/m*3 8.3 C 0 km/h
394 21-09-2010 06:42:04 8.2 C 7.29 g/m*3 8.2 C 0 km/h
395 21-09-2010 06:54:04 8.3 C 7.42 g/m*3 8.3 C 0 km/h
396 21-09-2010 07:06:02 8.2 C 7.37 g/m*3 8.2 C 0 km/h
397 21-09-2010 07:18:02 8.2 C 7.37 g/m*3 8.2 C 0 km/h
398 21-09-2010 07:30:02 8.1 C 7.32 g/m*3 8.1 C 0 km/h
399 21-09-2010 07:42:03 8.1 C 7.32 g/m*3 8.1 C 0 km/h
400 21-09-2010 07:54:02 8.1 C 7.32 g/m*3 8.1 C 0 km/h
Sensor: Nr:Datum:Temp:Abs-Feuchte:Windchill:Wind:
Aussen-T/F 401 21-09-2010 08:06:01 8 C 7.36 g/m*3 8 C 0 km/h
402 21-09-2010 08:18:02 8.1 C 7.41 g/m*3 8.1 C 0 km/h
403 21-09-2010 08:30:02 8.2 C 7.54 g/m*3 8.2 C 0 km/h
404 21-09-2010 08:42:02 8.4 C 7.63 g/m*3 8.4 C 0 km/h
405 21-09-2010 08:54:02 8.6 C 7.73 g/m*3 8.6 C 0 km/h
406 21-09-2010 09:06:02 8.7 C 7.78 g/m*3 8.7 C 0 km/h
407 21-09-2010 09:18:02 8.9 C 7.88 g/m*3 8.9 C 0 km/h
408 21-09-2010 09:30:02 9.3 C 8 g/m*3 9.3 C 0 km/h
409 21-09-2010 09:42:02 9.5 C 8.1 g/m*3 9.5 C 0 km/h
410 21-09-2010 09:54:01 9.5 C 8.1 g/m*3 9.5 C 0 km/h
411 21-09-2010 10:06:02 9.9 C 8.31 g/m*3 9.9 C 0 km/h
412 21-09-2010 10:18:01 10.5 C 8.53 g/m*3 10.5 C 0 km/h
413 21-09-2010 10:30:01 11.1 C 8.76 g/m*3 11.1 C 0 km/h
414 21-09-2010 10:42:01 11.7 C 8.99 g/m*3 11.7 C 0 km/h
415 21-09-2010 10:54:01 12.4 C 8.96 g/m*3 12.4 C 0 km/h
416 21-09-2010 11:06:01 13 C 8.51 g/m*3 13 C 0 km/h
417 21-09-2010 11:18:02 13.6 C 8.59 g/m*3 13.6 C 0 km/h
418 21-09-2010 11:30:02 14 C 8.56 g/m*3 14 C 0 km/h
419 21-09-2010 11:42:01 14.7 C 8.81 g/m*3 14.7 C 0 km/h
420 21-09-2010 11:54:03 15.3 C 8.75 g/m*3 15.3 C 0 km/h
421 21-09-2010 12:06:02 15.8 C 8.75 g/m*3 15.8 C 0 km/h
422 21-09-2010 12:18:02 16.5 C 8.85 g/m*3 16.5 C 0 km/h
423 21-09-2010 12:30:03 16.5 C 9.13 g/m*3 16.5 C 0 km/h
424 21-09-2010 12:42:02 16 C 8.86 g/m*3 16 C 0 km/h
425 21-09-2010 12:54:02 15.9 C 9.34 g/m*3 15.9 C 0 km/h
Sensor: Nr:Datum:Temp:Abs-Feuchte:Windchill:Wind:
Aussen-T/F 426 21-09-2010 13:06:02 16.4 C 9.77 g/m*3 16.4 C 0 km/h
427 21-09-2010 13:18:02 16.6 C 9.46 g/m*3 16.6 C 0 km/h
428 21-09-2010 13:30:02 16.8 C 9.72 g/m*3 16.8 C 0 km/h
429 21-09-2010 13:42:02 17.3 C 9.87 g/m*3 17.3 C 0 km/h
430 21-09-2010 13:54:02 18 C 9.37 g/m*3 18 C 0 km/h
431 21-09-2010 14:06:02 17.5 C 9.54 g/m*3 17.5 C 0 km/h
432 21-09-2010 14:18:01 17.4 C 9.63 g/m*3 17.4 C 0 km/h
433 21-09-2010 14:30:01 17.2 C 9.52 g/m*3 17.2 C 0 km/h
434 21-09-2010 14:42:02 17.5 C 9.54 g/m*3 17.5 C 0 km/h
435 21-09-2010 14:54:02 19.5 C 9.06 g/m*3 19.5 C 0 km/h
436 21-09-2010 15:06:02 21.3 C 8.76 g/m*3 21.3 C 0 km/h
437 21-09-2010 15:18:02 22.6 C 8.44 g/m*3 22.6 C 0 km/h
438 21-09-2010 15:30:02 23.3 C 7.95 g/m*3 23.3 C 0 km/h
439 21-09-2010 15:42:02 23.9 C 7.79 g/m*3 23.9 C 0 km/h
440 21-09-2010 15:54:02 24.5 C 7.83 g/m*3 24.5 C 0 km/h
441 21-09-2010 16:06:02 25 C 7.6 g/m*3 25 C 0 km/h
442 21-09-2010 16:18:02 25.2 C 7.45 g/m*3 25.2 C 0 km/h
443 21-09-2010 16:30:02 25.2 C 7.68 g/m*3 25.2 C 0 km/h
444 21-09-2010 16:42:02 25.1 C 7.87 g/m*3 25.1 C 0 km/h
445 21-09-2010 16:54:02 25.3 C 7.49 g/m*3 25.3 C 0 km/h
446 21-09-2010 17:06:02 25.4 C 7.53 g/m*3 25.4 C 0 km/h
447 21-09-2010 17:18:02 25.5 C 7.81 g/m*3 25.5 C 0 km/h
448 21-09-2010 17:30:02 24.5 C 7.39 g/m*3 24.5 C 0 km/h
449 21-09-2010 17:42:02 24.1 C 7.44 g/m*3 24.1 C 0 km/h
450 21-09-2010 17:54:02 23.5 C 7.61 g/m*3 23.5 C 0 km/h
Sensor: Nr:Datum:Temp:Abs-Feuchte:Windchill:Wind:
Aussen-T/F 451 21-09-2010 18:06:02 23.2 C 7.69 g/m*3 23.2 C 0 km/h
452 21-09-2010 18:18:02 22.7 C 7.88 g/m*3 22.7 C 0 km/h
453 21-09-2010 18:30:02 22.2 C 7.85 g/m*3 22.2 C 0 km/h
454 21-09-2010 18:42:02 21.7 C 8.01 g/m*3 21.7 C 0 km/h
455 21-09-2010 18:54:02 21.1 C 7.92 g/m*3 21.1 C 0 km/h
456 21-09-2010 19:06:01 20.2 C 8.04 g/m*3 20.2 C 0 km/h
457 21-09-2010 19:18:02 19.5 C 8.22 g/m*3 19.5 C 0 km/h
458 21-09-2010 19:30:02 18.5 C 8.39 g/m*3 18.5 C 0 km/h
459 21-09-2010 19:42:02 17.8 C 8.5 g/m*3 17.8 C 0 km/h
460 21-09-2010 19:54:02 17.2 C 8.49 g/m*3 17.2 C 0 km/h
461 21-09-2010 20:06:03 16.8 C 8.58 g/m*3 16.8 C 0 km/h
462 21-09-2010 20:18:02 16.5 C 8.43 g/m*3 16.5 C 0 km/h
463 21-09-2010 20:30:02 16.3 C 8.46 g/m*3 16.3 C 0 km/h
464 21-09-2010 20:42:02 16.1 C 8.5 g/m*3 16.1 C 0 km/h
465 21-09-2010 20:54:02 15.8 C 8.62 g/m*3 15.8 C 0 km/h
466 21-09-2010 21:06:02 15.6 C 8.51 g/m*3 15.6 C 0 km/h
467 21-09-2010 21:18:01 15.4 C 8.41 g/m*3 15.4 C 0 km/h
468 21-09-2010 21:30:01 15.1 C 8.51 g/m*3 15.1 C 0 km/h
469 21-09-2010 21:42:02 14.7 C 8.56 g/m*3 14.7 C 0 km/h
470 21-09-2010 21:54:02 14.5 C 8.46 g/m*3 14.5 C 0 km/h
471 21-09-2010 22:06:02 14.4 C 8.53 g/m*3 14.4 C 0 km/h
472 21-09-2010 22:18:01 14.1 C 8.5 g/m*3 14.1 C 0 km/h
473 21-09-2010 22:30:01 13.9 C 8.51 g/m*3 13.9 C 0 km/h
474 21-09-2010 22:42:01 13.6 C 8.47 g/m*3 13.6 C 0 km/h
475 21-09-2010 22:54:01 13.5 C 8.54 g/m*3 13.5 C 0 km/h
Sensor: Nr:Datum:Temp:Abs-Feuchte:Windchill:Wind:
Aussen-T/F 476 21-09-2010 23:06:01 13.2 C 8.38 g/m*3 13.2 C 0 km/h
477 21-09-2010 23:18:01 13.1 C 8.44 g/m*3 13.1 C 0 km/h
478 21-09-2010 23:30:01 13 C 8.51 g/m*3 13 C 0 km/h
479 21-09-2010 23:42:01 12.9 C 8.68 g/m*3 12.9 C 0 km/h
480 21-09-2010 23:54:01 12.7 C 8.68 g/m*3 12.7 C 0 km/h
481 22-09-2010 00:06:01 12.5 C 8.69 g/m*3 12.5 C 0 km/h
482 22-09-2010 00:18:01 12.3 C 8.58 g/m*3 12.3 C 0 km/h
483 22-09-2010 00:30:01 12.2 C 8.52 g/m*3 12.2 C 0 km/h
484 22-09-2010 00:42:01 12.1 C 8.47 g/m*3 12.1 C 0 km/h
485 22-09-2010 00:54:01 11.9 C 8.47 g/m*3 11.9 C 0 km/h
486 22-09-2010 01:06:02 11.8 C 8.53 g/m*3 11.8 C 0 km/h
487 22-09-2010 01:18:02 11.6 C 8.42 g/m*3 11.6 C 0 km/h
488 22-09-2010 01:30:02 11.5 C 8.47 g/m*3 11.5 C 0 km/h
489 22-09-2010 01:42:02 11.3 C 8.26 g/m*3 11.3 C 0 km/h
490 22-09-2010 01:54:02 11.3 C 8.36 g/m*3 11.3 C 0 km/h
491 22-09-2010 02:06:02 11 C 8.21 g/m*3 11 C 0 km/h
492 22-09-2010 02:18:02 10.9 C 8.16 g/m*3 10.9 C 0 km/h
493 22-09-2010 02:30:02 10.8 C 8.2 g/m*3 10.8 C 0 km/h
494 22-09-2010 02:42:02 10.7 C 8.15 g/m*3 10.7 C 0 km/h
495 22-09-2010 02:54:02 10.5 C 8.05 g/m*3 10.5 C 0 km/h
496 22-09-2010 03:06:02 10.4 C 8 g/m*3 10.4 C 0 km/h
497 22-09-2010 03:18:02 10.4 C 8 g/m*3 10.4 C 0 km/h
498 22-09-2010 03:30:02 10.3 C 8.04 g/m*3 10.3 C 0 km/h
499 22-09-2010 03:42:02 10.1 C 7.94 g/m*3 10.1 C 0 km/h
500 22-09-2010 03:54:02 9.9 C 8.03 g/m*3 9.9 C 0 km/h
Sensor: Nr:Datum:Temp:Abs-Feuchte:Windchill:Wind:
Aussen-T/F 501 22-09-2010 04:06:02 9.9 C 8.03 g/m*3 9.9 C 0 km/h
502 22-09-2010 04:18:02 9.7 C 7.93 g/m*3 9.7 C 0 km/h
503 22-09-2010 04:30:02 9.6 C 7.79 g/m*3 9.6 C 0 km/h
504 22-09-2010 04:42:02 9.6 C 7.88 g/m*3 9.6 C 0 km/h
505 22-09-2010 04:54:02 9.8 C 8.07 g/m*3 9.8 C 0 km/h
506 22-09-2010 05:06:02 9.8 C 8.07 g/m*3 9.8 C 0 km/h
507 22-09-2010 05:18:02 9.9 C 8.22 g/m*3 9.9 C 0 km/h
508 22-09-2010 05:30:03 9.9 C 8.22 g/m*3 9.9 C 0 km/h
509 22-09-2010 05:42:03 9.9 C 8.22 g/m*3 9.9 C 0 km/h
510 22-09-2010 05:54:03 9.7 C 8.02 g/m*3 9.7 C 0 km/h
511 22-09-2010 06:06:03 9.8 C 8.16 g/m*3 9.8 C 0 km/h
512 22-09-2010 06:18:03 9.8 C 8.16 g/m*3 9.8 C 0 km/h
513 22-09-2010 06:30:03 9.8 C 8.16 g/m*3 9.8 C 0 km/h
514 22-09-2010 06:42:03 9.7 C 8.11 g/m*3 9.7 C 0 km/h
515 22-09-2010 06:54:03 9.8 C 8.16 g/m*3 9.8 C 0 km/h
516 22-09-2010 07:06:01 9.8 C 8.16 g/m*3 9.8 C 0 km/h
517 22-09-2010 07:18:02 9.8 C 8.16 g/m*3 9.8 C 0 km/h
518 22-09-2010 07:30:02 9.6 C 8.06 g/m*3 9.6 C 0 km/h
519 22-09-2010 07:42:01 9.3 C 7.91 g/m*3 9.3 C 0 km/h
520 22-09-2010 07:54:01 9.3 C 7.91 g/m*3 9.3 C 0 km/h
521 22-09-2010 08:06:01 9.3 C 7.91 g/m*3 9.3 C 0 km/h
522 22-09-2010 08:18:02 9.3 C 7.91 g/m*3 9.3 C 0 km/h
523 22-09-2010 08:30:02 9.6 C 8.15 g/m*3 9.6 C 0 km/h
524 22-09-2010 08:42:01 9.3 C 7.91 g/m*3 9.3 C 0 km/h
525 22-09-2010 08:54:02 9.3 C 7.91 g/m*3 9.3 C 0 km/h
Sensor: Nr:Datum:Temp:Abs-Feuchte:Windchill:Wind:
Aussen-T/F 526 22-09-2010 09:06:01 9.6 C 8.06 g/m*3 9.6 C 0 km/h
527 22-09-2010 09:18:02 9.8 C 8.16 g/m*3 9.8 C 0 km/h
528 22-09-2010 09:30:02 10.2 C 8.09 g/m*3 10.2 C 0 km/h
529 22-09-2010 09:42:01 10.3 C 8.04 g/m*3 10.3 C 0 km/h
530 22-09-2010 09:54:02 11 C 8.41 g/m*3 11 C 0 km/h
531 22-09-2010 10:06:01 11.8 C 8.63 g/m*3 11.8 C 0 km/h
532 22-09-2010 10:18:01 12.4 C 8.74 g/m*3 12.4 C 0 km/h
533 22-09-2010 10:30:01 12 C 8.31 g/m*3 12 C 0 km/h
534 22-09-2010 10:42:02 12.7 C 8.79 g/m*3 12.7 C 0 km/h
535 22-09-2010 10:54:01 13.2 C 8.73 g/m*3 13.2 C 0 km/h
536 22-09-2010 11:06:02 12.9 C 8.68 g/m*3 12.9 C 0 km/h
537 22-09-2010 11:18:01 13.1 C 8.9 g/m*3 13.1 C 0 km/h
538 22-09-2010 11:30:01 13.6 C 9.3 g/m*3 13.6 C 0 km/h
539 22-09-2010 11:42:02 14.2 C 9.52 g/m*3 14.2 C 0 km/h
540 22-09-2010 11:54:01 15.1 C 9.55 g/m*3 15.1 C 0 km/h
541 22-09-2010 12:06:02 15.6 C 9.71 g/m*3 15.6 C 0 km/h
542 22-09-2010 12:18:01 16 C 9.67 g/m*3 16 C 0 km/h
543 22-09-2010 12:30:01 16.5 C 9.97 g/m*3 16.5 C 0 km/h
544 22-09-2010 12:42:01 17.1 C 10.19 g/m*3 17.1 C 0 km/h
545 22-09-2010 12:54:01 17.5 C 10.29 g/m*3 17.5 C 0 km/h
546 22-09-2010 13:06:01 18.4 C 9.91 g/m*3 18.4 C 0 km/h
547 22-09-2010 13:18:02 19.1 C 9.84 g/m*3 19.1 C 0 km/h
548 22-09-2010 13:30:02 19.7 C 10.19 g/m*3 19.7 C 0 km/h
549 22-09-2010 13:42:01 20.4 C 10.26 g/m*3 20.4 C 0 km/h
550 22-09-2010 13:54:01 21.2 C 10.19 g/m*3 21.2 C 0 km/h
Sensor: Nr:Datum:Temp:Abs-Feuchte:Windchill:Wind:
Aussen-T/F 551 22-09-2010 14:06:01 21.8 C 10.36 g/m*3 21.8 C 0 km/h
552 22-09-2010 14:18:02 22.2 C 10.01 g/m*3 22.2 C 0 km/h
553 22-09-2010 14:30:02 22.9 C 10.22 g/m*3 22.9 C 0 km/h
554 22-09-2010 14:42:01 23.4 C 9.88 g/m*3 23.4 C 0 km/h
555 22-09-2010 14:54:02 24 C 9.79 g/m*3 24 C 0 km/h
556 22-09-2010 15:06:01 24.2 C 9.9 g/m*3 24.2 C 0 km/h
557 22-09-2010 15:18:01 24.1 C 9.63 g/m*3 24.1 C 0 km/h
558 22-09-2010 15:30:01 24.9 C 9.61 g/m*3 24.9 C 0 km/h
559 22-09-2010 15:42:01 25.6 C 8.81 g/m*3 25.6 C 0 km/h
560 22-09-2010 15:54:01 26.5 C 8.26 g/m*3 26.5 C 0 km/h
561 22-09-2010 16:06:01 26.9 C 8.7 g/m*3 26.9 C 0 km/h
562 22-09-2010 16:18:01 27.1 C 8.8 g/m*3 27.1 C 0 km/h
563 22-09-2010 16:30:01 27.4 C 8.68 g/m*3 27.4 C 0 km/h
564 22-09-2010 16:42:02 27.6 C 8.51 g/m*3 27.6 C 0 km/h
565 22-09-2010 16:54:01 27.6 C 8.25 g/m*3 27.6 C 0 km/h
566 22-09-2010 17:06:02 27.3 C 7.85 g/m*3 27.3 C 0 km/h
567 22-09-2010 17:18:01 27.4 C 8.16 g/m*3 27.4 C 0 km/h
568 22-09-2010 17:30:01 27.2 C 8.07 g/m*3 27.2 C 0 km/h
569 22-09-2010 17:42:01 26.9 C 7.93 g/m*3 26.9 C 0 km/h
570 22-09-2010 17:54:01 26.5 C 8.76 g/m*3 26.5 C 0 km/h
571 22-09-2010 18:06:02 26.1 C 8.81 g/m*3 26.1 C 0 km/h
572 22-09-2010 18:18:01 25.6 C 9.05 g/m*3 25.6 C 0 km/h
573 22-09-2010 18:30:01 25.3 C 9.36 g/m*3 25.3 C 0 km/h
574 22-09-2010 18:42:01 24.1 C 8.97 g/m*3 24.1 C 0 km/h
575 22-09-2010 18:54:01 23.3 C 9.2 g/m*3 23.3 C 0 km/h
Sensor: Nr:Datum:Temp:Abs-Feuchte:Windchill:Wind:
Aussen-T/F 576 22-09-2010 19:06:01 22.5 C 9.19 g/m*3 22.5 C 0 km/h
577 22-09-2010 19:18:02 21.8 C 9.4 g/m*3 21.8 C 0 km/h
578 22-09-2010 19:30:02 20.6 C 9.31 g/m*3 20.6 C 0 km/h
579 22-09-2010 19:42:01 20 C 8.99 g/m*3 20 C 0 km/h
580 22-09-2010 19:54:01 19.5 C 9.06 g/m*3 19.5 C 0 km/h
581 22-09-2010 20:06:01 19 C 9.13 g/m*3 19 C 0 km/h
582 22-09-2010 20:18:02 18.7 C 9.13 g/m*3 18.7 C 0 km/h
583 22-09-2010 20:30:02 18.5 C 9.02 g/m*3 18.5 C 0 km/h
584 22-09-2010 20:42:01 18.4 C 9.12 g/m*3 18.4 C 0 km/h
585 22-09-2010 20:54:02 18.1 C 9.12 g/m*3 18.1 C 0 km/h
586 22-09-2010 21:06:01 17.9 C 9.31 g/m*3 17.9 C 0 km/h
587 22-09-2010 21:18:01 17.6 C 9.45 g/m*3 17.6 C 0 km/h
588 22-09-2010 21:30:01 17.5 C 9.24 g/m*3 17.5 C 0 km/h
589 22-09-2010 21:42:01 17.3 C 9.28 g/m*3 17.3 C 0 km/h
590 22-09-2010 21:54:01 17 C 9.26 g/m*3 17 C 0 km/h
591 22-09-2010 22:08:02 16.8 C 9.29 g/m*3 16.8 C 0 km/h
592 22-09-2010 22:20:02 16.4 C 9.35 g/m*3 16.4 C 0 km/h
593 22-09-2010 22:32:02 16.1 C 9.32 g/m*3 16.1 C 0 km/h
594 22-09-2010 22:44:02 15.9 C 9.21 g/m*3 15.9 C 0 km/h
595 22-09-2010 22:56:02 15.7 C 9.1 g/m*3 15.7 C 0 km/h
596 22-09-2010 23:08:02 15.4 C 8.8 g/m*3 15.4 C 0 km/h
597 22-09-2010 23:20:02 15.1 C 8.77 g/m*3 15.1 C 0 km/h
598 22-09-2010 23:32:02 14.9 C 8.79 g/m*3 14.9 C 0 km/h
599 22-09-2010 23:44:02 14.7 C 8.81 g/m*3 14.7 C 0 km/h
600 22-09-2010 23:56:02 14.5 C 8.71 g/m*3 14.5 C 0 km/h
Sensor: Nr:Datum:Temp:Abs-Feuchte:Windchill:Wind:
Aussen-T/F 601 23-09-2010 00:08:02 14.4 C 8.53 g/m*3 14.4 C 0 km/h
602 23-09-2010 00:20:02 14.2 C 8.67 g/m*3 14.2 C 0 km/h
603 23-09-2010 00:32:02 14 C 8.56 g/m*3 14 C 0 km/h
604 23-09-2010 00:44:02 13.8 C 8.7 g/m*3 13.8 C 0 km/h
605 23-09-2010 00:56:02 13.7 C 8.76 g/m*3 13.7 C 0 km/h
606 23-09-2010 01:08:02 13.5 C 8.77 g/m*3 13.5 C 0 km/h
607 23-09-2010 01:20:02 13.4 C 8.72 g/m*3 13.4 C 0 km/h
608 23-09-2010 01:32:02 13.2 C 8.73 g/m*3 13.2 C 0 km/h
609 23-09-2010 01:44:02 13.1 C 8.67 g/m*3 13.1 C 0 km/h
610 23-09-2010 01:56:03 12.9 C 8.68 g/m*3 12.9 C 0 km/h
611 23-09-2010 02:08:03 12.8 C 8.74 g/m*3 12.8 C 0 km/h
612 23-09-2010 02:20:03 12.6 C 8.74 g/m*3 12.6 C 0 km/h
613 23-09-2010 02:32:03 12.4 C 8.74 g/m*3 12.4 C 0 km/h
614 23-09-2010 02:44:03 12.3 C 8.69 g/m*3 12.3 C 0 km/h
615 23-09-2010 02:56:03 12.1 C 8.58 g/m*3 12.1 C 0 km/h
616 23-09-2010 03:08:03 12 C 8.53 g/m*3 12 C 0 km/h
617 23-09-2010 03:20:03 11.8 C 8.53 g/m*3 11.8 C 0 km/h
618 23-09-2010 03:32:03 11.8 C 8.53 g/m*3 11.8 C 0 km/h
619 23-09-2010 03:44:03 11.8 C 8.63 g/m*3 11.8 C 0 km/h
620 23-09-2010 03:56:03 11.6 C 8.63 g/m*3 11.6 C 0 km/h
621 23-09-2010 04:08:03 11.4 C 8.52 g/m*3 11.4 C 0 km/h
622 23-09-2010 04:20:03 11.2 C 8.41 g/m*3 11.2 C 0 km/h
623 23-09-2010 04:32:03 11.2 C 8.41 g/m*3 11.2 C 0 km/h
624 23-09-2010 04:44:03 11 C 8.31 g/m*3 11 C 0 km/h
625 23-09-2010 04:56:03 11 C 8.31 g/m*3 11 C 0 km/h
Sensor: Nr:Datum:Temp:Abs-Feuchte:Windchill:Wind:
Aussen-T/F 626 23-09-2010 05:08:03 10.9 C 8.36 g/m*3 10.9 C 0 km/h
627 23-09-2010 05:20:03 10.7 C 8.25 g/m*3 10.7 C 0 km/h
628 23-09-2010 05:32:03 10.6 C 8.2 g/m*3 10.6 C 0 km/h
629 23-09-2010 05:44:03 10.5 C 8.15 g/m*3 10.5 C 0 km/h
630 23-09-2010 05:56:03 10.5 C 8.15 g/m*3 10.5 C 0 km/h
631 23-09-2010 06:08:03 10.4 C 8.1 g/m*3 10.4 C 0 km/h
632 23-09-2010 06:20:04 10.5 C 8.24 g/m*3 10.5 C 0 km/h
633 23-09-2010 06:32:04 10.6 C 8.3 g/m*3 10.6 C 0 km/h
634 23-09-2010 06:44:04 10.4 C 8.19 g/m*3 10.4 C 0 km/h
635 23-09-2010 06:56:04 10.4 C 8.19 g/m*3 10.4 C 0 km/h
636 23-09-2010 07:08:02 10.5 C 8.24 g/m*3 10.5 C 0 km/h
637 23-09-2010 07:20:01 10.4 C 8.19 g/m*3 10.4 C 0 km/h
638 23-09-2010 07:32:02 10.5 C 8.24 g/m*3 10.5 C 0 km/h
639 23-09-2010 07:44:02 10.6 C 8.3 g/m*3 10.6 C 0 km/h
640 23-09-2010 07:56:02 10.6 C 8.3 g/m*3 10.6 C 0 km/h
641 23-09-2010 08:08:02 10.6 C 8.3 g/m*3 10.6 C 0 km/h
642 23-09-2010 08:20:01 10.7 C 8.35 g/m*3 10.7 C 0 km/h
643 23-09-2010 08:32:02 10.8 C 8.4 g/m*3 10.8 C 0 km/h
644 23-09-2010 08:44:02 11 C 8.51 g/m*3 11 C 0 km/h
645 23-09-2010 08:56:02 11.3 C 8.57 g/m*3 11.3 C 0 km/h
646 23-09-2010 09:08:01 11.4 C 8.52 g/m*3 11.4 C 0 km/h
647 23-09-2010 09:20:01 11.4 C 8.52 g/m*3 11.4 C 0 km/h
648 23-09-2010 09:32:02 11.4 C 8.52 g/m*3 11.4 C 0 km/h
649 23-09-2010 09:44:02 11.7 C 8.79 g/m*3 11.7 C 0 km/h
650 23-09-2010 09:56:02 12.3 C 8.9 g/m*3 12.3 C 0 km/h
Sensor: Nr:Datum:Temp:Abs-Feuchte:Windchill:Wind:
Aussen-T/F 651 23-09-2010 10:08:02 12.4 C 8.96 g/m*3 12.4 C 0 km/h
652 23-09-2010 10:20:02 12.5 C 9.02 g/m*3 12.5 C 0 km/h
653 23-09-2010 10:32:02 12.9 C 9.24 g/m*3 12.9 C 0 km/h
654 23-09-2010 10:44:02 13.3 C 9.36 g/m*3 13.3 C 0 km/h
655 23-09-2010 10:56:02 13.8 C 9.65 g/m*3 13.8 C 0 km/h
656 23-09-2010 11:08:02 14.1 C 9.71 g/m*3 14.1 C 0 km/h
657 23-09-2010 11:20:02 15 C 10 g/m*3 15 C 0 km/h
658 23-09-2010 11:32:02 15.8 C 10.23 g/m*3 15.8 C 0 km/h
659 23-09-2010 11:44:02 16.3 C 10.13 g/m*3 16.3 C 0 km/h
660 23-09-2010 11:56:02 17 C 10.27 g/m*3 17 C 0 km/h
661 23-09-2010 12:08:02 17.5 C 10.44 g/m*3 17.5 C 0 km/h
662 23-09-2010 12:20:02 18 C 10.44 g/m*3 18 C 0 km/h
663 23-09-2010 12:32:02 18.7 C 10.73 g/m*3 18.7 C 0 km/h
664 23-09-2010 12:44:02 19.2 C 10.55 g/m*3 19.2 C 0 km/h
665 23-09-2010 12:56:02 19.9 C 10.82 g/m*3 19.9 C 0 km/h
666 23-09-2010 13:08:02 20.5 C 11.03 g/m*3 20.5 C 0 km/h
667 23-09-2010 13:20:02 21.4 C 11.06 g/m*3 21.4 C 0 km/h
668 23-09-2010 13:32:01 22.3 C 11.26 g/m*3 22.3 C 0 km/h
669 23-09-2010 13:44:01 23.3 C 10.66 g/m*3 23.3 C 0 km/h
670 23-09-2010 13:56:02 24 C 9.14 g/m*3 24 C 0 km/h
671 23-09-2010 14:08:01 24.5 C 9.62 g/m*3 24.5 C 0 km/h
672 23-09-2010 14:20:02 23.8 C 10.11 g/m*3 23.8 C 0 km/h
673 23-09-2010 14:32:02 23.7 C 10.48 g/m*3 23.7 C 0 km/h
674 23-09-2010 14:44:02 23.8 C 10.54 g/m*3 23.8 C 0 km/h
675 23-09-2010 14:56:02 24.5 C 10.3 g/m*3 24.5 C 0 km/h
Sensor: Nr:Datum:Temp:Abs-Feuchte:Windchill:Wind:
Aussen-T/F 676 23-09-2010 15:08:02 25.2 C 8.85 g/m*3 25.2 C 0 km/h
677 23-09-2010 15:20:02 25.2 C 9.78 g/m*3 25.2 C 0 km/h
678 23-09-2010 15:32:02 24.8 C 9.33 g/m*3 24.8 C 0 km/h
679 23-09-2010 15:44:03 25.1 C 9.26 g/m*3 25.1 C 0 km/h
680 23-09-2010 15:56:01 24.9 C 9.61 g/m*3 24.9 C 0 km/h
681 23-09-2010 16:08:02 25.1 C 10.19 g/m*3 25.1 C 0 km/h
682 23-09-2010 16:20:01 26 C 9.74 g/m*3 26 C 0 km/h
683 23-09-2010 16:32:01 25.6 C 9.05 g/m*3 25.6 C 0 km/h
684 23-09-2010 16:44:01 24.9 C 10.07 g/m*3 24.9 C 0 km/h
685 23-09-2010 16:56:01 24.1 C 10.28 g/m*3 24.1 C 0 km/h
686 23-09-2010 17:08:01 23.7 C 10.91 g/m*3 23.7 C 0 km/h
687 23-09-2010 17:20:02 23.4 C 10.72 g/m*3 23.4 C 0 km/h
688 23-09-2010 17:32:01 23.2 C 10.81 g/m*3 23.2 C 0 km/h
689 23-09-2010 17:44:01 23.3 C 10.45 g/m*3 23.3 C 0 km/h
690 23-09-2010 17:56:02 23.8 C 10.76 g/m*3 23.8 C 0 km/h
691 23-09-2010 18:08:01 23.3 C 10.45 g/m*3 23.3 C 0 km/h
692 23-09-2010 18:20:02 22.6 C 10.25 g/m*3 22.6 C 0 km/h
693 23-09-2010 18:32:01 21.7 C 10.68 g/m*3 21.7 C 0 km/h
694 23-09-2010 18:44:01 21.6 C 10.81 g/m*3 21.6 C 0 km/h
695 23-09-2010 18:56:02 21.4 C 10.87 g/m*3 21.4 C 0 km/h
696 23-09-2010 19:08:02 20.9 C 10.93 g/m*3 20.9 C 0 km/h
697 23-09-2010 19:20:02 20.4 C 10.97 g/m*3 20.4 C 0 km/h
698 23-09-2010 19:32:02 19.8 C 11.1 g/m*3 19.8 C 0 km/h
699 23-09-2010 19:44:02 19.4 C 11.18 g/m*3 19.4 C 0 km/h
700 23-09-2010 19:56:02 19 C 11.08 g/m*3 19 C 0 km/h
Sensor: Nr:Datum:Temp:Abs-Feuchte:Windchill:Wind:
Aussen-T/F 701 23-09-2010 20:08:01 18.8 C 11.43 g/m*3 18.8 C 0 km/h
702 23-09-2010 20:20:02 18.6 C 11.3 g/m*3 18.6 C 0 km/h
703 23-09-2010 20:32:02 18.6 C 11.3 g/m*3 18.6 C 0 km/h
704 23-09-2010 20:44:02 18.4 C 11.32 g/m*3 18.4 C 0 km/h
705 23-09-2010 20:56:02 18.1 C 11.12 g/m*3 18.1 C 0 km/h
706 23-09-2010 21:08:02 18.4 C 11.48 g/m*3 18.4 C 0 km/h
707 23-09-2010 21:20:01 18.3 C 11.41 g/m*3 18.3 C 0 km/h
708 23-09-2010 21:32:02 18.4 C 11.64 g/m*3 18.4 C 0 km/h
709 23-09-2010 21:44:02 18.7 C 11.53 g/m*3 18.7 C 0 km/h
710 23-09-2010 21:57:02 18.7 C 11.37 g/m*3 18.7 C 0 km/h
711 23-09-2010 22:09:02 18.5 C 11.23 g/m*3 18.5 C 0 km/h
712 23-09-2010 22:21:02 18.5 C 11.39 g/m*3 18.5 C 0 km/h
713 23-09-2010 22:33:02 17.9 C 11.6 g/m*3 17.9 C 0 km/h
714 23-09-2010 22:45:02 17.7 C 12.52 g/m*3 17.7 C 0 km/h
715 23-09-2010 22:57:02 17.1 C 12.23 g/m*3 17.1 C 0 km/h
716 23-09-2010 23:09:02 16.9 C 12.37 g/m*3 16.9 C 0 km/h
717 23-09-2010 23:21:02 16.5 C 12.22 g/m*3 16.5 C 0 km/h
718 23-09-2010 23:33:02 16.4 C 12.28 g/m*3 16.4 C 0 km/h
719 23-09-2010 23:45:02 16.2 C 12.14 g/m*3 16.2 C 0 km/h
720 23-09-2010 23:57:02 16.2 C 12.27 g/m*3 16.2 C 0 km/h
721 24-09-2010 00:09:02 16 C 12.13 g/m*3 16 C 0 km/h
722 24-09-2010 00:21:02 15.9 C 12.32 g/m*3 15.9 C 0 km/h
723 24-09-2010 00:33:02 15.6 C 12.1 g/m*3 15.6 C 0 km/h
724 24-09-2010 00:45:02 15.5 C 12.16 g/m*3 15.5 C 0 km/h
725 24-09-2010 00:57:02 15.5 C 12.16 g/m*3 15.5 C 0 km/h
Sensor: Nr:Datum:Temp:Abs-Feuchte:Windchill:Wind:
Aussen-T/F 726 24-09-2010 01:09:02 15.5 C 12.16 g/m*3 15.5 C 0 km/h
727 24-09-2010 01:21:02 15.5 C 12.29 g/m*3 15.5 C 0 km/h
728 24-09-2010 01:33:02 15.6 C 12.37 g/m*3 15.6 C 0 km/h
729 24-09-2010 01:45:02 15.6 C 12.37 g/m*3 15.6 C 0 km/h
730 24-09-2010 01:57:03 15.5 C 12.29 g/m*3 15.5 C 0 km/h
731 24-09-2010 02:09:03 15.5 C 12.29 g/m*3 15.5 C 0 km/h
732 24-09-2010 02:21:03 15.5 C 12.29 g/m*3 15.5 C 0 km/h
733 24-09-2010 02:33:03 15.4 C 12.22 g/m*3 15.4 C 0 km/h
734 24-09-2010 02:45:03 15.3 C 12.01 g/m*3 15.3 C 0 km/h
735 24-09-2010 02:57:03 15.2 C 11.94 g/m*3 15.2 C 0 km/h
736 24-09-2010 03:09:03 15.1 C 11.87 g/m*3 15.1 C 0 km/h
737 24-09-2010 03:21:03 14.9 C 11.85 g/m*3 14.9 C 0 km/h
738 24-09-2010 03:33:03 14.9 C 11.85 g/m*3 14.9 C 0 km/h
739 24-09-2010 03:45:03 14.9 C 11.98 g/m*3 14.9 C 0 km/h
740 24-09-2010 03:57:03 14.9 C 11.98 g/m*3 14.9 C 0 km/h
741 24-09-2010 04:09:03 14.8 C 11.91 g/m*3 14.8 C 0 km/h
742 24-09-2010 04:21:03 14.8 C 11.91 g/m*3 14.8 C 0 km/h
743 24-09-2010 04:33:03 14.8 C 11.91 g/m*3 14.8 C 0 km/h
744 24-09-2010 04:45:03 14.8 C 11.91 g/m*3 14.8 C 0 km/h
745 24-09-2010 04:57:03 14.7 C 11.83 g/m*3 14.7 C 0 km/h
746 24-09-2010 05:09:03 14.5 C 11.69 g/m*3 14.5 C 0 km/h
747 24-09-2010 05:21:03 14.5 C 11.69 g/m*3 14.5 C 0 km/h
748 24-09-2010 05:33:03 14.5 C 11.69 g/m*3 14.5 C 0 km/h
749 24-09-2010 05:45:03 14.6 C 11.76 g/m*3 14.6 C 0 km/h
750 24-09-2010 05:57:03 14.6 C 11.76 g/m*3 14.6 C 0 km/h
Sensor: Nr:Datum:Temp:Abs-Feuchte:Windchill:Wind:
Aussen-T/F 751 24-09-2010 06:09:03 14.7 C 11.83 g/m*3 14.7 C 0 km/h
752 24-09-2010 06:21:04 14.7 C 11.83 g/m*3 14.7 C 0 km/h
753 24-09-2010 06:33:04 14.7 C 11.83 g/m*3 14.7 C 0 km/h
754 24-09-2010 06:45:04 14.7 C 11.83 g/m*3 14.7 C 0 km/h
755 24-09-2010 06:57:04 14.7 C 11.83 g/m*3 14.7 C 0 km/h
756 24-09-2010 07:09:04 14.5 C 11.69 g/m*3 14.5 C 0 km/h
757 24-09-2010 07:21:04 14.4 C 11.62 g/m*3 14.4 C 0 km/h
758 24-09-2010 07:33:02 14.3 C 11.55 g/m*3 14.3 C 0 km/h
759 24-09-2010 07:45:02 14.4 C 11.62 g/m*3 14.4 C 0 km/h
760 24-09-2010 07:57:02 14.4 C 11.62 g/m*3 14.4 C 0 km/h
761 24-09-2010 08:09:02 14.4 C 11.62 g/m*3 14.4 C 0 km/h
762 24-09-2010 08:21:01 14.3 C 11.55 g/m*3 14.3 C 0 km/h
763 24-09-2010 08:33:02 14.6 C 11.89 g/m*3 14.6 C 0 km/h
764 24-09-2010 08:45:02 14.8 C 12.03 g/m*3 14.8 C 0 km/h
765 24-09-2010 08:57:02 14.8 C 12.03 g/m*3 14.8 C 0 km/h
766 24-09-2010 09:09:01 14.8 C 12.03 g/m*3 14.8 C 0 km/h
767 24-09-2010 09:21:02 14.8 C 12.03 g/m*3 14.8 C 0 km/h
768 24-09-2010 09:33:01 14.9 C 12.11 g/m*3 14.9 C 0 km/h
769 24-09-2010 09:45:02 14.9 C 12.11 g/m*3 14.9 C 0 km/h
770 24-09-2010 09:57:02 15 C 12.05 g/m*3 15 C 0 km/h
771 24-09-2010 10:09:02 15 C 12.05 g/m*3 15 C 0 km/h
772 24-09-2010 10:21:02 14.9 C 12.11 g/m*3 14.9 C 0 km/h
773 24-09-2010 10:33:02 15 C 12.05 g/m*3 15 C 0 km/h
774 24-09-2010 10:45:01 15 C 12.05 g/m*3 15 C 0 km/h
775 24-09-2010 10:57:01 15 C 12.05 g/m*3 15 C 0 km/h
Sensor: Nr:Datum:Temp:Abs-Feuchte:Windchill:Wind:
Aussen-T/F 776 24-09-2010 11:09:02 15.1 C 12.13 g/m*3 15.1 C 0 km/h
777 24-09-2010 11:21:01 15.1 C 12.13 g/m*3 15.1 C 0 km/h
778 24-09-2010 11:33:01 15.4 C 12.35 g/m*3 15.4 C 0 km/h
779 24-09-2010 11:45:02 15.4 C 12.35 g/m*3 15.4 C 0 km/h
780 24-09-2010 11:57:02 15.1 C 12.13 g/m*3 15.1 C 0 km/h
781 24-09-2010 12:09:02 15.1 C 12.13 g/m*3 15.1 C 0 km/h
782 24-09-2010 12:21:02 15.1 C 12.13 g/m*3 15.1 C 0 km/h
783 24-09-2010 12:33:03 15.4 C 12.48 g/m*3 15.4 C 0 km/h
784 24-09-2010 12:45:02 15.1 C 12.13 g/m*3 15.1 C 0 km/h
785 24-09-2010 12:57:03 15 C 12.05 g/m*3 15 C 0 km/h
786 24-09-2010 13:09:02 14.8 C 11.91 g/m*3 14.8 C 0 km/h
787 24-09-2010 13:21:02 14.6 C 11.76 g/m*3 14.6 C 0 km/h
788 24-09-2010 13:33:02 14.5 C 11.69 g/m*3 14.5 C 0 km/h
789 24-09-2010 13:45:02 14.5 C 11.69 g/m*3 14.5 C 0 km/h
790 24-09-2010 13:57:02 14.4 C 11.62 g/m*3 14.4 C 0 km/h
791 24-09-2010 14:09:03 14.1 C 11.41 g/m*3 14.1 C 0 km/h
792 24-09-2010 14:21:02 13.8 C 11.2 g/m*3 13.8 C 0 km/h
793 24-09-2010 14:33:03 13.5 C 10.99 g/m*3 13.5 C 0 km/h
794 24-09-2010 14:45:02 13.2 C 10.79 g/m*3 13.2 C 0 km/h
795 24-09-2010 14:57:02 13.1 C 10.73 g/m*3 13.1 C 0 km/h
796 24-09-2010 15:09:02 12.9 C 10.71 g/m*3 12.9 C 0 km/h
797 24-09-2010 15:21:03 13.1 C 10.73 g/m*3 13.1 C 0 km/h
798 24-09-2010 15:33:02 13 C 10.77 g/m*3 13 C 0 km/h
799 24-09-2010 15:45:03 13.2 C 10.91 g/m*3 13.2 C 0 km/h
800 24-09-2010 15:57:03 13.2 C 10.91 g/m*3 13.2 C 0 km/h
Sensor: Nr:Datum:Temp:Abs-Feuchte:Windchill:Wind:
Aussen-T/F 801 24-09-2010 16:09:02 13.3 C 10.98 g/m*3 13.3 C 0 km/h
802 24-09-2010 16:21:02 13.7 C 11.25 g/m*3 13.7 C 0 km/h
803 24-09-2010 16:33:02 14 C 11.46 g/m*3 14 C 0 km/h
804 24-09-2010 16:45:02 14.1 C 11.53 g/m*3 14.1 C 0 km/h
805 24-09-2010 16:57:02 13.9 C 11.39 g/m*3 13.9 C 0 km/h
806 24-09-2010 17:09:02 13.9 C 11.39 g/m*3 13.9 C 0 km/h
807 24-09-2010 17:21:02 13.9 C 11.39 g/m*3 13.9 C 0 km/h
808 24-09-2010 17:33:02 13.4 C 10.93 g/m*3 13.4 C 0 km/h
809 24-09-2010 17:45:02 13.2 C 10.79 g/m*3 13.2 C 0 km/h
810 24-09-2010 17:57:02 13 C 10.66 g/m*3 13 C 0 km/h
811 24-09-2010 18:09:01 13.2 C 10.79 g/m*3 13.2 C 0 km/h
812 24-09-2010 18:21:01 13.3 C 10.86 g/m*3 13.3 C 0 km/h
813 24-09-2010 18:33:02 13.3 C 10.86 g/m*3 13.3 C 0 km/h
814 24-09-2010 18:45:02 13.3 C 10.86 g/m*3 13.3 C 0 km/h
815 24-09-2010 18:57:02 13.2 C 10.79 g/m*3 13.2 C 0 km/h
816 24-09-2010 19:09:02 13.1 C 10.73 g/m*3 13.1 C 0 km/h
817 24-09-2010 19:21:01 12.9 C 10.71 g/m*3 12.9 C 0 km/h
818 24-09-2010 19:33:02 12.8 C 10.64 g/m*3 12.8 C 0 km/h
819 24-09-2010 19:45:02 12.7 C 10.58 g/m*3 12.7 C 0 km/h
820 24-09-2010 19:57:02 12.7 C 10.58 g/m*3 12.7 C 0 km/h
821 24-09-2010 20:09:02 12.7 C 10.58 g/m*3 12.7 C 0 km/h
822 24-09-2010 20:21:01 12.7 C 10.58 g/m*3 12.7 C 0 km/h
823 24-09-2010 20:33:02 12.7 C 10.58 g/m*3 12.7 C 0 km/h
824 24-09-2010 20:45:01 12.7 C 10.58 g/m*3 12.7 C 0 km/h
825 24-09-2010 20:57:01 12.7 C 10.58 g/m*3 12.7 C 0 km/h
Sensor: Nr:Datum:Temp:Abs-Feuchte:Windchill:Wind:
Aussen-T/F 826 24-09-2010 21:09:02 12.8 C 10.64 g/m*3 12.8 C 0 km/h
827 24-09-2010 21:21:02 12.8 C 10.64 g/m*3 12.8 C 0 km/h
828 24-09-2010 21:33:02 12.9 C 10.71 g/m*3 12.9 C 0 km/h
829 24-09-2010 21:45:02 12.8 C 10.64 g/m*3 12.8 C 0 km/h
830 24-09-2010 21:57:02 12.8 C 10.64 g/m*3 12.8 C 0 km/h
831 24-09-2010 22:09:01 12.8 C 10.64 g/m*3 12.8 C 0 km/h
832 24-09-2010 22:21:02 12.8 C 10.64 g/m*3 12.8 C 0 km/h
833 24-09-2010 22:33:02 12.7 C 10.58 g/m*3 12.7 C 0 km/h
834 24-09-2010 22:46:04 12.6 C 10.51 g/m*3 12.6 C 0 km/h
835 24-09-2010 22:58:04 12.6 C 10.51 g/m*3 12.6 C 0 km/h
836 24-09-2010 23:10:04 12.5 C 10.44 g/m*3 12.5 C 0 km/h
837 24-09-2010 23:22:04 12.4 C 10.38 g/m*3 12.4 C 0 km/h
838 24-09-2010 23:34:04 12.4 C 10.38 g/m*3 12.4 C 0 km/h
839 24-09-2010 23:46:04 12.3 C 10.32 g/m*3 12.3 C 0 km/h
840 24-09-2010 23:58:04 12.4 C 10.38 g/m*3 12.4 C 0 km/h
841 25-09-2010 00:10:04 12.4 C 10.38 g/m*3 12.4 C 0 km/h
842 25-09-2010 00:22:04 12.5 C 10.44 g/m*3 12.5 C 0 km/h
843 25-09-2010 00:34:04 12.5 C 10.44 g/m*3 12.5 C 0 km/h
844 25-09-2010 00:46:04 12.5 C 10.44 g/m*3 12.5 C 0 km/h
845 25-09-2010 00:58:05 12.5 C 10.44 g/m*3 12.5 C 0 km/h
846 25-09-2010 01:10:05 12.5 C 10.44 g/m*3 12.5 C 0 km/h
847 25-09-2010 01:22:05 12.5 C 10.44 g/m*3 12.5 C 0 km/h
848 25-09-2010 01:34:05 12.5 C 10.44 g/m*3 12.5 C 0 km/h
849 25-09-2010 01:46:05 12.5 C 10.44 g/m*3 12.5 C 0 km/h
850 25-09-2010 01:58:05 12.6 C 10.51 g/m*3 12.6 C 0 km/h
Sensor: Nr:Datum:Temp:Abs-Feuchte:Windchill:Wind:
Aussen-T/F 851 25-09-2010 02:10:05 12.6 C 10.51 g/m*3 12.6 C 0 km/h
852 25-09-2010 02:22:05 12.6 C 10.51 g/m*3 12.6 C 0 km/h
853 25-09-2010 02:34:05 12.6 C 10.51 g/m*3 12.6 C 0 km/h
854 25-09-2010 02:46:05 12.6 C 10.51 g/m*3 12.6 C 0 km/h
855 25-09-2010 02:58:05 12.6 C 10.51 g/m*3 12.6 C 0 km/h
856 25-09-2010 03:10:05 12.7 C 10.58 g/m*3 12.7 C 0 km/h
857 25-09-2010 03:22:05 12.6 C 10.51 g/m*3 12.6 C 0 km/h
858 25-09-2010 03:34:05 12.6 C 10.51 g/m*3 12.6 C 0 km/h
859 25-09-2010 03:46:05 12.6 C 10.51 g/m*3 12.6 C 0 km/h
860 25-09-2010 03:58:05 12.6 C 10.51 g/m*3 12.6 C 0 km/h
861 25-09-2010 04:10:05 12.6 C 10.51 g/m*3 12.6 C 0 km/h
862 25-09-2010 04:22:05 12.5 C 10.44 g/m*3 12.5 C 0 km/h
863 25-09-2010 04:34:05 12.6 C 10.51 g/m*3 12.6 C 0 km/h
864 25-09-2010 04:46:05 12.5 C 10.44 g/m*3 12.5 C 0 km/h
865 25-09-2010 04:58:06 12.5 C 10.44 g/m*3 12.5 C 0 km/h
866 25-09-2010 05:10:06 12.5 C 10.44 g/m*3 12.5 C 0 km/h
867 25-09-2010 05:22:06 12.4 C 10.38 g/m*3 12.4 C 0 km/h
868 25-09-2010 05:34:06 12.4 C 10.38 g/m*3 12.4 C 0 km/h
869 25-09-2010 05:46:06 12.3 C 10.32 g/m*3 12.3 C 0 km/h
870 25-09-2010 05:58:06 12.3 C 10.21 g/m*3 12.3 C 0 km/h
871 25-09-2010 06:10:06 12.1 C 10.08 g/m*3 12.1 C 0 km/h
872 25-09-2010 06:22:06 12.1 C 10.08 g/m*3 12.1 C 0 km/h
873 25-09-2010 06:34:06 12.1 C 10.08 g/m*3 12.1 C 0 km/h
874 25-09-2010 06:46:06 12 C 10.02 g/m*3 12 C 0 km/h
875 25-09-2010 06:58:06 12 C 10.02 g/m*3 12 C 0 km/h
Sensor: Nr:Datum:Temp:Abs-Feuchte:Windchill:Wind:
Aussen-T/F 876 25-09-2010 07:10:06 12 C 10.02 g/m*3 12 C 0 km/h
877 25-09-2010 07:22:06 11.9 C 9.96 g/m*3 11.9 C 0 km/h
878 25-09-2010 07:34:06 11.9 C 9.96 g/m*3 11.9 C 0 km/h
879 25-09-2010 07:46:02 11.8 C 9.89 g/m*3 11.8 C 0 km/h
880 25-09-2010 07:58:02 11.8 C 9.89 g/m*3 11.8 C 0 km/h
881 25-09-2010 08:10:02 11.7 C 9.83 g/m*3 11.7 C 0 km/h
882 25-09-2010 08:22:02 11.6 C 9.77 g/m*3 11.6 C 0 km/h
883 25-09-2010 08:34:02 11.2 C 9.43 g/m*3 11.2 C 0 km/h
884 25-09-2010 08:46:02 11 C 9.31 g/m*3 11 C 0 km/h
885 25-09-2010 08:58:02 10.8 C 9.19 g/m*3 10.8 C 0 km/h
886 25-09-2010 09:10:01 10.6 C 9.08 g/m*3 10.6 C 0 km/h
887 25-09-2010 09:22:02 10.4 C 8.96 g/m*3 10.4 C 0 km/h
888 25-09-2010 09:34:02 10.5 C 8.92 g/m*3 10.5 C 0 km/h
889 25-09-2010 09:46:02 10.5 C 8.83 g/m*3 10.5 C 0 km/h
890 25-09-2010 09:58:02 10.4 C 8.29 g/m*3 10.4 C 0 km/h
891 25-09-2010 10:10:03 10.5 C 8.15 g/m*3 10.5 C 0 km/h
892 25-09-2010 10:22:02 10.8 C 8.2 g/m*3 10.8 C 0 km/h
893 25-09-2010 10:34:02 11.1 C 8.36 g/m*3 11.1 C 0 km/h
894 25-09-2010 10:46:01 11.3 C 8.36 g/m*3 11.3 C 0 km/h
895 25-09-2010 10:58:01 11.5 C 8.16 g/m*3 11.5 C 0 km/h
896 25-09-2010 11:10:02 11.6 C 7.8 g/m*3 11.6 C 0 km/h
897 25-09-2010 11:22:01 12.1 C 7.72 g/m*3 12.1 C 0 km/h
898 25-09-2010 11:34:02 12.3 C 7.38 g/m*3 12.3 C 0 km/h
899 25-09-2010 11:46:01 12.5 C 7.26 g/m*3 12.5 C 0 km/h
900 25-09-2010 11:58:01 13 C 7.03 g/m*3 13 C 0 km/h
Sensor: Nr:Datum:Temp:Abs-Feuchte:Windchill:Wind:
Aussen-T/F 901 25-09-2010 12:10:02 12.8 C 6.83 g/m*3 12.8 C 0 km/h
902 25-09-2010 12:22:01 12.8 C 7.06 g/m*3 12.8 C 0 km/h
903 25-09-2010 12:34:02 12.4 C 6.88 g/m*3 12.4 C 0 km/h
904 25-09-2010 12:46:02 11.8 C 6.84 g/m*3 11.8 C 0 km/h
905 25-09-2010 12:58:02 12.4 C 6.88 g/m*3 12.4 C 0 km/h
906 25-09-2010 13:10:02 12.7 C 6.68 g/m*3 12.7 C 0 km/h
907 25-09-2010 13:22:01 13 C 6.35 g/m*3 13 C 0 km/h
908 25-09-2010 13:34:02 13.8 C 6.43 g/m*3 13.8 C 0 km/h
909 25-09-2010 13:46:01 13.5 C 5.38 g/m*3 13.5 C 0 km/h
910 25-09-2010 13:58:01 13.3 C 5.31 g/m*3 13.3 C 0 km/h
911 25-09-2010 14:10:02 13.7 C 5.45 g/m*3 13.7 C 0 km/h
912 25-09-2010 14:22:01 13.5 C 5.5 g/m*3 13.5 C 0 km/h
913 25-09-2010 14:34:02 13.8 C 5.36 g/m*3 13.8 C 0 km/h
914 25-09-2010 14:46:01 14.4 C 5.32 g/m*3 14.4 C 0 km/h
915 25-09-2010 14:58:01 15.8 C 5.12 g/m*3 15.8 C 0 km/h
916 25-09-2010 15:10:02 14.8 C 4.43 g/m*3 14.8 C 0 km/h
917 25-09-2010 15:22:02 14.5 C 4.6 g/m*3 14.5 C 0 km/h
918 25-09-2010 15:34:01 15.7 C 4.68 g/m*3 15.7 C 0 km/h
919 25-09-2010 15:46:02 15.5 C 4.63 g/m*3 15.5 C 0 km/h
920 25-09-2010 15:58:02 14.7 C 5.04 g/m*3 14.7 C 0 km/h
921 25-09-2010 16:10:01 14.2 C 4.88 g/m*3 14.2 C 0 km/h
922 25-09-2010 16:22:02 14.4 C 5.07 g/m*3 14.4 C 0 km/h
923 25-09-2010 16:34:01 14.7 C 5.16 g/m*3 14.7 C 0 km/h
924 25-09-2010 16:46:02 15.6 C 4.79 g/m*3 15.6 C 0 km/h
925 25-09-2010 16:58:02 14.7 C 4.91 g/m*3 14.7 C 0 km/h
Sensor: Nr:Datum:Temp:Abs-Feuchte:Windchill:Wind:
Aussen-T/F 926 25-09-2010 17:10:02 14.3 C 4.91 g/m*3 14.3 C 0 km/h
927 25-09-2010 17:22:02 14.8 C 5.32 g/m*3 14.8 C 0 km/h
928 25-09-2010 17:34:03 15.6 C 5.19 g/m*3 15.6 C 0 km/h
929 25-09-2010 17:46:02 16.8 C 5.15 g/m*3 16.8 C 0 km/h
930 25-09-2010 17:58:02 16.5 C 4.77 g/m*3 16.5 C 0 km/h
931 25-09-2010 18:10:01 15.4 C 4.47 g/m*3 15.4 C 0 km/h
932 25-09-2010 18:22:01 14.3 C 4.67 g/m*3 14.3 C 0 km/h
933 25-09-2010 18:34:02 13.9 C 4.92 g/m*3 13.9 C 0 km/h
934 25-09-2010 18:46:02 13.8 C 5.36 g/m*3 13.8 C 0 km/h
935 25-09-2010 18:58:02 13.7 C 5.8 g/m*3 13.7 C 0 km/h
936 25-09-2010 19:10:02 13.5 C 5.5 g/m*3 13.5 C 0 km/h
937 25-09-2010 19:22:02 13.1 C 5.59 g/m*3 13.1 C 0 km/h
938 25-09-2010 19:34:02 13 C 5.67 g/m*3 13 C 0 km/h
939 25-09-2010 19:46:02 12.7 C 5.9 g/m*3 12.7 C 0 km/h
940 25-09-2010 19:58:02 12.6 C 6.08 g/m*3 12.6 C 0 km/h
941 25-09-2010 20:10:02 12.5 C 5.72 g/m*3 12.5 C 0 km/h
942 25-09-2010 20:22:02 12.2 C 5.61 g/m*3 12.2 C 0 km/h
943 25-09-2010 20:34:02 11.8 C 5.79 g/m*3 11.8 C 0 km/h
944 25-09-2010 20:46:02 11.1 C 6.04 g/m*3 11.1 C 0 km/h
945 25-09-2010 20:58:02 10.9 C 6.17 g/m*3 10.9 C 0 km/h
946 25-09-2010 21:10:02 10.4 C 6.17 g/m*3 10.4 C 0 km/h
947 25-09-2010 21:22:03 10.2 C 6.28 g/m*3 10.2 C 0 km/h
948 25-09-2010 21:34:02 10.1 C 6.34 g/m*3 10.1 C 0 km/h
949 25-09-2010 21:46:03 10 C 6.3 g/m*3 10 C 0 km/h
950 25-09-2010 21:58:03 9.9 C 6.44 g/m*3 9.9 C 0 km/h
Sensor: Nr:Datum:Temp:Abs-Feuchte:Windchill:Wind:
Aussen-T/F 951 25-09-2010 22:10:02 9.9 C 6.54 g/m*3 9.9 C 0 km/h
952 25-09-2010 22:22:02 10.2 C 6.57 g/m*3 10.2 C 0 km/h
953 25-09-2010 22:34:02 10.5 C 6.69 g/m*3 10.5 C 0 km/h
954 25-09-2010 22:46:02 10.5 C 6.69 g/m*3 10.5 C 0 km/h
955 25-09-2010 22:58:02 10.3 C 6.9 g/m*3 10.3 C 0 km/h
956 25-09-2010 23:10:02 9.6 C 7.15 g/m*3 9.6 C 0 km/h
957 25-09-2010 23:22:02 9.3 C 7.28 g/m*3 9.3 C 0 km/h
958 25-09-2010 23:34:01 9.2 C 7.5 g/m*3 9.2 C 0 km/h
959 25-09-2010 23:46:02 9.1 C 7.45 g/m*3 9.1 C 0 km/h
960 25-09-2010 23:58:02 9.2 C 7.59 g/m*3 9.2 C 0 km/h
961 26-09-2010 00:10:01 9.1 C 7.63 g/m*3 9.1 C 0 km/h
962 26-09-2010 00:22:02 9.5 C 7.92 g/m*3 9.5 C 0 km/h
963 26-09-2010 00:34:02 9.5 C 7.92 g/m*3 9.5 C 0 km/h
964 26-09-2010 00:46:02 9.6 C 7.79 g/m*3 9.6 C 0 km/h
965 26-09-2010 00:58:02 9.5 C 7.55 g/m*3 9.5 C 0 km/h
966 26-09-2010 01:10:02 9.5 C 7.37 g/m*3 9.5 C 0 km/h
967 26-09-2010 01:22:02 9.5 C 7.28 g/m*3 9.5 C 0 km/h
968 26-09-2010 01:34:02 9.4 C 7.15 g/m*3 9.4 C 0 km/h
969 26-09-2010 01:46:01 9.5 C 7.19 g/m*3 9.5 C 0 km/h
970 26-09-2010 01:58:01 9.5 C 7.19 g/m*3 9.5 C 0 km/h
971 26-09-2010 02:10:02 9.5 C 7.19 g/m*3 9.5 C 0 km/h
972 26-09-2010 02:22:01 9.5 C 7.1 g/m*3 9.5 C 0 km/h
973 26-09-2010 02:34:01 9.3 C 7.01 g/m*3 9.3 C 0 km/h
974 26-09-2010 02:46:01 9.4 C 6.96 g/m*3 9.4 C 0 km/h
975 26-09-2010 02:58:01 9.4 C 6.96 g/m*3 9.4 C 0 km/h
Sensor: Nr:Datum:Temp:Abs-Feuchte:Windchill:Wind:
Aussen-T/F 976 26-09-2010 03:10:01 9.3 C 6.92 g/m*3 9.3 C 0 km/h
977 26-09-2010 03:22:01 9.3 C 7.01 g/m*3 9.3 C 0 km/h
978 26-09-2010 03:34:01 9.3 C 7.1 g/m*3 9.3 C 0 km/h
979 26-09-2010 03:46:01 9.1 C 7.1 g/m*3 9.1 C 0 km/h
980 26-09-2010 03:58:01 9 C 7.23 g/m*3 9 C 0 km/h
981 26-09-2010 04:10:01 9 C 7.32 g/m*3 9 C 0 km/h
982 26-09-2010 04:22:01 9 C 7.23 g/m*3 9 C 0 km/h
983 26-09-2010 04:34:02 8.9 C 7.27 g/m*3 8.9 C 0 km/h
984 26-09-2010 04:46:01 8.7 C 7.26 g/m*3 8.7 C 0 km/h
985 26-09-2010 04:58:01 8.8 C 7.31 g/m*3 8.8 C 0 km/h
986 26-09-2010 05:10:02 9 C 7.32 g/m*3 9 C 0 km/h
987 26-09-2010 05:22:01 9.1 C 7.36 g/m*3 9.1 C 0 km/h
988 26-09-2010 05:34:01 9 C 7.32 g/m*3 9 C 0 km/h
989 26-09-2010 05:46:01 9 C 7.32 g/m*3 9 C 0 km/h
990 26-09-2010 05:58:01 9 C 7.32 g/m*3 9 C 0 km/h
991 26-09-2010 06:10:02 9 C 7.32 g/m*3 9 C 0 km/h
992 26-09-2010 06:22:01 9.1 C 7.36 g/m*3 9.1 C 0 km/h
993 26-09-2010 06:34:01 8.8 C 7.31 g/m*3 8.8 C 0 km/h
994 26-09-2010 06:46:01 8.8 C 7.4 g/m*3 8.8 C 0 km/h
995 26-09-2010 06:58:01 8.8 C 7.49 g/m*3 8.8 C 0 km/h
996 26-09-2010 07:10:01 8.8 C 7.49 g/m*3 8.8 C 0 km/h
997 26-09-2010 07:22:02 8.5 C 7.26 g/m*3 8.5 C 0 km/h
998 26-09-2010 07:34:01 8.6 C 7.39 g/m*3 8.6 C 0 km/h
999 26-09-2010 07:46:02 8.9 C 7.62 g/m*3 8.9 C 0 km/h
1000 26-09-2010 07:58:02 9.2 C 7.5 g/m*3 9.2 C 0 km/h
Sensor: Nr:Datum:Temp:Abs-Feuchte:Windchill:Wind:
Aussen-T/F 1001 26-09-2010 08:10:01 9.5 C 7.55 g/m*3 9.5 C 0 km/h
1002 26-09-2010 08:22:02 9.6 C 7.33 g/m*3 9.6 C 0 km/h
1003 26-09-2010 08:34:01 9.7 C 7.19 g/m*3 9.7 C 0 km/h
1004 26-09-2010 08:46:02 9.7 C 7.19 g/m*3 9.7 C 0 km/h
1005 26-09-2010 08:58:02 9.6 C 7.24 g/m*3 9.6 C 0 km/h
1006 26-09-2010 09:10:01 9.4 C 7.24 g/m*3 9.4 C 0 km/h
1007 26-09-2010 09:22:01 9.4 C 7.33 g/m*3 9.4 C 0 km/h
1008 26-09-2010 09:34:02 10.5 C 7.57 g/m*3 10.5 C 0 km/h
1009 26-09-2010 09:46:01 11 C 7.11 g/m*3 11 C 0 km/h
1010 26-09-2010 09:58:01 11 C 6.61 g/m*3 11 C 0 km/h
1011 26-09-2010 10:10:02 11 C 6.61 g/m*3 11 C 0 km/h
1012 26-09-2010 10:22:01 11.6 C 6.76 g/m*3 11.6 C 0 km/h
1013 26-09-2010 10:34:02 12 C 6.61 g/m*3 12 C 0 km/h
1014 26-09-2010 10:46:01 11.9 C 6.78 g/m*3 11.9 C 0 km/h
1015 26-09-2010 10:58:01 12.7 C 7.01 g/m*3 12.7 C 0 km/h
1016 26-09-2010 11:10:02 12.9 C 6.42 g/m*3 12.9 C 0 km/h
1017 26-09-2010 11:22:01 13.1 C 6.5 g/m*3 13.1 C 0 km/h
1018 26-09-2010 11:34:02 13.2 C 6.66 g/m*3 13.2 C 0 km/h
1019 26-09-2010 11:46:02 13.5 C 6.32 g/m*3 13.5 C 0 km/h
1020 26-09-2010 11:58:02 13.4 C 6.28 g/m*3 13.4 C 0 km/h
1021 26-09-2010 12:10:01 14 C 6.39 g/m*3 14 C 0 km/h
1022 26-09-2010 12:22:02 14.3 C 6.51 g/m*3 14.3 C 0 km/h
1023 26-09-2010 12:34:01 14.6 C 6.51 g/m*3 14.6 C 0 km/h
1024 26-09-2010 12:46:01 15 C 6.28 g/m*3 15 C 0 km/h
1025 26-09-2010 12:58:01 14.5 C 6.22 g/m*3 14.5 C 0 km/h
Sensor: Nr:Datum:Temp:Abs-Feuchte:Windchill:Wind:
Aussen-T/F 1026 26-09-2010 13:10:02 14.5 C 6.34 g/m*3 14.5 C 0 km/h
1027 26-09-2010 13:22:01 13.2 C 7.12 g/m*3 13.2 C 0 km/h
1028 26-09-2010 13:34:01 12.6 C 7.63 g/m*3 12.6 C 0 km/h
1029 26-09-2010 13:46:01 12.4 C 8.3 g/m*3 12.4 C 0 km/h
1030 26-09-2010 13:58:01 12.3 C 8.25 g/m*3 12.3 C 0 km/h
1031 26-09-2010 14:10:01 13.2 C 8.61 g/m*3 13.2 C 0 km/h
1032 26-09-2010 14:22:01 13.4 C 8.37 g/m*3 13.4 C 0 km/h
1033 26-09-2010 14:34:01 13.3 C 8.43 g/m*3 13.3 C 0 km/h
1034 26-09-2010 14:46:01 13.2 C 8.15 g/m*3 13.2 C 0 km/h
1035 26-09-2010 14:58:01 13.4 C 7.9 g/m*3 13.4 C 0 km/h
1036 26-09-2010 15:10:01 13.6 C 7.89 g/m*3 13.6 C 0 km/h
1037 26-09-2010 15:22:02 13.9 C 8.39 g/m*3 13.9 C 0 km/h
1038 26-09-2010 15:34:01 14.4 C 8.16 g/m*3 14.4 C 0 km/h
1039 26-09-2010 15:46:02 14.5 C 7.96 g/m*3 14.5 C 0 km/h
1040 26-09-2010 15:58:02 14.5 C 8.21 g/m*3 14.5 C 0 km/h
1041 26-09-2010 16:10:01 13.7 C 7.7 g/m*3 13.7 C 0 km/h
1042 26-09-2010 16:22:02 13.8 C 7.51 g/m*3 13.8 C 0 km/h
1043 26-09-2010 16:34:01 15.7 C 7.09 g/m*3 15.7 C 0 km/h
1044 26-09-2010 16:46:01 15.5 C 6.21 g/m*3 15.5 C 0 km/h
1045 26-09-2010 16:58:01 15.9 C 6.5 g/m*3 15.9 C 0 km/h
1046 26-09-2010 17:10:01 16.1 C 6.44 g/m*3 16.1 C 0 km/h
1047 26-09-2010 17:22:01 15.6 C 6.38 g/m*3 15.6 C 0 km/h
1048 26-09-2010 17:34:02 15.4 C 6.7 g/m*3 15.4 C 0 km/h
1049 26-09-2010 17:46:01 14.6 C 6.76 g/m*3 14.6 C 0 km/h
1050 26-09-2010 17:58:01 14.2 C 6.72 g/m*3 14.2 C 0 km/h
Sensor: Nr:Datum:Temp:Abs-Feuchte:Windchill:Wind:
Aussen-T/F 1051 26-09-2010 18:10:02 13.6 C 6.83 g/m*3 13.6 C 0 km/h
1052 26-09-2010 18:22:01 13.1 C 6.85 g/m*3 13.1 C 0 km/h
1053 26-09-2010 18:34:01 12.9 C 6.99 g/m*3 12.9 C 0 km/h
1054 26-09-2010 18:46:01 12.7 C 7.01 g/m*3 12.7 C 0 km/h
1055 26-09-2010 18:58:01 12.5 C 7.04 g/m*3 12.5 C 0 km/h
1056 26-09-2010 19:10:02 12.4 C 7.1 g/m*3 12.4 C 0 km/h
1057 26-09-2010 19:22:01 12.4 C 7.1 g/m*3 12.4 C 0 km/h
1058 26-09-2010 19:34:01 12.2 C 7.01 g/m*3 12.2 C 0 km/h
1059 26-09-2010 19:46:01 12.1 C 7.18 g/m*3 12.1 C 0 km/h
1060 26-09-2010 19:58:01 12.1 C 7.08 g/m*3 12.1 C 0 km/h
1061 26-09-2010 20:10:02 12 C 7.25 g/m*3 12 C 0 km/h
1062 26-09-2010 20:22:01 11.9 C 7.31 g/m*3 11.9 C 0 km/h
1063 26-09-2010 20:34:01 11.7 C 7.22 g/m*3 11.7 C 0 km/h
1064 26-09-2010 20:46:01 11.7 C 7.22 g/m*3 11.7 C 0 km/h
1065 26-09-2010 20:58:01 11.6 C 7.07 g/m*3 11.6 C 0 km/h
1066 26-09-2010 21:10:01 11.6 C 7.07 g/m*3 11.6 C 0 km/h
1067 26-09-2010 21:22:01 11.4 C 7.08 g/m*3 11.4 C 0 km/h
1068 26-09-2010 21:34:01 11.2 C 7.1 g/m*3 11.2 C 0 km/h
1069 26-09-2010 21:46:01 10.9 C 7.16 g/m*3 10.9 C 0 km/h
1070 26-09-2010 21:58:01 10.7 C 7.17 g/m*3 10.7 C 0 km/h
1071 26-09-2010 22:10:01 10.3 C 6.99 g/m*3 10.3 C 0 km/h
1072 26-09-2010 22:22:01 10 C 7.05 g/m*3 10 C 0 km/h
1073 26-09-2010 22:34:01 9.7 C 7.1 g/m*3 9.7 C 0 km/h
1074 26-09-2010 22:47:04 9.3 C 7.1 g/m*3 9.3 C 0 km/h
1075 26-09-2010 22:59:04 9.2 C 7.05 g/m*3 9.2 C 0 km/h
Sensor: Nr:Datum:Temp:Abs-Feuchte:Windchill:Wind:
Aussen-T/F 1076 26-09-2010 23:11:04 9 C 7.05 g/m*3 9 C 0 km/h
1077 26-09-2010 23:23:04 8.9 C 7.18 g/m*3 8.9 C 0 km/h
1078 26-09-2010 23:35:04 8.9 C 7.27 g/m*3 8.9 C 0 km/h
1079 26-09-2010 23:47:04 8.8 C 7.22 g/m*3 8.8 C 0 km/h
1080 26-09-2010 23:59:04 8.6 C 7.13 g/m*3 8.6 C 0 km/h
1081 27-09-2010 00:11:04 8.5 C 7.17 g/m*3 8.5 C 0 km/h
1082 27-09-2010 00:23:04 8.2 C 7.03 g/m*3 8.2 C 0 km/h
1083 27-09-2010 00:35:04 8.1 C 6.99 g/m*3 8.1 C 0 km/h
1084 27-09-2010 00:47:04 7.9 C 6.98 g/m*3 7.9 C 0 km/h
1085 27-09-2010 00:59:04 7.9 C 7.15 g/m*3 7.9 C 0 km/h
1086 27-09-2010 01:11:04 7.8 C 7.18 g/m*3 7.8 C 0 km/h
1087 27-09-2010 01:23:04 7.6 C 7.09 g/m*3 7.6 C 0 km/h
1088 27-09-2010 01:35:04 7.5 C 7.04 g/m*3 7.5 C 0 km/h
1089 27-09-2010 01:47:04 7.3 C 6.95 g/m*3 7.3 C 0 km/h
1090 27-09-2010 01:59:04 7.1 C 6.94 g/m*3 7.1 C 0 km/h
1091 27-09-2010 02:11:04 7 C 6.9 g/m*3 7 C 0 km/h
1092 27-09-2010 02:23:04 7 C 6.9 g/m*3 7 C 0 km/h
1093 27-09-2010 02:35:05 6.8 C 6.81 g/m*3 6.8 C 0 km/h
1094 27-09-2010 02:47:05 6.7 C 6.84 g/m*3 6.7 C 0 km/h
1095 27-09-2010 02:59:05 6.7 C 6.84 g/m*3 6.7 C 0 km/h
1096 27-09-2010 03:11:05 6.5 C 6.75 g/m*3 6.5 C 0 km/h
1097 27-09-2010 03:23:05 6.7 C 6.84 g/m*3 6.7 C 0 km/h
1098 27-09-2010 03:35:05 6.4 C 6.71 g/m*3 6.4 C 0 km/h
1099 27-09-2010 03:47:05 6.3 C 6.66 g/m*3 6.3 C 0 km/h
1100 27-09-2010 03:59:05 6.4 C 6.78 g/m*3 6.4 C 0 km/h
Sensor: Nr:Datum:Temp:Abs-Feuchte:Windchill:Wind:
Aussen-T/F 1101 27-09-2010 04:11:05 6.5 C 6.9 g/m*3 6.5 C 0 km/h
1102 27-09-2010 04:23:05 6.4 C 6.85 g/m*3 6.4 C 0 km/h
1103 27-09-2010 04:35:05 6.3 C 6.81 g/m*3 6.3 C 0 km/h
1104 27-09-2010 04:47:05 6.1 C 6.72 g/m*3 6.1 C 0 km/h
1105 27-09-2010 04:59:05 5.9 C 6.71 g/m*3 5.9 C 0 km/h
1106 27-09-2010 05:11:05 5.9 C 6.71 g/m*3 5.9 C 0 km/h
1107 27-09-2010 05:23:05 6.1 C 6.72 g/m*3 6.1 C 0 km/h
1108 27-09-2010 05:35:05 6.3 C 6.81 g/m*3 6.3 C 0 km/h
1109 27-09-2010 05:47:05 6.4 C 6.93 g/m*3 6.4 C 0 km/h
1110 27-09-2010 05:59:05 6.5 C 6.97 g/m*3 6.5 C 0 km/h
1111 27-09-2010 06:11:05 6.5 C 6.97 g/m*3 6.5 C 0 km/h
1112 27-09-2010 06:23:05 6.4 C 6.93 g/m*3 6.4 C 0 km/h
1113 27-09-2010 06:35:05 6.2 C 6.84 g/m*3 6.2 C 0 km/h
1114 27-09-2010 06:47:06 6.2 C 6.84 g/m*3 6.2 C 0 km/h
1115 27-09-2010 06:59:06 6.3 C 6.88 g/m*3 6.3 C 0 km/h
1116 27-09-2010 07:11:04 6.3 C 6.88 g/m*3 6.3 C 0 km/h
1117 27-09-2010 07:23:04 6.6 C 7.02 g/m*3 6.6 C 0 km/h
1118 27-09-2010 07:35:04 6.7 C 7.14 g/m*3 6.7 C 0 km/h
1119 27-09-2010 07:47:02 6.9 C 7.24 g/m*3 6.9 C 0 km/h
1120 27-09-2010 07:59:02 7.2 C 7.38 g/m*3 7.2 C 0 km/h
1121 27-09-2010 08:11:02 7.5 C 7.52 g/m*3 7.5 C 0 km/h
1122 27-09-2010 08:23:02 7.5 C 7.52 g/m*3 7.5 C 0 km/h
1123 27-09-2010 08:35:02 7.6 C 7.57 g/m*3 7.6 C 0 km/h
1124 27-09-2010 08:47:02 7.8 C 7.67 g/m*3 7.8 C 0 km/h
1125 27-09-2010 08:59:02 8.1 C 7.74 g/m*3 8.1 C 0 km/h
Sensor: Nr:Datum:Temp:Abs-Feuchte:Windchill:Wind:
Aussen-T/F 1126 27-09-2010 09:11:02 8.5 C 7.94 g/m*3 8.5 C 0 km/h
1127 27-09-2010 09:23:02 8.8 C 8.09 g/m*3 8.8 C 0 km/h
1128 27-09-2010 09:35:02 9.2 C 8.22 g/m*3 9.2 C 0 km/h
1129 27-09-2010 09:47:01 9.6 C 8.34 g/m*3 9.6 C 0 km/h
1130 27-09-2010 09:59:01 10.1 C 8.42 g/m*3 10.1 C 0 km/h
1131 27-09-2010 10:11:02 10.4 C 8.29 g/m*3 10.4 C 0 km/h
1132 27-09-2010 10:23:01 10.4 C 7.9 g/m*3 10.4 C 0 km/h
1133 27-09-2010 10:35:02 10.8 C 7.51 g/m*3 10.8 C 0 km/h
1134 27-09-2010 10:47:01 11 C 7.11 g/m*3 11 C 0 km/h
1135 27-09-2010 10:59:01 11.2 C 6.99 g/m*3 11.2 C 0 km/h
1136 27-09-2010 11:11:02 11.7 C 7.01 g/m*3 11.7 C 0 km/h
1137 27-09-2010 11:23:01 11.8 C 6.74 g/m*3 11.8 C 0 km/h
1138 27-09-2010 11:35:02 12.2 C 6.8 g/m*3 12.2 C 0 km/h
1139 27-09-2010 11:47:01 12 C 6.61 g/m*3 12 C 0 km/h
1140 27-09-2010 11:59:01 12.2 C 6.8 g/m*3 12.2 C 0 km/h
1141 27-09-2010 12:11:02 12.4 C 6.77 g/m*3 12.4 C 0 km/h
1142 27-09-2010 12:23:01 12.8 C 6.94 g/m*3 12.8 C 0 km/h
1143 27-09-2010 12:35:02 12.8 C 6.83 g/m*3 12.8 C 0 km/h
1144 27-09-2010 12:47:01 13 C 6.8 g/m*3 13 C 0 km/h
1145 27-09-2010 12:59:01 12.9 C 6.76 g/m*3 12.9 C 0 km/h
1146 27-09-2010 13:11:02 13.1 C 6.73 g/m*3 13.1 C 0 km/h
1147 27-09-2010 13:23:02 13.4 C 6.97 g/m*3 13.4 C 0 km/h
1148 27-09-2010 13:35:01 13.6 C 6.71 g/m*3 13.6 C 0 km/h
1149 27-09-2010 13:47:02 13.6 C 6.71 g/m*3 13.6 C 0 km/h
1150 27-09-2010 13:59:02 13.7 C 6.51 g/m*3 13.7 C 0 km/h
Sensor: Nr:Datum:Temp:Abs-Feuchte:Windchill:Wind:
Aussen-T/F 1151 27-09-2010 14:11:01 13.4 C 6.51 g/m*3 13.4 C 0 km/h
1152 27-09-2010 14:23:02 13.3 C 6.7 g/m*3 13.3 C 0 km/h
1153 27-09-2010 14:35:01 13.4 C 6.74 g/m*3 13.4 C 0 km/h
1154 27-09-2010 14:47:03 13.2 C 6.77 g/m*3 13.2 C 0 km/h
1155 27-09-2010 14:59:03 13 C 6.58 g/m*3 13 C 0 km/h
1156 27-09-2010 15:11:02 13.4 C 6.74 g/m*3 13.4 C 0 km/h
1157 27-09-2010 15:23:02 13.6 C 6.59 g/m*3 13.6 C 0 km/h
1158 27-09-2010 15:35:02 13.6 C 6.47 g/m*3 13.6 C 0 km/h
1159 27-09-2010 15:47:02 13.2 C 6.66 g/m*3 13.2 C 0 km/h
1160 27-09-2010 15:59:02 13.2 C 6.77 g/m*3 13.2 C 0 km/h
1161 27-09-2010 16:11:01 13.4 C 6.97 g/m*3 13.4 C 0 km/h
1162 27-09-2010 16:23:02 13.4 C 7.44 g/m*3 13.4 C 0 km/h
1163 27-09-2010 16:35:02 13.4 C 7.44 g/m*3 13.4 C 0 km/h
1164 27-09-2010 16:47:01 13.3 C 7.05 g/m*3 13.3 C 0 km/h
1165 27-09-2010 16:59:01 13.4 C 7.09 g/m*3 13.4 C 0 km/h
1166 27-09-2010 17:11:01 13.2 C 7.58 g/m*3 13.2 C 0 km/h
1167 27-09-2010 17:23:01 13 C 7.6 g/m*3 13 C 0 km/h
1168 27-09-2010 17:35:02 12.8 C 7.73 g/m*3 12.8 C 0 km/h
1169 27-09-2010 17:47:02 12.8 C 7.84 g/m*3 12.8 C 0 km/h
1170 27-09-2010 17:59:02 12.7 C 7.68 g/m*3 12.7 C 0 km/h
1171 27-09-2010 18:11:02 12.5 C 7.59 g/m*3 12.5 C 0 km/h
1172 27-09-2010 18:23:01 12.3 C 7.71 g/m*3 12.3 C 0 km/h
1173 27-09-2010 18:35:02 11.9 C 7.73 g/m*3 11.9 C 0 km/h
1174 27-09-2010 18:47:02 11.7 C 7.74 g/m*3 11.7 C 0 km/h
1175 27-09-2010 18:59:02 11.3 C 7.85 g/m*3 11.3 C 0 km/h
Sensor: Nr:Datum:Temp:Abs-Feuchte:Windchill:Wind:
Aussen-T/F 1176 27-09-2010 19:11:02 10.8 C 8.01 g/m*3 10.8 C 0 km/h
1177 27-09-2010 19:23:02 10.7 C 8.15 g/m*3 10.7 C 0 km/h
1178 27-09-2010 19:35:02 10.5 C 8.15 g/m*3 10.5 C 0 km/h
1179 27-09-2010 19:47:02 10.5 C 8.15 g/m*3 10.5 C 0 km/h
1180 27-09-2010 19:59:02 10.4 C 8.19 g/m*3 10.4 C 0 km/h
1181 27-09-2010 20:11:02 10.3 C 8.24 g/m*3 10.3 C 0 km/h
1182 27-09-2010 20:23:02 10.3 C 8.33 g/m*3 10.3 C 0 km/h
1183 27-09-2010 20:35:02 10.3 C 8.43 g/m*3 10.3 C 0 km/h
1184 27-09-2010 20:47:01 10.3 C 8.43 g/m*3 10.3 C 0 km/h
1185 27-09-2010 20:59:01 10.3 C 8.52 g/m*3 10.3 C 0 km/h
1186 27-09-2010 21:11:02 10.4 C 8.58 g/m*3 10.4 C 0 km/h
1187 27-09-2010 21:23:01 10.2 C 8.47 g/m*3 10.2 C 0 km/h
1188 27-09-2010 21:35:02 10.3 C 8.52 g/m*3 10.3 C 0 km/h
1189 27-09-2010 21:47:02 10.4 C 8.58 g/m*3 10.4 C 0 km/h
1190 27-09-2010 21:59:03 10.4 C 8.58 g/m*3 10.4 C 0 km/h
1191 27-09-2010 22:11:02 10.4 C 8.58 g/m*3 10.4 C 0 km/h
1192 27-09-2010 22:24:10 10.4 C 8.67 g/m*3 10.4 C 0 km/h
1193 27-09-2010 22:36:10 10.2 C 8.56 g/m*3 10.2 C 0 km/h
1194 27-09-2010 22:48:10 10.2 C 8.56 g/m*3 10.2 C 0 km/h
1195 27-09-2010 23:00:10 10.2 C 8.56 g/m*3 10.2 C 0 km/h
1196 27-09-2010 23:12:10 10.2 C 8.66 g/m*3 10.2 C 0 km/h
1197 27-09-2010 23:24:10 10.2 C 8.66 g/m*3 10.2 C 0 km/h
1198 27-09-2010 23:36:10 10.1 C 8.61 g/m*3 10.1 C 0 km/h
1199 27-09-2010 23:48:10 10.1 C 8.7 g/m*3 10.1 C 0 km/h
1200 28-09-2010 00:00:10 10.1 C 8.7 g/m*3 10.1 C 0 km/h
Sensor: Nr:Datum:Temp:Abs-Feuchte:Windchill:Wind:
Aussen-T/F 1201 28-09-2010 00:12:10 10 C 8.64 g/m*3 10 C 0 km/h
1202 28-09-2010 00:24:10 10 C 8.64 g/m*3 10 C 0 km/h
1203 28-09-2010 00:36:10 10 C 8.64 g/m*3 10 C 0 km/h
1204 28-09-2010 00:48:10 9.9 C 8.78 g/m*3 9.9 C 0 km/h
1205 28-09-2010 01:00:10 10 C 8.74 g/m*3 10 C 0 km/h
1206 28-09-2010 01:12:11 10 C 8.74 g/m*3 10 C 0 km/h
1207 28-09-2010 01:24:11 10 C 8.74 g/m*3 10 C 0 km/h
1208 28-09-2010 01:36:11 10 C 8.74 g/m*3 10 C 0 km/h
1209 28-09-2010 01:48:11 9.9 C 8.78 g/m*3 9.9 C 0 km/h
1210 28-09-2010 02:00:11 9.9 C 8.78 g/m*3 9.9 C 0 km/h
1211 28-09-2010 02:12:11 9.9 C 8.78 g/m*3 9.9 C 0 km/h
1212 28-09-2010 02:24:11 9.9 C 8.78 g/m*3 9.9 C 0 km/h
1213 28-09-2010 02:36:11 9.9 C 8.78 g/m*3 9.9 C 0 km/h
1214 28-09-2010 02:48:11 9.9 C 8.78 g/m*3 9.9 C 0 km/h
1215 28-09-2010 03:00:11 9.9 C 8.87 g/m*3 9.9 C 0 km/h
1216 28-09-2010 03:12:11 9.9 C 8.87 g/m*3 9.9 C 0 km/h
1217 28-09-2010 03:24:11 9.9 C 8.87 g/m*3 9.9 C 0 km/h
1218 28-09-2010 03:36:12 9.9 C 8.87 g/m*3 9.9 C 0 km/h
1219 28-09-2010 03:48:12 9.9 C 8.87 g/m*3 9.9 C 0 km/h
1220 28-09-2010 04:00:12 9.9 C 8.87 g/m*3 9.9 C 0 km/h
1221 28-09-2010 04:12:12 9.9 C 8.87 g/m*3 9.9 C 0 km/h
1222 28-09-2010 04:24:12 9.9 C 8.87 g/m*3 9.9 C 0 km/h
1223 28-09-2010 04:36:12 9.9 C 8.87 g/m*3 9.9 C 0 km/h
1224 28-09-2010 04:48:12 10 C 8.83 g/m*3 10 C 0 km/h
1225 28-09-2010 05:00:12 10 C 8.93 g/m*3 10 C 0 km/h
Sensor: Nr:Datum:Temp:Abs-Feuchte:Windchill:Wind:
Aussen-T/F 1226 28-09-2010 05:12:12 10 C 8.93 g/m*3 10 C 0 km/h
1227 28-09-2010 05:24:12 10 C 8.93 g/m*3 10 C 0 km/h
1228 28-09-2010 05:36:12 10 C 8.93 g/m*3 10 C 0 km/h
1229 28-09-2010 05:48:12 10 C 8.93 g/m*3 10 C 0 km/h
1230 28-09-2010 06:00:12 10.1 C 8.98 g/m*3 10.1 C 0 km/h
1231 28-09-2010 06:12:12 10.1 C 8.98 g/m*3 10.1 C 0 km/h
1232 28-09-2010 06:24:12 10.1 C 8.98 g/m*3 10.1 C 0 km/h
1233 28-09-2010 06:36:12 10.1 C 8.98 g/m*3 10.1 C 0 km/h
1234 28-09-2010 06:48:12 10 C 8.93 g/m*3 10 C 0 km/h
1235 28-09-2010 07:00:12 10 C 8.93 g/m*3 10 C 0 km/h
1236 28-09-2010 07:12:12 10 C 8.93 g/m*3 10 C 0 km/h
1237 28-09-2010 07:24:12 10 C 8.93 g/m*3 10 C 0 km/h
1238 28-09-2010 07:36:13 10 C 8.93 g/m*3 10 C 0 km/h
1239 28-09-2010 07:48:01 10 C 8.93 g/m*3 10 C 0 km/h
1240 28-09-2010 08:00:01 10 C 8.93 g/m*3 10 C 0 km/h
1241 28-09-2010 08:12:02 10 C 8.93 g/m*3 10 C 0 km/h
1242 28-09-2010 08:24:02 10 C 8.93 g/m*3 10 C 0 km/h
1243 28-09-2010 08:36:02 10.1 C 8.98 g/m*3 10.1 C 0 km/h
1244 28-09-2010 08:48:03 10.1 C 8.98 g/m*3 10.1 C 0 km/h
1245 28-09-2010 09:00:03 10.1 C 8.98 g/m*3 10.1 C 0 km/h
1246 28-09-2010 09:12:03 10.2 C 9.04 g/m*3 10.2 C 0 km/h
1247 28-09-2010 09:24:02 10.2 C 9.04 g/m*3 10.2 C 0 km/h
1248 28-09-2010 09:36:02 10.3 C 9.1 g/m*3 10.3 C 0 km/h
1249 28-09-2010 09:48:02 10.4 C 9.16 g/m*3 10.4 C 0 km/h
1250 28-09-2010 10:00:02 10.4 C 9.16 g/m*3 10.4 C 0 km/h
Sensor: Nr:Datum:Temp:Abs-Feuchte:Windchill:Wind:
Aussen-T/F 1251 28-09-2010 10:12:02 10.5 C 9.21 g/m*3 10.5 C 0 km/h
1252 28-09-2010 10:24:01 10.5 C 9.21 g/m*3 10.5 C 0 km/h
1253 28-09-2010 10:36:02 10.7 C 9.33 g/m*3 10.7 C 0 km/h
1254 28-09-2010 10:48:02 10.8 C 9.39 g/m*3 10.8 C 0 km/h
1255 28-09-2010 11:00:02 11 C 9.51 g/m*3 11 C 0 km/h
1256 28-09-2010 11:12:02 11 C 9.51 g/m*3 11 C 0 km/h
1257 28-09-2010 11:24:02 11.2 C 9.63 g/m*3 11.2 C 0 km/h
1258 28-09-2010 11:36:02 11.3 C 9.69 g/m*3 11.3 C 0 km/h
1259 28-09-2010 11:48:02 11.4 C 9.75 g/m*3 11.4 C 0 km/h
1260 28-09-2010 12:00:02 11.4 C 9.75 g/m*3 11.4 C 0 km/h
1261 28-09-2010 12:12:02 11.4 C 9.65 g/m*3 11.4 C 0 km/h
1262 28-09-2010 12:24:02 11.4 C 9.65 g/m*3 11.4 C 0 km/h
1263 28-09-2010 12:36:02 11.5 C 9.71 g/m*3 11.5 C 0 km/h
1264 28-09-2010 12:48:02 11.7 C 9.83 g/m*3 11.7 C 0 km/h
1265 28-09-2010 13:00:02 11.6 C 9.67 g/m*3 11.6 C 0 km/h
1266 28-09-2010 13:12:02 11.6 C 9.67 g/m*3 11.6 C 0 km/h
1267 28-09-2010 13:24:03 11.8 C 9.79 g/m*3 11.8 C 0 km/h
1268 28-09-2010 13:36:02 11.8 C 9.68 g/m*3 11.8 C 0 km/h
1269 28-09-2010 13:48:03 11.9 C 9.74 g/m*3 11.9 C 0 km/h
1270 28-09-2010 14:00:03 11.9 C 9.74 g/m*3 11.9 C 0 km/h
1271 28-09-2010 14:12:02 11.8 C 9.68 g/m*3 11.8 C 0 km/h
1272 28-09-2010 14:24:02 11.7 C 9.62 g/m*3 11.7 C 0 km/h
1273 28-09-2010 14:36:02 11.7 C 9.62 g/m*3 11.7 C 0 km/h
1274 28-09-2010 14:48:02 11.7 C 9.62 g/m*3 11.7 C 0 km/h
1275 28-09-2010 15:00:02 11.7 C 9.62 g/m*3 11.7 C 0 km/h
Sensor: Nr:Datum:Temp:Abs-Feuchte:Windchill:Wind:
Aussen-T/F 1276 28-09-2010 15:12:02 11.7 C 9.73 g/m*3 11.7 C 0 km/h
1277 28-09-2010 15:24:02 11.7 C 9.73 g/m*3 11.7 C 0 km/h
1278 28-09-2010 15:36:02 11.8 C 9.79 g/m*3 11.8 C 0 km/h
1279 28-09-2010 15:48:02 11.8 C 9.79 g/m*3 11.8 C 0 km/h
1280 28-09-2010 16:00:02 11.8 C 9.79 g/m*3 11.8 C 0 km/h
1281 28-09-2010 16:12:01 11.8 C 9.79 g/m*3 11.8 C 0 km/h
1282 28-09-2010 16:24:01 11.8 C 9.79 g/m*3 11.8 C 0 km/h
1283 28-09-2010 16:36:02 11.9 C 9.96 g/m*3 11.9 C 0 km/h
1284 28-09-2010 16:48:02 11.9 C 9.96 g/m*3 11.9 C 0 km/h
1285 28-09-2010 17:00:02 11.9 C 9.96 g/m*3 11.9 C 0 km/h
1286 28-09-2010 17:12:02 12 C 10.02 g/m*3 12 C 0 km/h
1287 28-09-2010 17:24:02 12 C 10.02 g/m*3 12 C 0 km/h
1288 28-09-2010 17:36:02 12 C 10.02 g/m*3 12 C 0 km/h
1289 28-09-2010 17:48:02 12 C 10.02 g/m*3 12 C 0 km/h
1290 28-09-2010 18:00:02 11.9 C 9.96 g/m*3 11.9 C 0 km/h
1291 28-09-2010 18:12:02 11.9 C 9.96 g/m*3 11.9 C 0 km/h
1292 28-09-2010 18:24:02 11.9 C 10.06 g/m*3 11.9 C 0 km/h
1293 28-09-2010 18:36:02 11.8 C 10 g/m*3 11.8 C 0 km/h
1294 28-09-2010 18:48:01 11.8 C 10 g/m*3 11.8 C 0 km/h
1295 28-09-2010 19:00:01 11.8 C 10 g/m*3 11.8 C 0 km/h
1296 28-09-2010 19:12:02 11.7 C 9.94 g/m*3 11.7 C 0 km/h
1297 28-09-2010 19:24:01 11.7 C 9.94 g/m*3 11.7 C 0 km/h
1298 28-09-2010 19:36:01 11.7 C 9.94 g/m*3 11.7 C 0 km/h
1299 28-09-2010 19:48:01 11.7 C 9.94 g/m*3 11.7 C 0 km/h
1300 28-09-2010 20:00:01 11.6 C 9.87 g/m*3 11.6 C 0 km/h
Sensor: Nr:Datum:Temp:Abs-Feuchte:Windchill:Wind:
Aussen-T/F 1301 28-09-2010 20:12:02 11.6 C 9.87 g/m*3 11.6 C 0 km/h
1302 28-09-2010 20:24:02 11.6 C 9.87 g/m*3 11.6 C 0 km/h
1303 28-09-2010 20:36:01 11.6 C 9.87 g/m*3 11.6 C 0 km/h
1304 28-09-2010 20:48:01 11.6 C 9.87 g/m*3 11.6 C 0 km/h
1305 28-09-2010 21:00:01 11.6 C 9.87 g/m*3 11.6 C 0 km/h
1306 28-09-2010 21:12:01 11.6 C 9.87 g/m*3 11.6 C 0 km/h
1307 28-09-2010 21:24:02 11.6 C 9.87 g/m*3 11.6 C 0 km/h
1308 28-09-2010 21:36:01 11.5 C 9.81 g/m*3 11.5 C 0 km/h
1309 28-09-2010 21:48:03 11.6 C 9.87 g/m*3 11.6 C 0 km/h
1310 28-09-2010 22:00:03 11.6 C 9.87 g/m*3 11.6 C 0 km/h
1311 28-09-2010 22:12:02 11.6 C 9.87 g/m*3 11.6 C 0 km/h
1312 28-09-2010 22:24:03 11.6 C 9.87 g/m*3 11.6 C 0 km/h
1313 28-09-2010 22:36:02 11.7 C 9.94 g/m*3 11.7 C 0 km/h
1314 28-09-2010 22:48:03 11.6 C 9.87 g/m*3 11.6 C 0 km/h
1315 28-09-2010 23:00:03 11.6 C 9.87 g/m*3 11.6 C 0 km/h
1316 28-09-2010 23:12:02 11.6 C 9.87 g/m*3 11.6 C 0 km/h
1317 28-09-2010 23:24:02 11.6 C 9.87 g/m*3 11.6 C 0 km/h
1318 28-09-2010 23:36:02 11.6 C 9.87 g/m*3 11.6 C 0 km/h
1319 28-09-2010 23:48:02 11.6 C 9.87 g/m*3 11.6 C 0 km/h
1320 29-09-2010 00:00:02 11.6 C 9.87 g/m*3 11.6 C 0 km/h
1321 29-09-2010 00:12:02 11.7 C 9.94 g/m*3 11.7 C 0 km/h
1322 29-09-2010 00:24:02 11.6 C 9.87 g/m*3 11.6 C 0 km/h
1323 29-09-2010 00:36:02 11.7 C 9.94 g/m*3 11.7 C 0 km/h
1324 29-09-2010 00:48:02 11.6 C 9.87 g/m*3 11.6 C 0 km/h
1325 29-09-2010 01:00:02 11.7 C 9.94 g/m*3 11.7 C 0 km/h
Sensor: Nr:Datum:Temp:Abs-Feuchte:Windchill:Wind:
Aussen-T/F 1326 29-09-2010 01:12:03 11.6 C 9.87 g/m*3 11.6 C 0 km/h
1327 29-09-2010 01:24:02 11.6 C 9.87 g/m*3 11.6 C 0 km/h
1328 29-09-2010 01:36:02 11.6 C 9.87 g/m*3 11.6 C 0 km/h
1329 29-09-2010 01:48:01 11.6 C 9.87 g/m*3 11.6 C 0 km/h
1330 29-09-2010 02:00:01 11.6 C 9.87 g/m*3 11.6 C 0 km/h
1331 29-09-2010 02:12:02 11.6 C 9.87 g/m*3 11.6 C 0 km/h
1332 29-09-2010 02:24:01 11.5 C 9.81 g/m*3 11.5 C 0 km/h
1333 29-09-2010 02:36:02 11.5 C 9.81 g/m*3 11.5 C 0 km/h
1334 29-09-2010 02:48:01 11.6 C 9.87 g/m*3 11.6 C 0 km/h
1335 29-09-2010 03:00:01 11.4 C 9.75 g/m*3 11.4 C 0 km/h
1336 29-09-2010 03:12:01 11.3 C 9.69 g/m*3 11.3 C 0 km/h
1337 29-09-2010 03:24:02 11.4 C 9.75 g/m*3 11.4 C 0 km/h
1338 29-09-2010 03:36:01 11.7 C 9.94 g/m*3 11.7 C 0 km/h
1339 29-09-2010 03:48:01 11.6 C 9.87 g/m*3 11.6 C 0 km/h
1340 29-09-2010 04:00:01 11.6 C 9.87 g/m*3 11.6 C 0 km/h
1341 29-09-2010 04:12:02 11.6 C 9.87 g/m*3 11.6 C 0 km/h
1342 29-09-2010 04:24:01 11.6 C 9.87 g/m*3 11.6 C 0 km/h
1343 29-09-2010 04:36:01 11.3 C 9.69 g/m*3 11.3 C 0 km/h
1344 29-09-2010 04:48:01 11.3 C 9.69 g/m*3 11.3 C 0 km/h
1345 29-09-2010 05:00:01 11.4 C 9.75 g/m*3 11.4 C 0 km/h
1346 29-09-2010 05:12:02 11.4 C 9.75 g/m*3 11.4 C 0 km/h
1347 29-09-2010 05:24:01 11.4 C 9.75 g/m*3 11.4 C 0 km/h
1348 29-09-2010 05:36:01 11.4 C 9.75 g/m*3 11.4 C 0 km/h
1349 29-09-2010 05:48:01 11.4 C 9.75 g/m*3 11.4 C 0 km/h
1350 29-09-2010 06:00:01 11.7 C 9.94 g/m*3 11.7 C 0 km/h
Sensor: Nr:Datum:Temp:Abs-Feuchte:Windchill:Wind:
Aussen-T/F 1351 29-09-2010 06:12:01 11.6 C 9.87 g/m*3 11.6 C 0 km/h
1352 29-09-2010 06:24:02 11.5 C 9.81 g/m*3 11.5 C 0 km/h
1353 29-09-2010 06:36:01 11.5 C 9.81 g/m*3 11.5 C 0 km/h
1354 29-09-2010 06:48:02 11.3 C 9.69 g/m*3 11.3 C 0 km/h
1355 29-09-2010 07:00:02 11.1 C 9.57 g/m*3 11.1 C 0 km/h
1356 29-09-2010 07:12:01 10.8 C 9.39 g/m*3 10.8 C 0 km/h
1357 29-09-2010 07:24:02 11 C 9.51 g/m*3 11 C 0 km/h
1358 29-09-2010 07:36:01 11.2 C 9.63 g/m*3 11.2 C 0 km/h
1359 29-09-2010 07:48:02 11.1 C 9.57 g/m*3 11.1 C 0 km/h
1360 29-09-2010 08:00:02 11 C 9.51 g/m*3 11 C 0 km/h
1361 29-09-2010 08:12:01 11.2 C 9.63 g/m*3 11.2 C 0 km/h
1362 29-09-2010 08:24:01 11.2 C 9.63 g/m*3 11.2 C 0 km/h
1363 29-09-2010 08:36:01 11.1 C 9.57 g/m*3 11.1 C 0 km/h
1364 29-09-2010 08:48:02 11.4 C 9.75 g/m*3 11.4 C 0 km/h
1365 29-09-2010 09:00:02 11.6 C 9.87 g/m*3 11.6 C 0 km/h
1366 29-09-2010 09:12:01 11.2 C 9.53 g/m*3 11.2 C 0 km/h
1367 29-09-2010 09:24:01 10.8 C 9.19 g/m*3 10.8 C 0 km/h
1368 29-09-2010 09:36:02 11.7 C 9.62 g/m*3 11.7 C 0 km/h
1369 29-09-2010 09:48:01 11.9 C 9.64 g/m*3 11.9 C 0 km/h
1370 29-09-2010 10:00:01 12.1 C 9.22 g/m*3 12.1 C 0 km/h
1371 29-09-2010 10:12:02 12.5 C 8.91 g/m*3 12.5 C 0 km/h
1372 29-09-2010 10:24:01 12.9 C 8.79 g/m*3 12.9 C 0 km/h
1373 29-09-2010 10:36:02 13.4 C 8.95 g/m*3 13.4 C 0 km/h
1374 29-09-2010 10:48:01 13.7 C 9 g/m*3 13.7 C 0 km/h
1375 29-09-2010 11:00:01 13.8 C 8.94 g/m*3 13.8 C 0 km/h
Sensor: Nr:Datum:Temp:Abs-Feuchte:Windchill:Wind:
Aussen-T/F 1376 29-09-2010 11:12:02 13.7 C 8.53 g/m*3 13.7 C 0 km/h
1377 29-09-2010 11:24:01 13.8 C 8.46 g/m*3 13.8 C 0 km/h
1378 29-09-2010 11:36:01 14.1 C 8.01 g/m*3 14.1 C 0 km/h
1379 29-09-2010 11:48:01 14.4 C 8.16 g/m*3 14.4 C 0 km/h
1380 29-09-2010 12:00:01 14.5 C 8.21 g/m*3 14.5 C 0 km/h
1381 29-09-2010 12:12:01 14.6 C 8.01 g/m*3 14.6 C 0 km/h
1382 29-09-2010 12:24:01 14.1 C 7.52 g/m*3 14.1 C 0 km/h
1383 29-09-2010 12:36:01 14 C 8.08 g/m*3 14 C 0 km/h
1384 29-09-2010 12:48:01 14.8 C 8.36 g/m*3 14.8 C 0 km/h
1385 29-09-2010 13:00:01 15.4 C 8.15 g/m*3 15.4 C 0 km/h
1386 29-09-2010 13:12:01 15.7 C 7.89 g/m*3 15.7 C 0 km/h
1387 29-09-2010 13:24:02 15.8 C 7.81 g/m*3 15.8 C 0 km/h
1388 29-09-2010 13:36:01 15.9 C 7.99 g/m*3 15.9 C 0 km/h
1389 29-09-2010 13:48:02 15.9 C 7.58 g/m*3 15.9 C 0 km/h
1390 29-09-2010 14:00:02 16.3 C 7.35 g/m*3 16.3 C 0 km/h
1391 29-09-2010 14:12:01 15.6 C 7.58 g/m*3 15.6 C 0 km/h
1392 29-09-2010 14:24:02 15.8 C 7.94 g/m*3 15.8 C 0 km/h
1393 29-09-2010 14:36:01 17.4 C 7.85 g/m*3 17.4 C 0 km/h
1394 29-09-2010 14:48:02 19 C 7.33 g/m*3 19 C 0 km/h
1395 29-09-2010 15:00:02 18.8 C 6.76 g/m*3 18.8 C 0 km/h
1396 29-09-2010 15:12:01 18.8 C 6.93 g/m*3 18.8 C 0 km/h
1397 29-09-2010 15:24:01 18.9 C 6.97 g/m*3 18.9 C 0 km/h
1398 29-09-2010 15:36:02 19.6 C 6.92 g/m*3 19.6 C 0 km/h
1399 29-09-2010 15:48:01 19.7 C 6.79 g/m*3 19.7 C 0 km/h
1400 29-09-2010 16:00:02 18.8 C 7.41 g/m*3 18.8 C 0 km/h
Sensor: Nr:Datum:Temp:Abs-Feuchte:Windchill:Wind:
Aussen-T/F 1401 29-09-2010 16:12:01 18.1 C 7.26 g/m*3 18.1 C 0 km/h
1402 29-09-2010 16:24:01 18.1 C 7.57 g/m*3 18.1 C 0 km/h
1403 29-09-2010 16:36:02 17.6 C 7.95 g/m*3 17.6 C 0 km/h
1404 29-09-2010 16:48:01 18.1 C 7.88 g/m*3 18.1 C 0 km/h
1405 29-09-2010 17:00:02 19 C 7.33 g/m*3 19 C 0 km/h
1406 29-09-2010 17:12:01 19.4 C 7.01 g/m*3 19.4 C 0 km/h
1407 29-09-2010 17:24:01 18.6 C 7.16 g/m*3 18.6 C 0 km/h
1408 29-09-2010 17:36:02 17.6 C 7.95 g/m*3 17.6 C 0 km/h
1409 29-09-2010 17:48:01 16.9 C 8.05 g/m*3 16.9 C 0 km/h
1410 29-09-2010 18:00:01 15.9 C 7.58 g/m*3 15.9 C 0 km/h
1411 29-09-2010 18:12:04 15.2 C 7.92 g/m*3 15.2 C 0 km/h
1412 29-09-2010 18:24:02 14.4 C 7.91 g/m*3 14.4 C 0 km/h
1413 29-09-2010 18:36:02 14 C 7.84 g/m*3 14 C 0 km/h
1414 29-09-2010 18:48:01 13.6 C 7.89 g/m*3 13.6 C 0 km/h
1415 29-09-2010 19:00:01 13.2 C 7.81 g/m*3 13.2 C 0 km/h
1416 29-09-2010 19:12:01 13.1 C 7.76 g/m*3 13.1 C 0 km/h
1417 29-09-2010 19:24:01 13 C 7.71 g/m*3 13 C 0 km/h
1418 29-09-2010 19:36:02 13 C 7.6 g/m*3 13 C 0 km/h
1419 29-09-2010 19:48:01 13.1 C 7.53 g/m*3 13.1 C 0 km/h
1420 29-09-2010 20:00:01 13.3 C 7.63 g/m*3 13.3 C 0 km/h
1421 29-09-2010 20:12:02 13.2 C 7.81 g/m*3 13.2 C 0 km/h
1422 29-09-2010 20:24:01 13.2 C 7.81 g/m*3 13.2 C 0 km/h
1423 29-09-2010 20:36:02 13 C 7.6 g/m*3 13 C 0 km/h
1424 29-09-2010 20:48:01 12.9 C 7.66 g/m*3 12.9 C 0 km/h
1425 29-09-2010 21:00:01 12.9 C 7.66 g/m*3 12.9 C 0 km/h
Sensor: Nr:Datum:Temp:Abs-Feuchte:Windchill:Wind:
Aussen-T/F 1426 29-09-2010 21:12:02 12.8 C 7.84 g/m*3 12.8 C 0 km/h
1427 29-09-2010 21:24:01 12.4 C 7.98 g/m*3 12.4 C 0 km/h
1428 29-09-2010 21:38:05 12.2 C 8.09 g/m*3 12.2 C 0 km/h
1429 29-09-2010 21:50:05 12.2 C 8.09 g/m*3 12.2 C 0 km/h
1430 29-09-2010 22:02:05 12.3 C 8.25 g/m*3 12.3 C 0 km/h
1431 29-09-2010 22:14:05 12.4 C 8.3 g/m*3 12.4 C 0 km/h
1432 29-09-2010 22:26:05 12.4 C 8.41 g/m*3 12.4 C 0 km/h
1433 29-09-2010 22:38:06 12.5 C 8.47 g/m*3 12.5 C 0 km/h
1434 29-09-2010 22:50:06 12.3 C 8.36 g/m*3 12.3 C 0 km/h
1435 29-09-2010 23:02:06 12 C 8.21 g/m*3 12 C 0 km/h
1436 29-09-2010 23:14:06 11.8 C 8.31 g/m*3 11.8 C 0 km/h
1437 29-09-2010 23:26:06 11.8 C 8.42 g/m*3 11.8 C 0 km/h
1438 29-09-2010 23:38:06 12 C 8.31 g/m*3 12 C 0 km/h
1439 29-09-2010 23:50:06 12.2 C 8.42 g/m*3 12.2 C 0 km/h
1440 30-09-2010 00:02:06 12.4 C 8.52 g/m*3 12.4 C 0 km/h
1441 30-09-2010 00:14:06 12.3 C 8.47 g/m*3 12.3 C 0 km/h
1442 30-09-2010 00:26:06 12.1 C 8.36 g/m*3 12.1 C 0 km/h
1443 30-09-2010 00:38:06 12.1 C 8.47 g/m*3 12.1 C 0 km/h
1444 30-09-2010 00:50:06 11.9 C 8.37 g/m*3 11.9 C 0 km/h
1445 30-09-2010 01:02:06 11.7 C 8.37 g/m*3 11.7 C 0 km/h
1446 30-09-2010 01:14:06 11.8 C 7.89 g/m*3 11.8 C 0 km/h
1447 30-09-2010 01:26:06 11.8 C 7.79 g/m*3 11.8 C 0 km/h
1448 30-09-2010 01:38:06 12 C 7.46 g/m*3 12 C 0 km/h
1449 30-09-2010 01:50:06 12 C 7.25 g/m*3 12 C 0 km/h
1450 30-09-2010 02:02:06 12.1 C 7.4 g/m*3 12.1 C 0 km/h
Sensor: Nr:Datum:Temp:Abs-Feuchte:Windchill:Wind:
Aussen-T/F 1451 30-09-2010 02:14:06 11.5 C 7.54 g/m*3 11.5 C 0 km/h
1452 30-09-2010 02:26:06 11.4 C 7.7 g/m*3 11.4 C 0 km/h
1453 30-09-2010 02:38:06 11.1 C 7.66 g/m*3 11.1 C 0 km/h
1454 30-09-2010 02:50:07 11.2 C 7.8 g/m*3 11.2 C 0 km/h
1455 30-09-2010 03:02:07 11.3 C 7.85 g/m*3 11.3 C 0 km/h
1456 30-09-2010 03:14:07 11.2 C 7.91 g/m*3 11.2 C 0 km/h
1457 30-09-2010 03:26:07 11 C 7.81 g/m*3 11 C 0 km/h
1458 30-09-2010 03:38:07 11.1 C 7.86 g/m*3 11.1 C 0 km/h
1459 30-09-2010 03:50:07 11.2 C 7.91 g/m*3 11.2 C 0 km/h
1460 30-09-2010 04:02:07 11.3 C 7.96 g/m*3 11.3 C 0 km/h
1461 30-09-2010 04:14:07 11.2 C 7.91 g/m*3 11.2 C 0 km/h
1462 30-09-2010 04:26:07 11 C 7.81 g/m*3 11 C 0 km/h
1463 30-09-2010 04:38:07 10.8 C 7.81 g/m*3 10.8 C 0 km/h
1464 30-09-2010 04:50:07 10.8 C 7.91 g/m*3 10.8 C 0 km/h
1465 30-09-2010 05:02:07 10.8 C 7.91 g/m*3 10.8 C 0 km/h
1466 30-09-2010 05:14:07 10.8 C 7.91 g/m*3 10.8 C 0 km/h
1467 30-09-2010 05:26:07 10.8 C 7.81 g/m*3 10.8 C 0 km/h
1468 30-09-2010 05:38:07 10.7 C 7.76 g/m*3 10.7 C 0 km/h
1469 30-09-2010 05:50:07 10.7 C 7.56 g/m*3 10.7 C 0 km/h
1470 30-09-2010 06:02:07 10.8 C 7.31 g/m*3 10.8 C 0 km/h
1471 30-09-2010 06:14:07 10.8 C 7.31 g/m*3 10.8 C 0 km/h
1472 30-09-2010 06:26:07 10.7 C 7.27 g/m*3 10.7 C 0 km/h
1473 30-09-2010 06:38:05 10.6 C 7.32 g/m*3 10.6 C 0 km/h
1474 30-09-2010 06:50:02 10.6 C 7.42 g/m*3 10.6 C 0 km/h
1475 30-09-2010 07:02:02 10.7 C 7.56 g/m*3 10.7 C 0 km/h
Sensor: Nr:Datum:Temp:Abs-Feuchte:Windchill:Wind:
Aussen-T/F 1476 30-09-2010 07:14:02 10.7 C 7.66 g/m*3 10.7 C 0 km/h
1477 30-09-2010 07:26:02 10.6 C 7.61 g/m*3 10.6 C 0 km/h
1478 30-09-2010 07:38:02 10.6 C 7.71 g/m*3 10.6 C 0 km/h
1479 30-09-2010 07:50:01 10.7 C 7.76 g/m*3 10.7 C 0 km/h
1480 30-09-2010 08:02:01 10.7 C 7.66 g/m*3 10.7 C 0 km/h
1481 30-09-2010 08:14:02 10.9 C 7.76 g/m*3 10.9 C 0 km/h
1482 30-09-2010 08:26:01 10.9 C 7.76 g/m*3 10.9 C 0 km/h
1483 30-09-2010 08:38:01 11 C 7.81 g/m*3 11 C 0 km/h
1484 30-09-2010 08:50:01 11 C 7.81 g/m*3 11 C 0 km/h
1485 30-09-2010 09:02:01 11.2 C 7.91 g/m*3 11.2 C 0 km/h
1486 30-09-2010 09:14:01 11.4 C 8.01 g/m*3 11.4 C 0 km/h
1487 30-09-2010 09:26:01 11.4 C 7.8 g/m*3 11.4 C 0 km/h
1488 30-09-2010 09:38:01 11.5 C 7.75 g/m*3 11.5 C 0 km/h
1489 30-09-2010 09:50:02 11.5 C 7.85 g/m*3 11.5 C 0 km/h
1490 30-09-2010 10:02:02 11.4 C 8.01 g/m*3 11.4 C 0 km/h
1491 30-09-2010 10:14:02 11.4 C 8.11 g/m*3 11.4 C 0 km/h
1492 30-09-2010 10:26:03 11.7 C 8.37 g/m*3 11.7 C 0 km/h
1493 30-09-2010 10:38:02 11.8 C 8.42 g/m*3 11.8 C 0 km/h
1494 30-09-2010 10:50:02 11.9 C 8.47 g/m*3 11.9 C 0 km/h
1495 30-09-2010 11:02:02 12 C 8.42 g/m*3 12 C 0 km/h
1496 30-09-2010 11:14:02 12 C 8.42 g/m*3 12 C 0 km/h
1497 30-09-2010 11:26:02 11.8 C 8.42 g/m*3 11.8 C 0 km/h
1498 30-09-2010 11:38:01 11.7 C 8.47 g/m*3 11.7 C 0 km/h
1499 30-09-2010 11:50:02 11.8 C 8.63 g/m*3 11.8 C 0 km/h
1500 30-09-2010 12:02:01 11.9 C 8.79 g/m*3 11.9 C 0 km/h
Sensor: Nr:Datum:Temp:Abs-Feuchte:Windchill:Wind:
Aussen-T/F 1501 30-09-2010 12:14:01 11.9 C 8.9 g/m*3 11.9 C 0 km/h
1502 30-09-2010 12:26:02 12 C 8.95 g/m*3 12 C 0 km/h
1503 30-09-2010 12:38:02 12.1 C 9.01 g/m*3 12.1 C 0 km/h
1504 30-09-2010 12:50:02 12 C 9.06 g/m*3 12 C 0 km/h
1505 30-09-2010 13:02:02 12.4 C 9.4 g/m*3 12.4 C 0 km/h
1506 30-09-2010 13:14:02 12.6 C 9.51 g/m*3 12.6 C 0 km/h
1507 30-09-2010 13:26:02 12.6 C 9.51 g/m*3 12.6 C 0 km/h
1508 30-09-2010 13:38:02 12.6 C 9.62 g/m*3 12.6 C 0 km/h
1509 30-09-2010 13:50:01 12.7 C 9.68 g/m*3 12.7 C 0 km/h
1510 30-09-2010 14:02:02 12.9 C 9.81 g/m*3 12.9 C 0 km/h
1511 30-09-2010 14:14:02 13 C 9.87 g/m*3 13 C 0 km/h
1512 30-09-2010 14:26:01 12.8 C 9.86 g/m*3 12.8 C 0 km/h
1513 30-09-2010 14:38:01 12.9 C 9.92 g/m*3 12.9 C 0 km/h
1514 30-09-2010 14:50:01 13.1 C 10.04 g/m*3 13.1 C 0 km/h
1515 30-09-2010 15:02:02 13.2 C 10.1 g/m*3 13.2 C 0 km/h
1516 30-09-2010 15:14:03 13.2 C 10.1 g/m*3 13.2 C 0 km/h
1517 30-09-2010 15:26:01 13.4 C 10.23 g/m*3 13.4 C 0 km/h
1518 30-09-2010 15:38:01 13.3 C 10.17 g/m*3 13.3 C 0 km/h
1519 30-09-2010 15:50:01 13.2 C 9.99 g/m*3 13.2 C 0 km/h
1520 30-09-2010 16:02:01 13.5 C 10.29 g/m*3 13.5 C 0 km/h
1521 30-09-2010 16:14:01 13.5 C 10.29 g/m*3 13.5 C 0 km/h
1522 30-09-2010 16:26:02 13.6 C 10.24 g/m*3 13.6 C 0 km/h
1523 30-09-2010 16:38:01 13.3 C 10.05 g/m*3 13.3 C 0 km/h
1524 30-09-2010 16:50:03 13.1 C 9.93 g/m*3 13.1 C 0 km/h
1525 30-09-2010 17:02:02 13.1 C 9.93 g/m*3 13.1 C 0 km/h
Sensor: Nr:Datum:Temp:Abs-Feuchte:Windchill:Wind:
Aussen-T/F 1526 30-09-2010 17:14:02 13 C 9.98 g/m*3 13 C 0 km/h
1527 30-09-2010 17:26:02 13 C 9.98 g/m*3 13 C 0 km/h
1528 30-09-2010 17:38:02 12.9 C 10.03 g/m*3 12.9 C 0 km/h
1529 30-09-2010 17:50:02 12.8 C 9.97 g/m*3 12.8 C 0 km/h
1530 30-09-2010 18:02:02 12.7 C 9.91 g/m*3 12.7 C 0 km/h
1531 30-09-2010 18:14:02 12.5 C 9.78 g/m*3 12.5 C 0 km/h
1532 30-09-2010 18:26:02 12.5 C 9.78 g/m*3 12.5 C 0 km/h
1533 30-09-2010 18:38:02 12.4 C 9.83 g/m*3 12.4 C 0 km/h
1534 30-09-2010 18:50:01 12.3 C 9.77 g/m*3 12.3 C 0 km/h
1535 30-09-2010 19:02:02 12.2 C 9.71 g/m*3 12.2 C 0 km/h
1536 30-09-2010 19:14:02 12.1 C 9.76 g/m*3 12.1 C 0 km/h
1537 30-09-2010 19:26:02 12.1 C 9.76 g/m*3 12.1 C 0 km/h
1538 30-09-2010 19:38:02 12.2 C 9.82 g/m*3 12.2 C 0 km/h
1539 30-09-2010 19:50:02 12.1 C 9.87 g/m*3 12.1 C 0 km/h
1540 30-09-2010 20:02:02 12.2 C 9.93 g/m*3 12.2 C 0 km/h
1541 30-09-2010 20:14:02 12.2 C 9.93 g/m*3 12.2 C 0 km/h
1542 30-09-2010 20:26:02 12.1 C 9.87 g/m*3 12.1 C 0 km/h
1543 30-09-2010 20:38:01 12.1 C 9.87 g/m*3 12.1 C 0 km/h
1544 30-09-2010 20:50:02 12.2 C 10.04 g/m*3 12.2 C 0 km/h
1545 30-09-2010 21:02:01 12.1 C 9.97 g/m*3 12.1 C 0 km/h
1546 30-09-2010 21:14:01 12.1 C 9.97 g/m*3 12.1 C 0 km/h
1547 30-09-2010 21:26:02 12.1 C 9.97 g/m*3 12.1 C 0 km/h
1548 30-09-2010 21:38:01 12.1 C 9.97 g/m*3 12.1 C 0 km/h
1549 30-09-2010 21:50:02 12 C 9.91 g/m*3 12 C 0 km/h
1550 30-09-2010 22:02:02 12 C 9.91 g/m*3 12 C 0 km/h
Sensor: Nr:Datum:Temp:Abs-Feuchte:Windchill:Wind:
Aussen-T/F 1551 30-09-2010 22:14:02 12 C 9.91 g/m*3 12 C 0 km/h
1552 30-09-2010 22:26:02 11.9 C 9.96 g/m*3 11.9 C 0 km/h
1553 30-09-2010 22:38:02 11.9 C 9.96 g/m*3 11.9 C 0 km/h
1554 30-09-2010 22:50:01 12 C 9.91 g/m*3 12 C 0 km/h
1555 30-09-2010 23:03:03 12 C 9.91 g/m*3 12 C 0 km/h
1556 30-09-2010 23:15:03 11.9 C 9.96 g/m*3 11.9 C 0 km/h
1557 30-09-2010 23:27:03 12 C 10.02 g/m*3 12 C 0 km/h
1558 30-09-2010 23:39:03 12.1 C 10.08 g/m*3 12.1 C 0 km/h
1559 30-09-2010 23:51:03 12 C 10.02 g/m*3 12 C 0 km/h
1560 01-10-2010 00:03:03 12.1 C 10.08 g/m*3 12.1 C 0 km/h
1561 01-10-2010 00:15:03 12 C 10.02 g/m*3 12 C 0 km/h
1562 01-10-2010 00:27:03 12.1 C 10.08 g/m*3 12.1 C 0 km/h
1563 01-10-2010 00:39:03 12.1 C 10.08 g/m*3 12.1 C 0 km/h
1564 01-10-2010 00:51:03 11.8 C 10 g/m*3 11.8 C 0 km/h
1565 01-10-2010 01:03:03 11.6 C 9.87 g/m*3 11.6 C 0 km/h
1566 01-10-2010 01:15:04 11.7 C 9.94 g/m*3 11.7 C 0 km/h
1567 01-10-2010 01:27:04 11.6 C 9.87 g/m*3 11.6 C 0 km/h
1568 01-10-2010 01:39:04 11.5 C 9.81 g/m*3 11.5 C 0 km/h
1569 01-10-2010 01:51:04 11.5 C 9.81 g/m*3 11.5 C 0 km/h
1570 01-10-2010 02:03:04 11.5 C 9.81 g/m*3 11.5 C 0 km/h
1571 01-10-2010 02:15:04 11.4 C 9.75 g/m*3 11.4 C 0 km/h
1572 01-10-2010 02:27:04 11.4 C 9.75 g/m*3 11.4 C 0 km/h
1573 01-10-2010 02:39:04 11.4 C 9.75 g/m*3 11.4 C 0 km/h
1574 01-10-2010 02:51:04 11.5 C 9.81 g/m*3 11.5 C 0 km/h
1575 01-10-2010 03:03:04 11.5 C 9.81 g/m*3 11.5 C 0 km/h
Sensor: Nr:Datum:Temp:Abs-Feuchte:Windchill:Wind:
Aussen-T/F 1576 01-10-2010 03:15:04 11.5 C 9.81 g/m*3 11.5 C 0 km/h
1577 01-10-2010 03:27:04 11.5 C 9.81 g/m*3 11.5 C 0 km/h
1578 01-10-2010 03:39:04 11.5 C 9.81 g/m*3 11.5 C 0 km/h
1579 01-10-2010 03:51:04 11.8 C 10 g/m*3 11.8 C 0 km/h
1580 01-10-2010 04:03:04 11.7 C 9.94 g/m*3 11.7 C 0 km/h
1581 01-10-2010 04:15:04 11.7 C 9.94 g/m*3 11.7 C 0 km/h
1582 01-10-2010 04:27:04 11.7 C 9.94 g/m*3 11.7 C 0 km/h
1583 01-10-2010 04:39:04 11.7 C 9.94 g/m*3 11.7 C 0 km/h
1584 01-10-2010 04:51:04 11.7 C 9.94 g/m*3 11.7 C 0 km/h
1585 01-10-2010 05:03:04 11.7 C 9.94 g/m*3 11.7 C 0 km/h
1586 01-10-2010 05:15:04 11.7 C 9.94 g/m*3 11.7 C 0 km/h
1587 01-10-2010 05:27:04 11.7 C 9.94 g/m*3 11.7 C 0 km/h
1588 01-10-2010 05:39:04 11.5 C 9.81 g/m*3 11.5 C 0 km/h
1589 01-10-2010 05:51:05 11.5 C 9.81 g/m*3 11.5 C 0 km/h
1590 01-10-2010 06:03:05 11.4 C 9.75 g/m*3 11.4 C 0 km/h
1591 01-10-2010 06:15:05 11.4 C 9.75 g/m*3 11.4 C 0 km/h
1592 01-10-2010 06:27:05 11.4 C 9.75 g/m*3 11.4 C 0 km/h
1593 01-10-2010 06:39:05 11.4 C 9.75 g/m*3 11.4 C 0 km/h
1594 01-10-2010 06:51:05 11.4 C 9.75 g/m*3 11.4 C 0 km/h
1595 01-10-2010 07:03:05 11.3 C 9.69 g/m*3 11.3 C 0 km/h
1596 01-10-2010 07:15:02 11.3 C 9.69 g/m*3 11.3 C 0 km/h
1597 01-10-2010 07:27:02 11 C 9.51 g/m*3 11 C 0 km/h
1598 01-10-2010 07:39:02 10.8 C 9.39 g/m*3 10.8 C 0 km/h
1599 01-10-2010 07:51:02 10.6 C 9.27 g/m*3 10.6 C 0 km/h
1600 01-10-2010 08:03:02 10.4 C 9.16 g/m*3 10.4 C 0 km/h
Sensor: Nr:Datum:Temp:Abs-Feuchte:Windchill:Wind:
Aussen-T/F 1601 01-10-2010 08:15:02 10.3 C 9.1 g/m*3 10.3 C 0 km/h
1602 01-10-2010 08:27:02 10.2 C 9.04 g/m*3 10.2 C 0 km/h
1603 01-10-2010 08:39:02 10.2 C 9.04 g/m*3 10.2 C 0 km/h
1604 01-10-2010 08:51:02 10.4 C 9.16 g/m*3 10.4 C 0 km/h
1605 01-10-2010 09:03:02 10.7 C 9.33 g/m*3 10.7 C 0 km/h
1606 01-10-2010 09:15:01 11.1 C 9.57 g/m*3 11.1 C 0 km/h
1607 01-10-2010 09:27:01 11.3 C 9.69 g/m*3 11.3 C 0 km/h
1608 01-10-2010 09:39:02 11.4 C 9.75 g/m*3 11.4 C 0 km/h
1609 01-10-2010 09:51:02 11.7 C 9.94 g/m*3 11.7 C 0 km/h
1610 01-10-2010 10:03:02 11.7 C 9.94 g/m*3 11.7 C 0 km/h
1611 01-10-2010 10:15:02 11.7 C 9.83 g/m*3 11.7 C 0 km/h
1612 01-10-2010 10:27:02 11.6 C 9.56 g/m*3 11.6 C 0 km/h
1613 01-10-2010 10:39:02 11.7 C 9.52 g/m*3 11.7 C 0 km/h
1614 01-10-2010 10:51:02 11.9 C 9.32 g/m*3 11.9 C 0 km/h
1615 01-10-2010 11:03:02 12.1 C 9.12 g/m*3 12.1 C 0 km/h
1616 01-10-2010 11:15:02 12.2 C 8.85 g/m*3 12.2 C 0 km/h
1617 01-10-2010 11:27:02 12.5 C 8.91 g/m*3 12.5 C 0 km/h
1618 01-10-2010 11:39:02 12.5 C 8.69 g/m*3 12.5 C 0 km/h
1619 01-10-2010 11:51:02 13 C 8.62 g/m*3 13 C 0 km/h
1620 01-10-2010 12:03:02 12.8 C 8.51 g/m*3 12.8 C 0 km/h
1621 01-10-2010 12:15:02 12.8 C 8.62 g/m*3 12.8 C 0 km/h
1622 01-10-2010 12:27:02 12.7 C 8.46 g/m*3 12.7 C 0 km/h
1623 01-10-2010 12:39:02 12.4 C 8.41 g/m*3 12.4 C 0 km/h
1624 01-10-2010 12:51:02 12.7 C 8.46 g/m*3 12.7 C 0 km/h
1625 01-10-2010 13:03:01 12.8 C 8.4 g/m*3 12.8 C 0 km/h
Sensor: Nr:Datum:Temp:Abs-Feuchte:Windchill:Wind:
Aussen-T/F 1626 01-10-2010 13:15:02 13.3 C 8.32 g/m*3 13.3 C 0 km/h
1627 01-10-2010 13:27:02 13.4 C 8.14 g/m*3 13.4 C 0 km/h
1628 01-10-2010 13:39:01 13.1 C 7.76 g/m*3 13.1 C 0 km/h
1629 01-10-2010 13:51:02 13.3 C 7.97 g/m*3 13.3 C 0 km/h
1630 01-10-2010 14:03:01 13.1 C 7.87 g/m*3 13.1 C 0 km/h
1631 01-10-2010 14:15:01 13.2 C 8.04 g/m*3 13.2 C 0 km/h
1632 01-10-2010 14:27:01 13.3 C 7.86 g/m*3 13.3 C 0 km/h
1633 01-10-2010 14:39:02 13.2 C 7.92 g/m*3 13.2 C 0 km/h
1634 01-10-2010 14:51:02 13.8 C 7.98 g/m*3 13.8 C 0 km/h
1635 01-10-2010 15:03:02 14.4 C 7.91 g/m*3 14.4 C 0 km/h
1636 01-10-2010 15:15:02 15.2 C 7.92 g/m*3 15.2 C 0 km/h
1637 01-10-2010 15:27:02 15.3 C 7.7 g/m*3 15.3 C 0 km/h
1638 01-10-2010 15:39:02 15.7 C 7.76 g/m*3 15.7 C 0 km/h
1639 01-10-2010 15:51:02 15.9 C 7.58 g/m*3 15.9 C 0 km/h
1640 01-10-2010 16:03:02 16 C 7.49 g/m*3 16 C 0 km/h
1641 01-10-2010 16:15:02 16.2 C 7.17 g/m*3 16.2 C 0 km/h
1642 01-10-2010 16:27:02 17.1 C 7.42 g/m*3 17.1 C 0 km/h
1643 01-10-2010 16:39:02 17.2 C 7.91 g/m*3 17.2 C 0 km/h
1644 01-10-2010 16:51:02 17.2 C 8.05 g/m*3 17.2 C 0 km/h
1645 01-10-2010 17:03:02 17.5 C 7.9 g/m*3 17.5 C 0 km/h
1646 01-10-2010 17:15:02 16.6 C 8.19 g/m*3 16.6 C 0 km/h
1647 01-10-2010 17:27:02 16 C 8.31 g/m*3 16 C 0 km/h
1648 01-10-2010 17:39:02 15.4 C 8.54 g/m*3 15.4 C 0 km/h
1649 01-10-2010 17:51:02 15.2 C 8.7 g/m*3 15.2 C 0 km/h
1650 01-10-2010 18:03:02 14.8 C 8.74 g/m*3 14.8 C 0 km/h
Sensor: Nr:Datum:Temp:Abs-Feuchte:Windchill:Wind:
Aussen-T/F 1651 01-10-2010 18:15:02 14.7 C 8.94 g/m*3 14.7 C 0 km/h
1652 01-10-2010 18:27:02 14.5 C 8.83 g/m*3 14.5 C 0 km/h
1653 01-10-2010 18:39:01 14.1 C 8.74 g/m*3 14.1 C 0 km/h
1654 01-10-2010 18:51:02 13.6 C 8.71 g/m*3 13.6 C 0 km/h
1655 01-10-2010 19:03:01 12.8 C 8.62 g/m*3 12.8 C 0 km/h
1656 01-10-2010 19:15:02 12.5 C 8.58 g/m*3 12.5 C 0 km/h
1657 01-10-2010 19:27:02 12.2 C 8.52 g/m*3 12.2 C 0 km/h
1658 01-10-2010 19:39:02 11.8 C 8.53 g/m*3 11.8 C 0 km/h
1659 01-10-2010 19:51:02 11.6 C 8.52 g/m*3 11.6 C 0 km/h
1660 01-10-2010 20:03:02 11.4 C 8.42 g/m*3 11.4 C 0 km/h
1661 01-10-2010 20:15:02 11.3 C 8.47 g/m*3 11.3 C 0 km/h
1662 01-10-2010 20:27:02 11.2 C 8.51 g/m*3 11.2 C 0 km/h
1663 01-10-2010 20:39:02 11.2 C 8.51 g/m*3 11.2 C 0 km/h
1664 01-10-2010 20:51:01 11.2 C 8.62 g/m*3 11.2 C 0 km/h
1665 01-10-2010 21:03:02 11.1 C 8.56 g/m*3 11.1 C 0 km/h
1666 01-10-2010 21:15:01 11 C 8.51 g/m*3 11 C 0 km/h
1667 01-10-2010 21:27:01 10.8 C 8.5 g/m*3 10.8 C 0 km/h
1668 01-10-2010 21:39:01 10.7 C 8.55 g/m*3 10.7 C 0 km/h
1669 01-10-2010 21:51:01 10.7 C 8.55 g/m*3 10.7 C 0 km/h
1670 01-10-2010 22:03:02 10.8 C 8.7 g/m*3 10.8 C 0 km/h
1671 01-10-2010 22:15:02 10.9 C 8.75 g/m*3 10.9 C 0 km/h
1672 01-10-2010 22:27:02 11 C 8.81 g/m*3 11 C 0 km/h
1673 01-10-2010 22:39:01 11.1 C 8.76 g/m*3 11.1 C 0 km/h
1674 01-10-2010 22:52:04 11.1 C 8.76 g/m*3 11.1 C 0 km/h
1675 01-10-2010 23:04:04 11.1 C 8.76 g/m*3 11.1 C 0 km/h
Sensor: Nr:Datum:Temp:Abs-Feuchte:Windchill:Wind:
Aussen-T/F 1676 01-10-2010 23:16:04 11.1 C 8.76 g/m*3 11.1 C 0 km/h
1677 01-10-2010 23:28:04 11 C 8.71 g/m*3 11 C 0 km/h
1678 01-10-2010 23:40:04 11 C 8.71 g/m*3 11 C 0 km/h
1679 01-10-2010 23:52:04 11.1 C 8.76 g/m*3 11.1 C 0 km/h
1680 02-10-2010 00:04:04 11.2 C 8.82 g/m*3 11.2 C 0 km/h
1681 02-10-2010 00:16:04 11.2 C 8.72 g/m*3 11.2 C 0 km/h
1682 02-10-2010 00:28:04 11.2 C 8.72 g/m*3 11.2 C 0 km/h
1683 02-10-2010 00:40:04 11.1 C 8.66 g/m*3 11.1 C 0 km/h
1684 02-10-2010 00:52:04 10.9 C 8.65 g/m*3 10.9 C 0 km/h
1685 02-10-2010 01:04:04 10.9 C 8.65 g/m*3 10.9 C 0 km/h
1686 02-10-2010 01:16:04 11 C 8.71 g/m*3 11 C 0 km/h
1687 02-10-2010 01:28:05 10.9 C 8.75 g/m*3 10.9 C 0 km/h
1688 02-10-2010 01:40:05 11 C 8.81 g/m*3 11 C 0 km/h
1689 02-10-2010 01:52:05 10.8 C 8.8 g/m*3 10.8 C 0 km/h
1690 02-10-2010 02:04:05 10.8 C 8.8 g/m*3 10.8 C 0 km/h
1691 02-10-2010 02:16:05 10.8 C 8.9 g/m*3 10.8 C 0 km/h
1692 02-10-2010 02:28:05 11 C 9.01 g/m*3 11 C 0 km/h
1693 02-10-2010 02:40:05 11.1 C 9.07 g/m*3 11.1 C 0 km/h
1694 02-10-2010 02:52:05 11.1 C 9.07 g/m*3 11.1 C 0 km/h
1695 02-10-2010 03:04:05 11.1 C 9.07 g/m*3 11.1 C 0 km/h
1696 02-10-2010 03:16:05 11.1 C 9.17 g/m*3 11.1 C 0 km/h
1697 02-10-2010 03:28:05 11.1 C 9.17 g/m*3 11.1 C 0 km/h
1698 02-10-2010 03:40:05 11.1 C 9.17 g/m*3 11.1 C 0 km/h
1699 02-10-2010 03:52:05 11.1 C 9.17 g/m*3 11.1 C 0 km/h
1700 02-10-2010 04:04:05 11.1 C 9.27 g/m*3 11.1 C 0 km/h
Sensor: Nr:Datum:Temp:Abs-Feuchte:Windchill:Wind:
Aussen-T/F 1701 02-10-2010 04:16:05 11.1 C 9.27 g/m*3 11.1 C 0 km/h
1702 02-10-2010 04:28:05 11.1 C 9.27 g/m*3 11.1 C 0 km/h
1703 02-10-2010 04:40:05 11.1 C 9.27 g/m*3 11.1 C 0 km/h
1704 02-10-2010 04:52:05 11 C 9.21 g/m*3 11 C 0 km/h
1705 02-10-2010 05:04:05 11 C 9.21 g/m*3 11 C 0 km/h
1706 02-10-2010 05:16:05 11 C 9.31 g/m*3 11 C 0 km/h
1707 02-10-2010 05:28:05 11 C 9.31 g/m*3 11 C 0 km/h
1708 02-10-2010 05:40:05 10.9 C 9.35 g/m*3 10.9 C 0 km/h
1709 02-10-2010 05:52:05 11 C 9.31 g/m*3 11 C 0 km/h
1710 02-10-2010 06:04:06 11 C 9.31 g/m*3 11 C 0 km/h
1711 02-10-2010 06:16:06 11 C 9.41 g/m*3 11 C 0 km/h
1712 02-10-2010 06:28:06 11 C 9.41 g/m*3 11 C 0 km/h
1713 02-10-2010 06:40:06 11 C 9.41 g/m*3 11 C 0 km/h
1714 02-10-2010 06:52:06 11 C 9.41 g/m*3 11 C 0 km/h
1715 02-10-2010 07:04:06 11 C 9.41 g/m*3 11 C 0 km/h
1716 02-10-2010 07:16:06 11.1 C 9.47 g/m*3 11.1 C 0 km/h
1717 02-10-2010 07:28:06 11.2 C 9.63 g/m*3 11.2 C 0 km/h
1718 02-10-2010 07:40:03 11.2 C 9.63 g/m*3 11.2 C 0 km/h
1719 02-10-2010 07:52:02 11.2 C 9.63 g/m*3 11.2 C 0 km/h
1720 02-10-2010 08:04:02 11.3 C 9.69 g/m*3 11.3 C 0 km/h
1721 02-10-2010 08:16:03 11.3 C 9.69 g/m*3 11.3 C 0 km/h
1722 02-10-2010 08:28:03 11.4 C 9.75 g/m*3 11.4 C 0 km/h
1723 02-10-2010 08:40:02 11.5 C 9.81 g/m*3 11.5 C 0 km/h
1724 02-10-2010 08:52:02 11.8 C 10 g/m*3 11.8 C 0 km/h
1725 02-10-2010 09:04:02 11.8 C 10 g/m*3 11.8 C 0 km/h
Sensor: Nr:Datum:Temp:Abs-Feuchte:Windchill:Wind:
Aussen-T/F 1726 02-10-2010 09:16:02 11.8 C 10 g/m*3 11.8 C 0 km/h
1727 02-10-2010 09:28:02 12 C 10.12 g/m*3 12 C 0 km/h
1728 02-10-2010 09:40:02 12.1 C 10.19 g/m*3 12.1 C 0 km/h
1729 02-10-2010 09:52:02 12.3 C 10.32 g/m*3 12.3 C 0 km/h
1730 02-10-2010 10:04:02 12.6 C 10.51 g/m*3 12.6 C 0 km/h
1731 02-10-2010 10:16:02 13 C 10.66 g/m*3 13 C 0 km/h
1732 02-10-2010 10:28:02 13 C 10.66 g/m*3 13 C 0 km/h
1733 02-10-2010 10:40:01 13.3 C 10.86 g/m*3 13.3 C 0 km/h
1734 02-10-2010 10:52:02 13.8 C 11.08 g/m*3 13.8 C 0 km/h
1735 02-10-2010 11:04:01 14 C 11.1 g/m*3 14 C 0 km/h
1736 02-10-2010 11:16:01 14.4 C 11.37 g/m*3 14.4 C 0 km/h
1737 02-10-2010 11:28:01 14.4 C 11.37 g/m*3 14.4 C 0 km/h
1738 02-10-2010 11:40:02 14.4 C 11.25 g/m*3 14.4 C 0 km/h
1739 02-10-2010 11:52:02 14.4 C 11.25 g/m*3 14.4 C 0 km/h
1740 02-10-2010 12:04:02 14.5 C 11.32 g/m*3 14.5 C 0 km/h
1741 02-10-2010 12:16:02 14.7 C 11.46 g/m*3 14.7 C 0 km/h
1742 02-10-2010 12:28:02 15.2 C 11.68 g/m*3 15.2 C 0 km/h
1743 02-10-2010 12:40:02 15.4 C 11.69 g/m*3 15.4 C 0 km/h
1744 02-10-2010 12:52:02 15.4 C 11.43 g/m*3 15.4 C 0 km/h
1745 02-10-2010 13:04:02 15.5 C 11.5 g/m*3 15.5 C 0 km/h
1746 02-10-2010 13:16:02 15.6 C 11.57 g/m*3 15.6 C 0 km/h
1747 02-10-2010 13:28:02 15.7 C 11.64 g/m*3 15.7 C 0 km/h
1748 02-10-2010 13:40:02 15.9 C 11.65 g/m*3 15.9 C 0 km/h
1749 02-10-2010 13:52:01 16 C 11.31 g/m*3 16 C 0 km/h
1750 02-10-2010 14:04:01 15.7 C 11.24 g/m*3 15.7 C 0 km/h
Sensor: Nr:Datum:Temp:Abs-Feuchte:Windchill:Wind:
Aussen-T/F 1751 02-10-2010 14:16:02 15.4 C 11.17 g/m*3 15.4 C 0 km/h
1752 02-10-2010 14:28:02 15.4 C 11.3 g/m*3 15.4 C 0 km/h
1753 02-10-2010 14:40:01 15.7 C 11.64 g/m*3 15.7 C 0 km/h
1754 02-10-2010 14:52:03 16 C 11.72 g/m*3 16 C 0 km/h
1755 02-10-2010 15:04:02 15.8 C 11.71 g/m*3 15.8 C 0 km/h
1756 02-10-2010 15:16:02 15.9 C 11.65 g/m*3 15.9 C 0 km/h
1757 02-10-2010 15:28:02 16 C 11.44 g/m*3 16 C 0 km/h
1758 02-10-2010 15:40:02 16.2 C 11.31 g/m*3 16.2 C 0 km/h
1759 02-10-2010 15:52:02 16.1 C 11.24 g/m*3 16.1 C 0 km/h
1760 02-10-2010 16:04:02 16.2 C 11.31 g/m*3 16.2 C 0 km/h
1761 02-10-2010 16:16:02 16.1 C 10.97 g/m*3 16.1 C 0 km/h
1762 02-10-2010 16:28:02 16.2 C 11.03 g/m*3 16.2 C 0 km/h
1763 02-10-2010 16:40:02 16.4 C 11.17 g/m*3 16.4 C 0 km/h
1764 02-10-2010 16:52:02 16.3 C 10.96 g/m*3 16.3 C 0 km/h
1765 02-10-2010 17:04:01 16.4 C 11.03 g/m*3 16.4 C 0 km/h
1766 02-10-2010 17:16:01 16.3 C 10.82 g/m*3 16.3 C 0 km/h
1767 02-10-2010 17:28:01 16.3 C 10.96 g/m*3 16.3 C 0 km/h
1768 02-10-2010 17:40:02 16.3 C 10.96 g/m*3 16.3 C 0 km/h
1769 02-10-2010 17:52:02 16.1 C 10.83 g/m*3 16.1 C 0 km/h
1770 02-10-2010 18:04:02 15.9 C 10.97 g/m*3 15.9 C 0 km/h
1771 02-10-2010 18:16:02 15.6 C 10.91 g/m*3 15.6 C 0 km/h
1772 02-10-2010 18:28:02 15.3 C 10.84 g/m*3 15.3 C 0 km/h
1773 02-10-2010 18:40:02 15.2 C 10.9 g/m*3 15.2 C 0 km/h
1774 02-10-2010 18:52:02 15.1 C 10.97 g/m*3 15.1 C 0 km/h
1775 02-10-2010 19:04:02 15 C 10.9 g/m*3 15 C 0 km/h
Sensor: Nr:Datum:Temp:Abs-Feuchte:Windchill:Wind:
Aussen-T/F 1776 02-10-2010 19:16:02 15 C 10.9 g/m*3 15 C 0 km/h
1777 02-10-2010 19:28:02 15 C 10.9 g/m*3 15 C 0 km/h
1778 02-10-2010 19:40:02 14.9 C 10.96 g/m*3 14.9 C 0 km/h
1779 02-10-2010 19:52:01 14.8 C 11.02 g/m*3 14.8 C 0 km/h
1780 02-10-2010 20:04:01 14.8 C 11.02 g/m*3 14.8 C 0 km/h
1781 02-10-2010 20:16:02 14.9 C 11.22 g/m*3 14.9 C 0 km/h
1782 02-10-2010 20:28:02 14.9 C 11.22 g/m*3 14.9 C 0 km/h
1783 02-10-2010 20:40:01 14.8 C 11.02 g/m*3 14.8 C 0 km/h
1784 02-10-2010 20:52:01 14.6 C 11.01 g/m*3 14.6 C 0 km/h
1785 02-10-2010 21:04:01 14.6 C 11.01 g/m*3 14.6 C 0 km/h
1786 02-10-2010 21:16:02 14.5 C 10.94 g/m*3 14.5 C 0 km/h
1787 02-10-2010 21:28:02 14.5 C 11.07 g/m*3 14.5 C 0 km/h
1788 02-10-2010 21:40:01 14.5 C 11.07 g/m*3 14.5 C 0 km/h
1789 02-10-2010 21:53:02 14.4 C 11 g/m*3 14.4 C 0 km/h
1790 02-10-2010 22:05:02 14.4 C 11 g/m*3 14.4 C 0 km/h
1791 02-10-2010 22:17:02 14.4 C 11.13 g/m*3 14.4 C 0 km/h
1792 02-10-2010 22:29:02 14.4 C 11.13 g/m*3 14.4 C 0 km/h
1793 02-10-2010 22:41:02 14.5 C 11.19 g/m*3 14.5 C 0 km/h
1794 02-10-2010 22:53:02 14.7 C 11.33 g/m*3 14.7 C 0 km/h
1795 02-10-2010 23:05:02 14.7 C 11.33 g/m*3 14.7 C 0 km/h
1796 02-10-2010 23:17:02 14.6 C 11.14 g/m*3 14.6 C 0 km/h
1797 02-10-2010 23:29:03 14.5 C 11.07 g/m*3 14.5 C 0 km/h
1798 02-10-2010 23:41:03 14.5 C 11.07 g/m*3 14.5 C 0 km/h
1799 02-10-2010 23:53:03 14.5 C 11.07 g/m*3 14.5 C 0 km/h
1800 03-10-2010 00:05:03 14.6 C 11.14 g/m*3 14.6 C 0 km/h
Sensor: Nr:Datum:Temp:Abs-Feuchte:Windchill:Wind:
Aussen-T/F 1801 03-10-2010 00:17:03 14.4 C 11 g/m*3 14.4 C 0 km/h
1802 03-10-2010 00:29:03 14.3 C 10.93 g/m*3 14.3 C 0 km/h
1803 03-10-2010 00:41:03 14.4 C 11.13 g/m*3 14.4 C 0 km/h
1804 03-10-2010 00:53:03 14.5 C 11.19 g/m*3 14.5 C 0 km/h
1805 03-10-2010 01:05:03 14.5 C 11.07 g/m*3 14.5 C 0 km/h
1806 03-10-2010 01:17:03 14.6 C 10.89 g/m*3 14.6 C 0 km/h
1807 03-10-2010 01:29:03 14.7 C 10.58 g/m*3 14.7 C 0 km/h
1808 03-10-2010 01:41:03 14.8 C 10.51 g/m*3 14.8 C 0 km/h
1809 03-10-2010 01:53:03 14.9 C 10.45 g/m*3 14.9 C 0 km/h
1810 03-10-2010 02:05:03 15 C 10.26 g/m*3 15 C 0 km/h
1811 03-10-2010 02:17:03 14.8 C 10.39 g/m*3 14.8 C 0 km/h
1812 03-10-2010 02:29:03 14.6 C 10.39 g/m*3 14.6 C 0 km/h
1813 03-10-2010 02:41:03 14.4 C 10.26 g/m*3 14.4 C 0 km/h
1814 03-10-2010 02:53:03 14.1 C 10.32 g/m*3 14.1 C 0 km/h
1815 03-10-2010 03:05:03 14 C 10.37 g/m*3 14 C 0 km/h
1816 03-10-2010 03:17:03 13.8 C 10.48 g/m*3 13.8 C 0 km/h
1817 03-10-2010 03:29:04 13.8 C 10.6 g/m*3 13.8 C 0 km/h
1818 03-10-2010 03:41:04 13.9 C 10.67 g/m*3 13.9 C 0 km/h
1819 03-10-2010 03:53:04 14.1 C 10.8 g/m*3 14.1 C 0 km/h
1820 03-10-2010 04:05:04 14 C 10.74 g/m*3 14 C 0 km/h
1821 03-10-2010 04:17:04 14.1 C 10.68 g/m*3 14.1 C 0 km/h
1822 03-10-2010 04:29:04 14 C 10.61 g/m*3 14 C 0 km/h
1823 03-10-2010 04:41:04 14 C 10.49 g/m*3 14 C 0 km/h
1824 03-10-2010 04:53:04 14.3 C 10.57 g/m*3 14.3 C 0 km/h
1825 03-10-2010 05:05:04 14.3 C 10.44 g/m*3 14.3 C 0 km/h
Sensor: Nr:Datum:Temp:Abs-Feuchte:Windchill:Wind:
Aussen-T/F 1826 03-10-2010 05:17:04 14.4 C 10.38 g/m*3 14.4 C 0 km/h
1827 03-10-2010 05:29:04 14.4 C 10.38 g/m*3 14.4 C 0 km/h
1828 03-10-2010 05:41:04 14.2 C 10.26 g/m*3 14.2 C 0 km/h
1829 03-10-2010 05:53:04 14 C 10.25 g/m*3 14 C 0 km/h
1830 03-10-2010 06:05:04 13.8 C 10.37 g/m*3 13.8 C 0 km/h
1831 03-10-2010 06:17:04 13.5 C 10.18 g/m*3 13.5 C 0 km/h
1832 03-10-2010 06:29:04 13.4 C 10.23 g/m*3 13.4 C 0 km/h
1833 03-10-2010 06:41:04 13.3 C 10.17 g/m*3 13.3 C 0 km/h
1834 03-10-2010 06:53:04 13.3 C 10.28 g/m*3 13.3 C 0 km/h
1835 03-10-2010 07:05:04 13.3 C 10.28 g/m*3 13.3 C 0 km/h
1836 03-10-2010 07:17:04 13.4 C 10.46 g/m*3 13.4 C 0 km/h
1837 03-10-2010 07:29:04 13.4 C 10.46 g/m*3 13.4 C 0 km/h
1838 03-10-2010 07:41:05 13.5 C 10.53 g/m*3 13.5 C 0 km/h
1839 03-10-2010 07:53:02 13.5 C 10.41 g/m*3 13.5 C 0 km/h
1840 03-10-2010 08:05:01 13.7 C 10.42 g/m*3 13.7 C 0 km/h
1841 03-10-2010 08:17:02 13.9 C 10.43 g/m*3 13.9 C 0 km/h
1842 03-10-2010 08:29:02 13.9 C 10.43 g/m*3 13.9 C 0 km/h
1843 03-10-2010 08:41:01 14.1 C 10.44 g/m*3 14.1 C 0 km/h
1844 03-10-2010 08:53:03 14.3 C 10.32 g/m*3 14.3 C 0 km/h
1845 03-10-2010 09:05:02 14.8 C 10.26 g/m*3 14.8 C 0 km/h
1846 03-10-2010 09:17:02 15 C 10 g/m*3 15 C 0 km/h
1847 03-10-2010 09:29:03 15.1 C 9.93 g/m*3 15.1 C 0 km/h
1848 03-10-2010 09:41:02 15.2 C 10.12 g/m*3 15.2 C 0 km/h
1849 03-10-2010 09:53:02 15.5 C 10.05 g/m*3 15.5 C 0 km/h
1850 03-10-2010 10:05:02 16.2 C 10.2 g/m*3 16.2 C 0 km/h
Sensor: Nr:Datum:Temp:Abs-Feuchte:Windchill:Wind:
Aussen-T/F 1851 03-10-2010 10:17:02 16.9 C 9.92 g/m*3 16.9 C 0 km/h
1852 03-10-2010 10:29:03 17 C 9.69 g/m*3 17 C 0 km/h
1853 03-10-2010 10:41:01 17 C 9.84 g/m*3 17 C 0 km/h
1854 03-10-2010 10:53:02 16.8 C 9.87 g/m*3 16.8 C 0 km/h
1855 03-10-2010 11:05:01 17.2 C 9.81 g/m*3 17.2 C 0 km/h
1856 03-10-2010 11:17:02 17.6 C 10.35 g/m*3 17.6 C 0 km/h
1857 03-10-2010 11:29:02 17.9 C 10.23 g/m*3 17.9 C 0 km/h
1858 03-10-2010 11:41:02 18.5 C 9.97 g/m*3 18.5 C 0 km/h
1859 03-10-2010 11:53:02 19.5 C 10.24 g/m*3 19.5 C 0 km/h
1860 03-10-2010 12:05:03 19.7 C 9.85 g/m*3 19.7 C 0 km/h
1861 03-10-2010 12:17:02 19.7 C 10.02 g/m*3 19.7 C 0 km/h
1862 03-10-2010 12:29:02 19.3 C 9.45 g/m*3 19.3 C 0 km/h
1863 03-10-2010 12:41:02 19.7 C 9.68 g/m*3 19.7 C 0 km/h
1864 03-10-2010 12:53:01 20 C 9.68 g/m*3 20 C 0 km/h
1865 03-10-2010 13:05:02 20.7 C 9.9 g/m*3 20.7 C 0 km/h
1866 03-10-2010 13:17:01 21.1 C 9.58 g/m*3 21.1 C 0 km/h
1867 03-10-2010 13:29:01 21.5 C 9.62 g/m*3 21.5 C 0 km/h
1868 03-10-2010 13:41:01 21.7 C 8.97 g/m*3 21.7 C 0 km/h
1869 03-10-2010 13:53:01 21.8 C 9.02 g/m*3 21.8 C 0 km/h
1870 03-10-2010 14:05:02 22.2 C 8.83 g/m*3 22.2 C 0 km/h
1871 03-10-2010 14:17:01 22.7 C 9.5 g/m*3 22.7 C 0 km/h
1872 03-10-2010 14:29:01 23.2 C 9.15 g/m*3 23.2 C 0 km/h
1873 03-10-2010 14:41:01 24.4 C 9.12 g/m*3 24.4 C 0 km/h
1874 03-10-2010 14:53:01 24.2 C 8.8 g/m*3 24.2 C 0 km/h
1875 03-10-2010 15:05:02 24.4 C 8.68 g/m*3 24.4 C 0 km/h
Sensor: Nr:Datum:Temp:Abs-Feuchte:Windchill:Wind:
Aussen-T/F 1876 03-10-2010 15:17:02 24.4 C 8.68 g/m*3 24.4 C 0 km/h
1877 03-10-2010 15:29:02 24.5 C 8.5 g/m*3 24.5 C 0 km/h
1878 03-10-2010 15:41:01 24.9 C 8.7 g/m*3 24.9 C 0 km/h
1879 03-10-2010 15:53:02 25.4 C 8.48 g/m*3 25.4 C 0 km/h
1880 03-10-2010 16:05:01 24.6 C 8.33 g/m*3 24.6 C 0 km/h
1881 03-10-2010 16:17:02 24.7 C 8.37 g/m*3 24.7 C 0 km/h
1882 03-10-2010 16:29:02 25.1 C 8.57 g/m*3 25.1 C 0 km/h
1883 03-10-2010 16:41:01 25.4 C 8.95 g/m*3 25.4 C 0 km/h
1884 03-10-2010 16:53:03 25.8 C 9.15 g/m*3 25.8 C 0 km/h
1885 03-10-2010 17:05:02 26.1 C 9.3 g/m*3 26.1 C 0 km/h
1886 03-10-2010 17:17:02 25.6 C 9.05 g/m*3 25.6 C 0 km/h
1887 03-10-2010 17:29:02 25.6 C 9.52 g/m*3 25.6 C 0 km/h
1888 03-10-2010 17:41:03 24.4 C 9.35 g/m*3 24.4 C 0 km/h
1889 03-10-2010 17:53:02 24.4 C 9.57 g/m*3 24.4 C 0 km/h
1890 03-10-2010 18:05:01 23.6 C 10.21 g/m*3 23.6 C 0 km/h
1891 03-10-2010 18:17:02 22.5 C 10.39 g/m*3 22.5 C 0 km/h
1892 03-10-2010 18:29:02 21.4 C 10.5 g/m*3 21.4 C 0 km/h
1893 03-10-2010 18:41:02 20.4 C 10.61 g/m*3 20.4 C 0 km/h
1894 03-10-2010 18:53:02 19.8 C 10.76 g/m*3 19.8 C 0 km/h
1895 03-10-2010 19:05:03 19.3 C 10.95 g/m*3 19.3 C 0 km/h
1896 03-10-2010 19:17:02 19 C 10.76 g/m*3 19 C 0 km/h
1897 03-10-2010 19:29:02 18.9 C 10.85 g/m*3 18.9 C 0 km/h
1898 03-10-2010 19:41:02 18.4 C 10.85 g/m*3 18.4 C 0 km/h
1899 03-10-2010 19:53:01 18.3 C 10.79 g/m*3 18.3 C 0 km/h
1900 03-10-2010 20:05:02 18.1 C 10.82 g/m*3 18.1 C 0 km/h
Sensor: Nr:Datum:Temp:Abs-Feuchte:Windchill:Wind:
Aussen-T/F 1901 03-10-2010 20:17:01 18.5 C 10.92 g/m*3 18.5 C 0 km/h
1902 03-10-2010 20:29:01 18.4 C 10.85 g/m*3 18.4 C 0 km/h
1903 03-10-2010 20:41:02 18.4 C 10.85 g/m*3 18.4 C 0 km/h
1904 03-10-2010 20:53:01 18.3 C 10.94 g/m*3 18.3 C 0 km/h
1905 03-10-2010 21:05:02 18.3 C 10.94 g/m*3 18.3 C 0 km/h
1906 03-10-2010 21:17:02 18.1 C 10.97 g/m*3 18.1 C 0 km/h
1907 03-10-2010 21:29:02 17.9 C 11.15 g/m*3 17.9 C 0 km/h
1908 03-10-2010 21:41:02 17.8 C 11.08 g/m*3 17.8 C 0 km/h
1909 03-10-2010 21:53:01 17.7 C 11.01 g/m*3 17.7 C 0 km/h
1910 03-10-2010 22:05:01 17.6 C 11.1 g/m*3 17.6 C 0 km/h
1911 03-10-2010 22:17:02 17.5 C 11.03 g/m*3 17.5 C 0 km/h
1912 03-10-2010 22:29:02 17.5 C 10.88 g/m*3 17.5 C 0 km/h
1913 03-10-2010 22:41:01 17.6 C 10.8 g/m*3 17.6 C 0 km/h
1914 03-10-2010 22:53:02 17.6 C 10.5 g/m*3 17.6 C 0 km/h
1915 03-10-2010 23:05:01 17.5 C 10.44 g/m*3 17.5 C 0 km/h
1916 03-10-2010 23:18:06 17.6 C 10.5 g/m*3 17.6 C 0 km/h
1917 03-10-2010 23:30:07 17.6 C 10.35 g/m*3 17.6 C 0 km/h
1918 03-10-2010 23:42:07 17.6 C 10.2 g/m*3 17.6 C 0 km/h
1919 03-10-2010 23:54:07 17.5 C 10.14 g/m*3 17.5 C 0 km/h
1920 04-10-2010 00:06:07 17.4 C 9.93 g/m*3 17.4 C 0 km/h
1921 04-10-2010 00:18:07 17.4 C 9.93 g/m*3 17.4 C 0 km/h
1922 04-10-2010 00:30:07 17.2 C 9.81 g/m*3 17.2 C 0 km/h
1923 04-10-2010 00:42:07 17.2 C 9.81 g/m*3 17.2 C 0 km/h
1924 04-10-2010 00:54:07 17.2 C 9.81 g/m*3 17.2 C 0 km/h
1925 04-10-2010 01:06:07 17.2 C 9.81 g/m*3 17.2 C 0 km/h
Sensor: Nr:Datum:Temp:Abs-Feuchte:Windchill:Wind:
Aussen-T/F 1926 04-10-2010 01:18:07 17.2 C 9.67 g/m*3 17.2 C 0 km/h
1927 04-10-2010 01:30:07 17.2 C 9.52 g/m*3 17.2 C 0 km/h
1928 04-10-2010 01:42:07 17.2 C 9.52 g/m*3 17.2 C 0 km/h
1929 04-10-2010 01:54:07 17.1 C 9.46 g/m*3 17.1 C 0 km/h
1930 04-10-2010 02:06:07 17 C 9.55 g/m*3 17 C 0 km/h
1931 04-10-2010 02:18:07 16.9 C 9.64 g/m*3 16.9 C 0 km/h
1932 04-10-2010 02:30:07 16.8 C 9.72 g/m*3 16.8 C 0 km/h
1933 04-10-2010 02:42:07 16.8 C 9.58 g/m*3 16.8 C 0 km/h
1934 04-10-2010 02:54:07 16.6 C 9.75 g/m*3 16.6 C 0 km/h
1935 04-10-2010 03:06:07 16.4 C 9.77 g/m*3 16.4 C 0 km/h
1936 04-10-2010 03:18:07 15.9 C 10.02 g/m*3 15.9 C 0 km/h
1937 04-10-2010 03:30:08 15.6 C 9.97 g/m*3 15.6 C 0 km/h
1938 04-10-2010 03:42:08 15.5 C 10.05 g/m*3 15.5 C 0 km/h
1939 04-10-2010 03:54:08 15.4 C 9.99 g/m*3 15.4 C 0 km/h
1940 04-10-2010 04:06:08 15.3 C 9.92 g/m*3 15.3 C 0 km/h
1941 04-10-2010 04:18:08 15.2 C 9.99 g/m*3 15.2 C 0 km/h
1942 04-10-2010 04:30:08 15.2 C 9.99 g/m*3 15.2 C 0 km/h
1943 04-10-2010 04:42:08 15 C 10 g/m*3 15 C 0 km/h
1944 04-10-2010 04:54:08 14.8 C 10.01 g/m*3 14.8 C 0 km/h
1945 04-10-2010 05:06:08 14.6 C 10.01 g/m*3 14.6 C 0 km/h
1946 04-10-2010 05:18:08 14.4 C 9.89 g/m*3 14.4 C 0 km/h
1947 04-10-2010 05:30:08 14.3 C 9.95 g/m*3 14.3 C 0 km/h
1948 04-10-2010 05:42:08 14.1 C 9.95 g/m*3 14.1 C 0 km/h
1949 04-10-2010 05:54:08 14.1 C 9.95 g/m*3 14.1 C 0 km/h
1950 04-10-2010 06:06:08 14.2 C 10.01 g/m*3 14.2 C 0 km/h
Sensor: Nr:Datum:Temp:Abs-Feuchte:Windchill:Wind:
Aussen-T/F 1951 04-10-2010 06:18:08 13.9 C 10.07 g/m*3 13.9 C 0 km/h
1952 04-10-2010 06:30:08 14 C 9.89 g/m*3 14 C 0 km/h
1953 04-10-2010 06:42:08 13.8 C 9.89 g/m*3 13.8 C 0 km/h
1954 04-10-2010 06:54:08 13.7 C 9.83 g/m*3 13.7 C 0 km/h
1955 04-10-2010 07:06:03 13.8 C 10.01 g/m*3 13.8 C 0 km/h
1956 04-10-2010 07:18:02 13.7 C 9.83 g/m*3 13.7 C 0 km/h
1957 04-10-2010 07:30:02 13.5 C 9.71 g/m*3 13.5 C 0 km/h
1958 04-10-2010 07:42:03 13.5 C 9.71 g/m*3 13.5 C 0 km/h
1959 04-10-2010 07:54:02 13.6 C 9.89 g/m*3 13.6 C 0 km/h
1960 04-10-2010 08:06:02 13.8 C 9.89 g/m*3 13.8 C 0 km/h
1961 04-10-2010 08:18:02 14.1 C 9.95 g/m*3 14.1 C 0 km/h
1962 04-10-2010 08:30:02 14.3 C 9.83 g/m*3 14.3 C 0 km/h
1963 04-10-2010 08:42:03 14.4 C 9.64 g/m*3 14.4 C 0 km/h
1964 04-10-2010 08:54:02 14.7 C 9.69 g/m*3 14.7 C 0 km/h
1965 04-10-2010 09:06:02 14.9 C 9.56 g/m*3 14.9 C 0 km/h
1966 04-10-2010 09:18:02 15 C 9.23 g/m*3 15 C 0 km/h
1967 04-10-2010 09:30:02 15 C 9.1 g/m*3 15 C 0 km/h
1968 04-10-2010 09:42:02 15 C 9.1 g/m*3 15 C 0 km/h
1969 04-10-2010 09:54:02 15.1 C 9.16 g/m*3 15.1 C 0 km/h
1970 04-10-2010 10:06:02 15.2 C 9.09 g/m*3 15.2 C 0 km/h
1971 04-10-2010 10:18:02 15.3 C 9.01 g/m*3 15.3 C 0 km/h
1972 04-10-2010 10:30:02 15.4 C 9.07 g/m*3 15.4 C 0 km/h
1973 04-10-2010 10:42:02 16 C 8.86 g/m*3 16 C 0 km/h
1974 04-10-2010 10:54:01 16.4 C 8.79 g/m*3 16.4 C 0 km/h
1975 04-10-2010 11:06:02 17.1 C 8.88 g/m*3 17.1 C 0 km/h
Sensor: Nr:Datum:Temp:Abs-Feuchte:Windchill:Wind:
Aussen-T/F 1976 04-10-2010 11:18:01 17.1 C 8.88 g/m*3 17.1 C 0 km/h
1977 04-10-2010 11:30:01 17.6 C 9 g/m*3 17.6 C 0 km/h
1978 04-10-2010 11:42:01 18 C 8.91 g/m*3 18 C 0 km/h
1979 04-10-2010 11:54:01 18.3 C 8.91 g/m*3 18.3 C 0 km/h
1980 04-10-2010 12:06:01 18.5 C 8.86 g/m*3 18.5 C 0 km/h
1981 04-10-2010 12:18:02 18 C 8.91 g/m*3 18 C 0 km/h
1982 04-10-2010 12:30:02 17.8 C 8.8 g/m*3 17.8 C 0 km/h
1983 04-10-2010 12:42:01 17.5 C 8.65 g/m*3 17.5 C 0 km/h
1984 04-10-2010 12:54:02 17.4 C 8.6 g/m*3 17.4 C 0 km/h
1985 04-10-2010 13:06:01 17.9 C 8.7 g/m*3 17.9 C 0 km/h
1986 04-10-2010 13:18:02 18.3 C 8.6 g/m*3 18.3 C 0 km/h
1987 04-10-2010 13:30:02 18.9 C 8.59 g/m*3 18.9 C 0 km/h
1988 04-10-2010 13:42:01 19.1 C 8.52 g/m*3 19.1 C 0 km/h
1989 04-10-2010 13:54:02 19.4 C 8.68 g/m*3 19.4 C 0 km/h
1990 04-10-2010 14:06:02 19.3 C 8.63 g/m*3 19.3 C 0 km/h
1991 04-10-2010 14:18:02 19.5 C 8.73 g/m*3 19.5 C 0 km/h
1992 04-10-2010 14:30:02 19.7 C 8.66 g/m*3 19.7 C 0 km/h
1993 04-10-2010 14:42:02 19.9 C 8.59 g/m*3 19.9 C 0 km/h
1994 04-10-2010 14:54:02 20.4 C 9.02 g/m*3 20.4 C 0 km/h
1995 04-10-2010 15:06:01 21.2 C 8.9 g/m*3 21.2 C 0 km/h
1996 04-10-2010 15:18:02 22.3 C 8.29 g/m*3 22.3 C 0 km/h
1997 04-10-2010 15:30:02 22.7 C 8.69 g/m*3 22.7 C 0 km/h
1998 04-10-2010 15:42:02 23 C 8.63 g/m*3 23 C 0 km/h
1999 04-10-2010 15:54:02 23.3 C 8.57 g/m*3 23.3 C 0 km/h
2000 04-10-2010 16:06:02 23.1 C 8.27 g/m*3 23.1 C 0 km/h
Sensor: Nr:Datum:Temp:Abs-Feuchte:Windchill:Wind:
Aussen-T/F 2001 04-10-2010 16:18:02 23.4 C 8.2 g/m*3 23.4 C 0 km/h
2002 04-10-2010 16:30:02 23.9 C 8.44 g/m*3 23.9 C 0 km/h
2003 04-10-2010 16:42:02 23.9 C 8 g/m*3 23.9 C 0 km/h
2004 04-10-2010 16:54:01 23.9 C 8.22 g/m*3 23.9 C 0 km/h
2005 04-10-2010 17:06:02 23.3 C 8.15 g/m*3 23.3 C 0 km/h
2006 04-10-2010 17:18:01 22 C 8.54 g/m*3 22 C 0 km/h
2007 04-10-2010 17:30:01 20.4 C 9.38 g/m*3 20.4 C 0 km/h
2008 04-10-2010 17:42:01 19.5 C 9.73 g/m*3 19.5 C 0 km/h
2009 04-10-2010 17:54:01 20.5 C 9.61 g/m*3 20.5 C 0 km/h
2010 04-10-2010 18:06:02 20.2 C 9.44 g/m*3 20.2 C 0 km/h
2011 04-10-2010 18:18:02 19.5 C 9.57 g/m*3 19.5 C 0 km/h
2012 04-10-2010 18:30:02 18.7 C 9.61 g/m*3 18.7 C 0 km/h
2013 04-10-2010 18:42:01 17.8 C 9.71 g/m*3 17.8 C 0 km/h
2014 04-10-2010 18:54:01 17.2 C 9.81 g/m*3 17.2 C 0 km/h
2015 04-10-2010 19:06:01 16.9 C 10.07 g/m*3 16.9 C 0 km/h
2016 04-10-2010 19:18:02 16.8 C 10.15 g/m*3 16.8 C 0 km/h
2017 04-10-2010 19:30:02 16.5 C 10.11 g/m*3 16.5 C 0 km/h
2018 04-10-2010 19:42:01 16.2 C 10.07 g/m*3 16.2 C 0 km/h
2019 04-10-2010 19:54:03 16.2 C 10.07 g/m*3 16.2 C 0 km/h
2020 04-10-2010 20:06:02 16.4 C 10.19 g/m*3 16.4 C 0 km/h
2021 04-10-2010 20:18:02 16.5 C 10.11 g/m*3 16.5 C 0 km/h
2022 04-10-2010 20:30:03 16.4 C 10.05 g/m*3 16.4 C 0 km/h
2023 04-10-2010 20:42:02 16.1 C 9.87 g/m*3 16.1 C 0 km/h
2024 04-10-2010 20:54:02 15.7 C 9.9 g/m*3 15.7 C 0 km/h
2025 04-10-2010 21:06:01 15.6 C 9.97 g/m*3 15.6 C 0 km/h
Sensor: Nr:Datum:Temp:Abs-Feuchte:Windchill:Wind:
Aussen-T/F 2026 04-10-2010 21:18:02 15.5 C 10.05 g/m*3 15.5 C 0 km/h
2027 04-10-2010 21:30:02 15.6 C 9.97 g/m*3 15.6 C 0 km/h
2028 04-10-2010 21:42:02 15.4 C 9.85 g/m*3 15.4 C 0 km/h
2029 04-10-2010 21:54:01 15 C 9.87 g/m*3 15 C 0 km/h
2030 04-10-2010 22:06:02 14.8 C 9.88 g/m*3 14.8 C 0 km/h
2031 04-10-2010 22:19:04 14.7 C 9.95 g/m*3 14.7 C 0 km/h
2032 04-10-2010 22:31:04 14.5 C 9.95 g/m*3 14.5 C 0 km/h
2033 04-10-2010 22:43:04 14.5 C 9.95 g/m*3 14.5 C 0 km/h
2034 04-10-2010 22:55:04 14.3 C 9.83 g/m*3 14.3 C 0 km/h
2035 04-10-2010 23:07:04 14.2 C 9.89 g/m*3 14.2 C 0 km/h
2036 04-10-2010 23:19:04 14.2 C 9.89 g/m*3 14.2 C 0 km/h
2037 04-10-2010 23:31:04 14.3 C 9.95 g/m*3 14.3 C 0 km/h
2038 04-10-2010 23:43:05 14.2 C 9.89 g/m*3 14.2 C 0 km/h
2039 04-10-2010 23:55:05 14.1 C 9.95 g/m*3 14.1 C 0 km/h
2040 05-10-2010 00:07:05 14.1 C 9.95 g/m*3 14.1 C 0 km/h
2041 05-10-2010 00:19:05 14.1 C 9.95 g/m*3 14.1 C 0 km/h
2042 05-10-2010 00:31:05 14.2 C 10.01 g/m*3 14.2 C 0 km/h
2043 05-10-2010 00:43:05 14.3 C 10.07 g/m*3 14.3 C 0 km/h
2044 05-10-2010 00:55:05 14.3 C 10.07 g/m*3 14.3 C 0 km/h
2045 05-10-2010 01:07:05 14.2 C 10.01 g/m*3 14.2 C 0 km/h
2046 05-10-2010 01:19:05 14.1 C 9.95 g/m*3 14.1 C 0 km/h
2047 05-10-2010 01:31:05 13.8 C 9.77 g/m*3 13.8 C 0 km/h
2048 05-10-2010 01:43:05 13.8 C 9.89 g/m*3 13.8 C 0 km/h
2049 05-10-2010 01:55:05 13.8 C 9.89 g/m*3 13.8 C 0 km/h
2050 05-10-2010 02:07:05 13.4 C 9.65 g/m*3 13.4 C 0 km/h
Sensor: Nr:Datum:Temp:Abs-Feuchte:Windchill:Wind:
Aussen-T/F 2051 05-10-2010 02:19:05 13.5 C 9.71 g/m*3 13.5 C 0 km/h
2052 05-10-2010 02:31:05 13.5 C 9.83 g/m*3 13.5 C 0 km/h
2053 05-10-2010 02:43:05 13.6 C 10 g/m*3 13.6 C 0 km/h
2054 05-10-2010 02:55:05 13.6 C 10 g/m*3 13.6 C 0 km/h
2055 05-10-2010 03:07:05 13.6 C 10 g/m*3 13.6 C 0 km/h
2056 05-10-2010 03:19:05 13.6 C 10 g/m*3 13.6 C 0 km/h
2057 05-10-2010 03:31:05 13.7 C 10.07 g/m*3 13.7 C 0 km/h
2058 05-10-2010 03:43:05 13.6 C 10 g/m*3 13.6 C 0 km/h
2059 05-10-2010 03:55:06 13.5 C 9.94 g/m*3 13.5 C 0 km/h
2060 05-10-2010 04:07:06 13.5 C 9.94 g/m*3 13.5 C 0 km/h
2061 05-10-2010 04:19:06 13.6 C 10.12 g/m*3 13.6 C 0 km/h
2062 05-10-2010 04:31:06 13.6 C 10.12 g/m*3 13.6 C 0 km/h
2063 05-10-2010 04:43:06 13.6 C 10.12 g/m*3 13.6 C 0 km/h
2064 05-10-2010 04:55:06 13.7 C 10.18 g/m*3 13.7 C 0 km/h
2065 05-10-2010 05:07:06 13.7 C 10.18 g/m*3 13.7 C 0 km/h
2066 05-10-2010 05:19:06 13.7 C 10.18 g/m*3 13.7 C 0 km/h
2067 05-10-2010 05:31:06 13.6 C 10.12 g/m*3 13.6 C 0 km/h
2068 05-10-2010 05:43:06 13.5 C 10.06 g/m*3 13.5 C 0 km/h
2069 05-10-2010 05:55:06 13.5 C 10.18 g/m*3 13.5 C 0 km/h
2070 05-10-2010 06:07:06 13.4 C 10.23 g/m*3 13.4 C 0 km/h
2071 05-10-2010 06:19:06 13.4 C 10.35 g/m*3 13.4 C 0 km/h
2072 05-10-2010 06:31:06 13.4 C 10.35 g/m*3 13.4 C 0 km/h
2073 05-10-2010 06:43:06 13.4 C 10.46 g/m*3 13.4 C 0 km/h
2074 05-10-2010 06:55:06 13.5 C 10.53 g/m*3 13.5 C 0 km/h
2075 05-10-2010 07:07:01 13.4 C 10.46 g/m*3 13.4 C 0 km/h
Sensor: Nr:Datum:Temp:Abs-Feuchte:Windchill:Wind:
Aussen-T/F 2076 05-10-2010 07:19:02 13.4 C 10.58 g/m*3 13.4 C 0 km/h
2077 05-10-2010 07:31:02 13.4 C 10.58 g/m*3 13.4 C 0 km/h
2078 05-10-2010 07:43:02 13.4 C 10.58 g/m*3 13.4 C 0 km/h
2079 05-10-2010 07:55:02 13.4 C 10.58 g/m*3 13.4 C 0 km/h
2080 05-10-2010 08:07:02 13.4 C 10.58 g/m*3 13.4 C 0 km/h
2081 05-10-2010 08:19:02 13.2 C 10.45 g/m*3 13.2 C 0 km/h
2082 05-10-2010 08:31:02 13.1 C 10.38 g/m*3 13.1 C 0 km/h
2083 05-10-2010 08:43:02 13 C 10.32 g/m*3 13 C 0 km/h
2084 05-10-2010 08:55:02 13 C 10.32 g/m*3 13 C 0 km/h
2085 05-10-2010 09:07:02 13 C 10.43 g/m*3 13 C 0 km/h
2086 05-10-2010 09:19:02 13.2 C 10.56 g/m*3 13.2 C 0 km/h
2087 05-10-2010 09:31:01 13.4 C 10.69 g/m*3 13.4 C 0 km/h
2088 05-10-2010 09:43:01 13.4 C 10.81 g/m*3 13.4 C 0 km/h
2089 05-10-2010 09:55:02 13.5 C 10.88 g/m*3 13.5 C 0 km/h
2090 05-10-2010 10:07:01 13.8 C 11.08 g/m*3 13.8 C 0 km/h
2091 05-10-2010 10:19:02 14.3 C 11.43 g/m*3 14.3 C 0 km/h
2092 05-10-2010 10:31:02 14.7 C 11.83 g/m*3 14.7 C 0 km/h
2093 05-10-2010 10:43:02 15.2 C 12.07 g/m*3 15.2 C 0 km/h
2094 05-10-2010 10:55:02 16 C 12.67 g/m*3 16 C 0 km/h
2095 05-10-2010 11:07:02 17.2 C 13.62 g/m*3 17.2 C 0 km/h
2096 05-10-2010 11:19:02 17.3 C 13.7 g/m*3 17.3 C 0 km/h
2097 05-10-2010 11:31:02 17.4 C 13.34 g/m*3 17.4 C 0 km/h
2098 05-10-2010 11:43:02 17.3 C 12.37 g/m*3 17.3 C 0 km/h
2099 05-10-2010 11:55:01 18.2 C 11.97 g/m*3 18.2 C 0 km/h
2100 05-10-2010 12:07:02 18.3 C 11.73 g/m*3 18.3 C 0 km/h
Sensor: Nr:Datum:Temp:Abs-Feuchte:Windchill:Wind:
Aussen-T/F 2101 05-10-2010 12:19:02 17.9 C 11.45 g/m*3 17.9 C 0 km/h
2102 05-10-2010 12:31:01 18 C 11.37 g/m*3 18 C 0 km/h
2103 05-10-2010 12:43:01 17.9 C 11.3 g/m*3 17.9 C 0 km/h
2104 05-10-2010 12:55:02 18.4 C 11.32 g/m*3 18.4 C 0 km/h
2105 05-10-2010 13:07:01 18.7 C 11.37 g/m*3 18.7 C 0 km/h
2106 05-10-2010 13:19:02 18.9 C 11.18 g/m*3 18.9 C 0 km/h
2107 05-10-2010 13:31:01 19 C 11.08 g/m*3 19 C 0 km/h
2108 05-10-2010 13:43:01 19.3 C 11.44 g/m*3 19.3 C 0 km/h
2109 05-10-2010 13:55:02 20 C 11.06 g/m*3 20 C 0 km/h
2110 05-10-2010 14:07:02 19.9 C 10.31 g/m*3 19.9 C 0 km/h
2111 05-10-2010 14:19:02 19.5 C 10.57 g/m*3 19.5 C 0 km/h
2112 05-10-2010 14:31:02 19.6 C 10.8 g/m*3 19.6 C 0 km/h
2113 05-10-2010 14:43:02 18.7 C 11.05 g/m*3 18.7 C 0 km/h
2114 05-10-2010 14:55:02 18.6 C 11.94 g/m*3 18.6 C 0 km/h
2115 05-10-2010 15:07:01 19 C 12.22 g/m*3 19 C 0 km/h
2116 05-10-2010 15:19:02 17.9 C 12.06 g/m*3 17.9 C 0 km/h
2117 05-10-2010 15:31:02 18.3 C 12.51 g/m*3 18.3 C 0 km/h
2118 05-10-2010 15:43:02 19.3 C 13.27 g/m*3 19.3 C 0 km/h
2119 05-10-2010 15:55:01 19.5 C 13.09 g/m*3 19.5 C 0 km/h
2120 05-10-2010 16:07:02 19 C 12.55 g/m*3 19 C 0 km/h
2121 05-10-2010 16:19:01 18.7 C 12.65 g/m*3 18.7 C 0 km/h
2122 05-10-2010 16:31:02 18.4 C 12.43 g/m*3 18.4 C 0 km/h
2123 05-10-2010 16:43:02 18.3 C 12.51 g/m*3 18.3 C 0 km/h
2124 05-10-2010 16:55:02 18.1 C 12.21 g/m*3 18.1 C 0 km/h
2125 05-10-2010 17:07:02 17.7 C 11.92 g/m*3 17.7 C 0 km/h
Sensor: Nr:Datum:Temp:Abs-Feuchte:Windchill:Wind:
Aussen-T/F 2126 05-10-2010 17:19:01 17.2 C 11.42 g/m*3 17.2 C 0 km/h
2127 05-10-2010 17:31:02 16.8 C 11.58 g/m*3 16.8 C 0 km/h
2128 05-10-2010 17:43:02 16.8 C 11.72 g/m*3 16.8 C 0 km/h
2129 05-10-2010 17:55:02 17 C 11.72 g/m*3 17 C 0 km/h
2130 05-10-2010 18:07:02 17.1 C 11.65 g/m*3 17.1 C 0 km/h
2131 05-10-2010 18:19:02 17.1 C 11.65 g/m*3 17.1 C 0 km/h
2132 05-10-2010 18:31:02 17.1 C 11.35 g/m*3 17.1 C 0 km/h
2133 05-10-2010 18:43:02 17 C 11.29 g/m*3 17 C 0 km/h
2134 05-10-2010 18:55:02 16.8 C 11.29 g/m*3 16.8 C 0 km/h
2135 05-10-2010 19:07:02 16.6 C 11.3 g/m*3 16.6 C 0 km/h
2136 05-10-2010 19:19:03 16.5 C 11.23 g/m*3 16.5 C 0 km/h
2137 05-10-2010 19:31:02 16.5 C 11.37 g/m*3 16.5 C 0 km/h
2138 05-10-2010 19:43:02 17.3 C 11.64 g/m*3 17.3 C 0 km/h
2139 05-10-2010 19:55:02 16.4 C 11.03 g/m*3 16.4 C 0 km/h
2140 05-10-2010 20:07:02 16.4 C 11.03 g/m*3 16.4 C 0 km/h
2141 05-10-2010 20:19:02 16.4 C 11.03 g/m*3 16.4 C 0 km/h
2142 05-10-2010 20:31:02 16.4 C 11.03 g/m*3 16.4 C 0 km/h
2143 05-10-2010 20:43:02 16.3 C 10.96 g/m*3 16.3 C 0 km/h
2144 05-10-2010 20:55:02 16.3 C 10.68 g/m*3 16.3 C 0 km/h
2145 05-10-2010 21:07:02 16.1 C 10.55 g/m*3 16.1 C 0 km/h
2146 05-10-2010 21:19:02 16 C 10.35 g/m*3 16 C 0 km/h
2147 05-10-2010 21:31:01 15.6 C 10.24 g/m*3 15.6 C 0 km/h
2148 05-10-2010 21:43:01 15.4 C 10.12 g/m*3 15.4 C 0 km/h
2149 05-10-2010 21:55:02 15.3 C 10.06 g/m*3 15.3 C 0 km/h
2150 05-10-2010 22:07:01 15.2 C 9.99 g/m*3 15.2 C 0 km/h
Sensor: Nr:Datum:Temp:Abs-Feuchte:Windchill:Wind:
Aussen-T/F 2151 05-10-2010 22:19:02 15.3 C 9.92 g/m*3 15.3 C 0 km/h
2152 05-10-2010 22:31:01 15.4 C 9.99 g/m*3 15.4 C 0 km/h
2153 05-10-2010 22:43:01 15.2 C 9.99 g/m*3 15.2 C 0 km/h
2154 05-10-2010 22:55:02 15.4 C 9.99 g/m*3 15.4 C 0 km/h
2155 05-10-2010 23:07:01 15.6 C 9.97 g/m*3 15.6 C 0 km/h
2156 05-10-2010 23:19:02 15.6 C 9.97 g/m*3 15.6 C 0 km/h
2157 05-10-2010 23:31:01 15.6 C 9.97 g/m*3 15.6 C 0 km/h
2158 05-10-2010 23:43:01 15.6 C 9.97 g/m*3 15.6 C 0 km/h
2159 05-10-2010 23:55:02 15.6 C 9.97 g/m*3 15.6 C 0 km/h
2160 06-10-2010 00:07:01 15.6 C 9.97 g/m*3 15.6 C 0 km/h
2161 06-10-2010 00:19:02 15.6 C 9.97 g/m*3 15.6 C 0 km/h
2162 06-10-2010 00:31:01 15.6 C 9.97 g/m*3 15.6 C 0 km/h
2163 06-10-2010 00:43:01 15.6 C 9.97 g/m*3 15.6 C 0 km/h
2164 06-10-2010 00:55:02 15.6 C 9.97 g/m*3 15.6 C 0 km/h
2165 06-10-2010 01:07:02 15.5 C 9.91 g/m*3 15.5 C 0 km/h
2166 06-10-2010 01:19:02 15.5 C 9.91 g/m*3 15.5 C 0 km/h
2167 06-10-2010 01:31:03 15.5 C 10.05 g/m*3 15.5 C 0 km/h
2168 06-10-2010 01:43:03 15.5 C 10.05 g/m*3 15.5 C 0 km/h
2169 06-10-2010 01:55:02 15.5 C 10.05 g/m*3 15.5 C 0 km/h
2170 06-10-2010 02:07:01 15.5 C 10.05 g/m*3 15.5 C 0 km/h
2171 06-10-2010 02:19:02 15.5 C 10.18 g/m*3 15.5 C 0 km/h
2172 06-10-2010 02:31:02 15.4 C 10.25 g/m*3 15.4 C 0 km/h
2173 06-10-2010 02:43:02 15.4 C 10.25 g/m*3 15.4 C 0 km/h
2174 06-10-2010 02:55:01 15.4 C 10.12 g/m*3 15.4 C 0 km/h
2175 06-10-2010 03:07:01 15.3 C 10.19 g/m*3 15.3 C 0 km/h
Sensor: Nr:Datum:Temp:Abs-Feuchte:Windchill:Wind:
Aussen-T/F 2176 06-10-2010 03:19:02 15.3 C 10.06 g/m*3 15.3 C 0 km/h
2177 06-10-2010 03:31:01 15.3 C 10.06 g/m*3 15.3 C 0 km/h
2178 06-10-2010 03:43:02 15.3 C 10.06 g/m*3 15.3 C 0 km/h
2179 06-10-2010 03:55:02 15.2 C 10.12 g/m*3 15.2 C 0 km/h
2180 06-10-2010 04:07:01 15.2 C 10.12 g/m*3 15.2 C 0 km/h
2181 06-10-2010 04:19:01 15.2 C 10.12 g/m*3 15.2 C 0 km/h
2182 06-10-2010 04:31:02 15.1 C 10.06 g/m*3 15.1 C 0 km/h
2183 06-10-2010 04:43:02 15 C 10 g/m*3 15 C 0 km/h
2184 06-10-2010 04:55:01 15 C 10.13 g/m*3 15 C 0 km/h
2185 06-10-2010 05:07:02 14.9 C 10.2 g/m*3 14.9 C 0 km/h
2186 06-10-2010 05:19:01 15 C 10.13 g/m*3 15 C 0 km/h
2187 06-10-2010 05:31:02 14.9 C 10.32 g/m*3 14.9 C 0 km/h
2188 06-10-2010 05:43:02 14.9 C 10.32 g/m*3 14.9 C 0 km/h
2189 06-10-2010 05:55:01 14.9 C 10.32 g/m*3 14.9 C 0 km/h
2190 06-10-2010 06:07:02 14.8 C 10.26 g/m*3 14.8 C 0 km/h
2191 06-10-2010 06:19:01 14.9 C 10.32 g/m*3 14.9 C 0 km/h
2192 06-10-2010 06:31:01 14.8 C 10.01 g/m*3 14.8 C 0 km/h
2193 06-10-2010 06:43:01 14.8 C 10.01 g/m*3 14.8 C 0 km/h
2194 06-10-2010 06:55:01 14.8 C 9.88 g/m*3 14.8 C 0 km/h
2195 06-10-2010 07:07:01 14.7 C 9.82 g/m*3 14.7 C 0 km/h
2196 06-10-2010 07:19:01 14.7 C 9.95 g/m*3 14.7 C 0 km/h
2197 06-10-2010 07:31:01 14.7 C 9.95 g/m*3 14.7 C 0 km/h
2198 06-10-2010 07:43:02 14.6 C 10.01 g/m*3 14.6 C 0 km/h
2199 06-10-2010 07:55:02 14.6 C 10.01 g/m*3 14.6 C 0 km/h
2200 06-10-2010 08:07:01 14.5 C 10.07 g/m*3 14.5 C 0 km/h
Sensor: Nr:Datum:Temp:Abs-Feuchte:Windchill:Wind:
Aussen-T/F 2201 06-10-2010 08:19:02 14.3 C 9.95 g/m*3 14.3 C 0 km/h
2202 06-10-2010 08:31:01 14.1 C 9.95 g/m*3 14.1 C 0 km/h
2203 06-10-2010 08:43:01 14.5 C 10.32 g/m*3 14.5 C 0 km/h
2204 06-10-2010 08:55:01 15.2 C 10.64 g/m*3 15.2 C 0 km/h
2205 06-10-2010 09:07:01 15.6 C 10.64 g/m*3 15.6 C 0 km/h
2206 06-10-2010 09:19:02 15.5 C 10.31 g/m*3 15.5 C 0 km/h
2207 06-10-2010 09:31:01 15.3 C 10.06 g/m*3 15.3 C 0 km/h
2208 06-10-2010 09:43:01 15.6 C 9.84 g/m*3 15.6 C 0 km/h
2209 06-10-2010 09:55:02 15.7 C 9.77 g/m*3 15.7 C 0 km/h
2210 06-10-2010 10:07:01 15.9 C 10.16 g/m*3 15.9 C 0 km/h
2211 06-10-2010 10:19:01 16.2 C 9.93 g/m*3 16.2 C 0 km/h
2212 06-10-2010 10:31:01 16.3 C 9.99 g/m*3 16.3 C 0 km/h
2213 06-10-2010 10:43:01 16.4 C 9.63 g/m*3 16.4 C 0 km/h
2214 06-10-2010 10:55:02 16.4 C 9.91 g/m*3 16.4 C 0 km/h
2215 06-10-2010 11:07:01 17.1 C 9.46 g/m*3 17.1 C 0 km/h
2216 06-10-2010 11:19:01 17.2 C 9.37 g/m*3 17.2 C 0 km/h
2217 06-10-2010 11:31:02 17.7 C 9.35 g/m*3 17.7 C 0 km/h
2218 06-10-2010 11:43:02 18.2 C 9.01 g/m*3 18.2 C 0 km/h
2219 06-10-2010 11:55:01 18.6 C 9.07 g/m*3 18.6 C 0 km/h
2220 06-10-2010 12:07:02 18.9 C 8.91 g/m*3 18.9 C 0 km/h
2221 06-10-2010 12:19:01 18.8 C 8.7 g/m*3 18.8 C 0 km/h
2222 06-10-2010 12:31:02 19 C 8.64 g/m*3 19 C 0 km/h
2223 06-10-2010 12:43:02 19.2 C 8.57 g/m*3 19.2 C 0 km/h
2224 06-10-2010 12:55:01 19.3 C 8.63 g/m*3 19.3 C 0 km/h
2225 06-10-2010 13:07:02 19.8 C 8.71 g/m*3 19.8 C 0 km/h
Sensor: Nr:Datum:Temp:Abs-Feuchte:Windchill:Wind:
Aussen-T/F 2226 06-10-2010 13:19:01 20.2 C 8.39 g/m*3 20.2 C 0 km/h
2227 06-10-2010 13:31:01 20.4 C 8.67 g/m*3 20.4 C 0 km/h
2228 06-10-2010 13:43:01 20.3 C 8.27 g/m*3 20.3 C 0 km/h
2229 06-10-2010 13:55:01 20.3 C 8.44 g/m*3 20.3 C 0 km/h
2230 06-10-2010 14:07:01 20.4 C 8.31 g/m*3 20.4 C 0 km/h
2231 06-10-2010 14:19:01 21 C 8.43 g/m*3 21 C 0 km/h
2232 06-10-2010 14:31:01 21.6 C 8.35 g/m*3 21.6 C 0 km/h
2233 06-10-2010 14:43:01 22.2 C 8.25 g/m*3 22.2 C 0 km/h
2234 06-10-2010 14:55:01 22.9 C 7.77 g/m*3 22.9 C 0 km/h
2235 06-10-2010 15:07:01 23.3 C 8.15 g/m*3 23.3 C 0 km/h
2236 06-10-2010 15:19:02 23.4 C 8.41 g/m*3 23.4 C 0 km/h
2237 06-10-2010 15:31:01 23.3 C 8.15 g/m*3 23.3 C 0 km/h
2238 06-10-2010 15:43:01 22.9 C 8.17 g/m*3 22.9 C 0 km/h
2239 06-10-2010 15:55:02 22.4 C 8.34 g/m*3 22.4 C 0 km/h
2240 06-10-2010 16:07:01 22.8 C 8.53 g/m*3 22.8 C 0 km/h
2241 06-10-2010 16:19:02 23.2 C 8.32 g/m*3 23.2 C 0 km/h
2242 06-10-2010 16:31:01 22.8 C 9.14 g/m*3 22.8 C 0 km/h
2243 06-10-2010 16:43:01 22.7 C 9.7 g/m*3 22.7 C 0 km/h
2244 06-10-2010 16:55:02 22.7 C 9.09 g/m*3 22.7 C 0 km/h
2245 06-10-2010 17:07:01 21.9 C 9.84 g/m*3 21.9 C 0 km/h
2246 06-10-2010 17:19:01 21.5 C 10.18 g/m*3 21.5 C 0 km/h
2247 06-10-2010 17:31:02 21.1 C 10.32 g/m*3 21.1 C 0 km/h
2248 06-10-2010 17:43:02 20.7 C 10.26 g/m*3 20.7 C 0 km/h
2249 06-10-2010 17:55:01 20.2 C 10.14 g/m*3 20.2 C 0 km/h
2250 06-10-2010 18:07:01 19.7 C 10.02 g/m*3 19.7 C 0 km/h
Sensor: Nr:Datum:Temp:Abs-Feuchte:Windchill:Wind:
Aussen-T/F 2251 06-10-2010 18:19:01 19.4 C 10.34 g/m*3 19.4 C 0 km/h
2252 06-10-2010 18:31:02 18.9 C 10.21 g/m*3 18.9 C 0 km/h
2253 06-10-2010 18:43:02 18.6 C 10.35 g/m*3 18.6 C 0 km/h
2254 06-10-2010 18:55:01 18.1 C 10.2 g/m*3 18.1 C 0 km/h
2255 06-10-2010 19:07:02 17.9 C 10.23 g/m*3 17.9 C 0 km/h
2256 06-10-2010 19:19:01 17.5 C 10.14 g/m*3 17.5 C 0 km/h
2257 06-10-2010 19:31:01 17.2 C 10.25 g/m*3 17.2 C 0 km/h
2258 06-10-2010 19:43:01 17 C 10.13 g/m*3 17 C 0 km/h
2259 06-10-2010 19:55:01 16.9 C 10.21 g/m*3 16.9 C 0 km/h
2260 06-10-2010 20:07:01 16.9 C 10.07 g/m*3 16.9 C 0 km/h
2261 06-10-2010 20:19:01 17 C 9.98 g/m*3 17 C 0 km/h
2262 06-10-2010 20:31:01 17 C 9.98 g/m*3 17 C 0 km/h
2263 06-10-2010 20:43:01 16.8 C 10.29 g/m*3 16.8 C 0 km/h
2264 06-10-2010 20:55:01 16.8 C 10.29 g/m*3 16.8 C 0 km/h
2265 06-10-2010 21:07:01 16.6 C 10.45 g/m*3 16.6 C 0 km/h
2266 06-10-2010 21:19:02 16.5 C 10.39 g/m*3 16.5 C 0 km/h
2267 06-10-2010 21:31:01 16.4 C 10.47 g/m*3 16.4 C 0 km/h
2268 06-10-2010 21:43:01 16.2 C 10.34 g/m*3 16.2 C 0 km/h
2269 06-10-2010 21:55:02 16.1 C 10.42 g/m*3 16.1 C 0 km/h
2270 06-10-2010 22:07:02 16 C 10.49 g/m*3 16 C 0 km/h
2271 06-10-2010 22:19:01 15.8 C 10.5 g/m*3 15.8 C 0 km/h
2272 06-10-2010 22:31:01 15.8 C 10.63 g/m*3 15.8 C 0 km/h
2273 06-10-2010 22:43:01 15.7 C 10.57 g/m*3 15.7 C 0 km/h
2274 06-10-2010 22:55:01 15.4 C 10.38 g/m*3 15.4 C 0 km/h
2275 06-10-2010 23:07:01 15.2 C 10.38 g/m*3 15.2 C 0 km/h
Sensor: Nr:Datum:Temp:Abs-Feuchte:Windchill:Wind:
Aussen-T/F 2276 06-10-2010 23:19:01 15 C 10.26 g/m*3 15 C 0 km/h
2277 06-10-2010 23:31:01 14.9 C 10.32 g/m*3 14.9 C 0 km/h
2278 06-10-2010 23:43:01 14.8 C 10.39 g/m*3 14.8 C 0 km/h
2279 06-10-2010 23:55:01 14.6 C 10.26 g/m*3 14.6 C 0 km/h
2280 07-10-2010 00:07:01 14.5 C 10.2 g/m*3 14.5 C 0 km/h
2281 07-10-2010 00:19:01 14.3 C 10.2 g/m*3 14.3 C 0 km/h
2282 07-10-2010 00:31:02 14.2 C 10.14 g/m*3 14.2 C 0 km/h
2283 07-10-2010 00:43:02 14.1 C 10.19 g/m*3 14.1 C 0 km/h
2284 07-10-2010 00:55:01 14 C 10.13 g/m*3 14 C 0 km/h
2285 07-10-2010 01:07:01 14 C 10.25 g/m*3 14 C 0 km/h
2286 07-10-2010 01:19:01 14.4 C 10.63 g/m*3 14.4 C 0 km/h
2287 07-10-2010 01:31:02 14.3 C 10.57 g/m*3 14.3 C 0 km/h
2288 07-10-2010 01:43:02 14.2 C 10.5 g/m*3 14.2 C 0 km/h
2289 07-10-2010 01:55:01 14.3 C 10.57 g/m*3 14.3 C 0 km/h
2290 07-10-2010 02:07:02 14.3 C 10.57 g/m*3 14.3 C 0 km/h
2291 07-10-2010 02:19:01 14.2 C 10.38 g/m*3 14.2 C 0 km/h
2292 07-10-2010 02:31:01 14.2 C 10.38 g/m*3 14.2 C 0 km/h
2293 07-10-2010 02:43:01 14.3 C 10.44 g/m*3 14.3 C 0 km/h
2294 07-10-2010 02:55:01 14.2 C 10.38 g/m*3 14.2 C 0 km/h
2295 07-10-2010 03:07:01 14.2 C 10.38 g/m*3 14.2 C 0 km/h
2296 07-10-2010 03:19:02 14.2 C 10.38 g/m*3 14.2 C 0 km/h
2297 07-10-2010 03:31:01 14 C 10.25 g/m*3 14 C 0 km/h
2298 07-10-2010 03:43:01 14 C 10.37 g/m*3 14 C 0 km/h
2299 07-10-2010 03:55:01 14 C 10.37 g/m*3 14 C 0 km/h
2300 07-10-2010 04:07:02 14.5 C 10.7 g/m*3 14.5 C 0 km/h
Sensor: Nr:Datum:Temp:Abs-Feuchte:Windchill:Wind:
Aussen-T/F 2301 07-10-2010 04:19:01 13.9 C 10.43 g/m*3 13.9 C 0 km/h
2302 07-10-2010 04:31:01 13.9 C 10.43 g/m*3 13.9 C 0 km/h
2303 07-10-2010 04:43:01 13.5 C 10.06 g/m*3 13.5 C 0 km/h
2304 07-10-2010 04:55:01 13.3 C 9.94 g/m*3 13.3 C 0 km/h
2305 07-10-2010 05:07:01 13.1 C 9.93 g/m*3 13.1 C 0 km/h
2306 07-10-2010 05:20:01 13 C 9.87 g/m*3 13 C 0 km/h
2307 07-10-2010 05:31:01 13.1 C 10.04 g/m*3 13.1 C 0 km/h
2308 07-10-2010 05:43:01 13.6 C 10.47 g/m*3 13.6 C 0 km/h
2309 07-10-2010 05:56:01 13.7 C 10.54 g/m*3 13.7 C 0 km/h
2310 07-10-2010 06:07:01 13.8 C 10.48 g/m*3 13.8 C 0 km/h
2311 07-10-2010 06:19:02 13.8 C 10.48 g/m*3 13.8 C 0 km/h
2312 07-10-2010 06:32:01 13.8 C 10.48 g/m*3 13.8 C 0 km/h
2313 07-10-2010 06:44:01 13.9 C 10.55 g/m*3 13.9 C 0 km/h
2314 07-10-2010 06:55:02 13.9 C 10.55 g/m*3 13.9 C 0 km/h
2315 07-10-2010 07:08:01 13.8 C 10.48 g/m*3 13.8 C 0 km/h
2316 07-10-2010 07:20:01 14 C 10.49 g/m*3 14 C 0 km/h
2317 07-10-2010 07:31:02 14.1 C 10.56 g/m*3 14.1 C 0 km/h
2318 07-10-2010 07:43:02 14.4 C 10.75 g/m*3 14.4 C 0 km/h
2319 07-10-2010 07:56:01 14.3 C 10.69 g/m*3 14.3 C 0 km/h
2320 07-10-2010 08:08:01 14.4 C 10.75 g/m*3 14.4 C 0 km/h
2321 07-10-2010 08:20:01 14.6 C 10.89 g/m*3 14.6 C 0 km/h
2322 07-10-2010 08:32:02 14.7 C 10.95 g/m*3 14.7 C 0 km/h
2323 07-10-2010 08:44:02 14.8 C 11.02 g/m*3 14.8 C 0 km/h
2324 07-10-2010 08:56:01 14.8 C 10.89 g/m*3 14.8 C 0 km/h
2325 07-10-2010 09:08:02 14.8 C 10.77 g/m*3 14.8 C 0 km/h
Sensor: Nr:Datum:Temp:Abs-Feuchte:Windchill:Wind:
Aussen-T/F 2326 07-10-2010 09:20:01 14.7 C 10.45 g/m*3 14.7 C 0 km/h
2327 07-10-2010 09:32:01 14.8 C 10.51 g/m*3 14.8 C 0 km/h
2328 07-10-2010 09:44:01 15.3 C 10.71 g/m*3 15.3 C 0 km/h
2329 07-10-2010 09:56:01 15.7 C 10.57 g/m*3 15.7 C 0 km/h
2330 07-10-2010 10:08:01 16.2 C 10.48 g/m*3 16.2 C 0 km/h
2331 07-10-2010 10:20:02 16.1 C 10.14 g/m*3 16.1 C 0 km/h
2332 07-10-2010 10:32:01 16.2 C 10.34 g/m*3 16.2 C 0 km/h
2333 07-10-2010 10:44:01 16.2 C 10.34 g/m*3 16.2 C 0 km/h
2334 07-10-2010 10:56:01 16.2 C 10.34 g/m*3 16.2 C 0 km/h
2335 07-10-2010 11:08:01 16.7 C 10.52 g/m*3 16.7 C 0 km/h
2336 07-10-2010 11:20:02 17.1 C 10.34 g/m*3 17.1 C 0 km/h
2337 07-10-2010 11:32:01 17.3 C 10.31 g/m*3 17.3 C 0 km/h
2338 07-10-2010 11:44:01 17.4 C 10.08 g/m*3 17.4 C 0 km/h
2339 07-10-2010 11:56:02 17.8 C 10.32 g/m*3 17.8 C 0 km/h
2340 07-10-2010 12:08:01 18.1 C 9.89 g/m*3 18.1 C 0 km/h
2341 07-10-2010 12:20:01 18.3 C 10.01 g/m*3 18.3 C 0 km/h
2342 07-10-2010 12:32:02 18.3 C 10.01 g/m*3 18.3 C 0 km/h
2343 07-10-2010 12:44:02 18.7 C 10.09 g/m*3 18.7 C 0 km/h
2344 07-10-2010 12:56:01 18.6 C 9.87 g/m*3 18.6 C 0 km/h
2345 07-10-2010 13:08:02 18.8 C 10.15 g/m*3 18.8 C 0 km/h
2346 07-10-2010 13:20:01 19.2 C 10.06 g/m*3 19.2 C 0 km/h
2347 07-10-2010 13:32:02 19.3 C 9.62 g/m*3 19.3 C 0 km/h
2348 07-10-2010 13:44:02 19.5 C 9.73 g/m*3 19.5 C 0 km/h
2349 07-10-2010 13:56:01 19.5 C 9.57 g/m*3 19.5 C 0 km/h
2350 07-10-2010 14:08:02 19.7 C 9.85 g/m*3 19.7 C 0 km/h
Sensor: Nr:Datum:Temp:Abs-Feuchte:Windchill:Wind:
Aussen-T/F 2351 07-10-2010 14:20:01 19.8 C 9.91 g/m*3 19.8 C 0 km/h
2352 07-10-2010 14:32:01 19.7 C 9.68 g/m*3 19.7 C 0 km/h
2353 07-10-2010 14:44:01 19.9 C 9.79 g/m*3 19.9 C 0 km/h
2354 07-10-2010 14:56:01 20.3 C 9.67 g/m*3 20.3 C 0 km/h
2355 07-10-2010 15:08:01 20.5 C 9.43 g/m*3 20.5 C 0 km/h
2356 07-10-2010 15:20:01 20.8 C 9.6 g/m*3 20.8 C 0 km/h
2357 07-10-2010 15:32:01 20.7 C 9.54 g/m*3 20.7 C 0 km/h
2358 07-10-2010 15:44:01 20.4 C 9.38 g/m*3 20.4 C 0 km/h
2359 07-10-2010 15:56:01 20.1 C 9.56 g/m*3 20.1 C 0 km/h
2360 07-10-2010 16:08:01 20 C 9.68 g/m*3 20 C 0 km/h
2361 07-10-2010 16:20:02 20.4 C 9.55 g/m*3 20.4 C 0 km/h
2362 07-10-2010 16:32:01 20.1 C 9.39 g/m*3 20.1 C 0 km/h
2363 07-10-2010 16:44:01 19.6 C 9.45 g/m*3 19.6 C 0 km/h
2364 07-10-2010 16:56:02 19.6 C 9.28 g/m*3 19.6 C 0 km/h
2365 07-10-2010 17:08:01 19.6 C 9.45 g/m*3 19.6 C 0 km/h
2366 07-10-2010 17:20:01 19.3 C 9.45 g/m*3 19.3 C 0 km/h
2367 07-10-2010 17:32:02 19.2 C 9.56 g/m*3 19.2 C 0 km/h
2368 07-10-2010 17:44:02 19 C 9.45 g/m*3 19 C 0 km/h
2369 07-10-2010 17:56:01 18.7 C 9.93 g/m*3 18.7 C 0 km/h
2370 07-10-2010 18:08:02 18.3 C 10.01 g/m*3 18.3 C 0 km/h
2371 07-10-2010 18:20:01 18.1 C 10.2 g/m*3 18.1 C 0 km/h
2372 07-10-2010 18:32:02 17.9 C 10.23 g/m*3 17.9 C 0 km/h
2373 07-10-2010 18:44:02 17.7 C 10.26 g/m*3 17.7 C 0 km/h
2374 07-10-2010 18:56:01 17.4 C 10.37 g/m*3 17.4 C 0 km/h
2375 07-10-2010 19:08:02 17.1 C 10.34 g/m*3 17.1 C 0 km/h
Sensor: Nr:Datum:Temp:Abs-Feuchte:Windchill:Wind:
Aussen-T/F 2376 07-10-2010 19:20:01 17 C 10.42 g/m*3 17 C 0 km/h
2377 07-10-2010 19:32:01 16.8 C 10.44 g/m*3 16.8 C 0 km/h
2378 07-10-2010 19:44:01 17 C 10.42 g/m*3 17 C 0 km/h
2379 07-10-2010 19:56:01 16.6 C 10.31 g/m*3 16.6 C 0 km/h
2380 07-10-2010 20:08:01 16.5 C 10.39 g/m*3 16.5 C 0 km/h
2381 07-10-2010 20:20:02 16.4 C 10.33 g/m*3 16.4 C 0 km/h
2382 07-10-2010 20:32:01 16.2 C 10.34 g/m*3 16.2 C 0 km/h
2383 07-10-2010 20:44:01 16.2 C 10.34 g/m*3 16.2 C 0 km/h
2384 07-10-2010 20:56:02 16.2 C 10.34 g/m*3 16.2 C 0 km/h
2385 07-10-2010 21:08:01 16.3 C 10.13 g/m*3 16.3 C 0 km/h
2386 07-10-2010 21:20:02 16.3 C 10.27 g/m*3 16.3 C 0 km/h
2387 07-10-2010 21:32:01 16.2 C 10.2 g/m*3 16.2 C 0 km/h
2388 07-10-2010 21:44:01 16.2 C 10.07 g/m*3 16.2 C 0 km/h
2389 07-10-2010 21:56:02 16.1 C 10.01 g/m*3 16.1 C 0 km/h
2390 07-10-2010 22:08:01 16 C 9.95 g/m*3 16 C 0 km/h
2391 07-10-2010 22:20:02 16 C 9.95 g/m*3 16 C 0 km/h
2392 07-10-2010 22:32:02 16 C 9.95 g/m*3 16 C 0 km/h
2393 07-10-2010 22:44:02 16 C 9.81 g/m*3 16 C 0 km/h
2394 07-10-2010 22:56:02 16 C 9.67 g/m*3 16 C 0 km/h
2395 07-10-2010 23:08:02 16.1 C 9.73 g/m*3 16.1 C 0 km/h
2396 07-10-2010 23:20:02 16 C 9.67 g/m*3 16 C 0 km/h
2397 07-10-2010 23:32:02 16 C 9.67 g/m*3 16 C 0 km/h
2398 07-10-2010 23:44:02 16 C 9.81 g/m*3 16 C 0 km/h
2399 07-10-2010 23:56:02 16 C 9.81 g/m*3 16 C 0 km/h
2400 08-10-2010 00:08:03 15.8 C 9.83 g/m*3 15.8 C 0 km/h
Sensor: Nr:Datum:Temp:Abs-Feuchte:Windchill:Wind:
Aussen-T/F 2401 08-10-2010 00:20:03 15.9 C 10.02 g/m*3 15.9 C 0 km/h
2402 08-10-2010 00:32:03 15.8 C 9.96 g/m*3 15.8 C 0 km/h
2403 08-10-2010 00:44:03 15.8 C 9.96 g/m*3 15.8 C 0 km/h
2404 08-10-2010 00:56:03 15.8 C 9.69 g/m*3 15.8 C 0 km/h
2405 08-10-2010 01:08:03 15.7 C 9.77 g/m*3 15.7 C 0 km/h
2406 08-10-2010 01:20:03 15.7 C 9.77 g/m*3 15.7 C 0 km/h
2407 08-10-2010 01:32:03 15.6 C 9.71 g/m*3 15.6 C 0 km/h
2408 08-10-2010 01:44:03 15.5 C 9.52 g/m*3 15.5 C 0 km/h
2409 08-10-2010 01:56:03 15.6 C 9.58 g/m*3 15.6 C 0 km/h
2410 08-10-2010 02:08:03 15.6 C 9.58 g/m*3 15.6 C 0 km/h
2411 08-10-2010 02:20:03 15.5 C 9.39 g/m*3 15.5 C 0 km/h
2412 08-10-2010 02:32:03 15.4 C 9.33 g/m*3 15.4 C 0 km/h
2413 08-10-2010 02:44:03 15.4 C 9.33 g/m*3 15.4 C 0 km/h
2414 08-10-2010 02:56:03 15.3 C 9.14 g/m*3 15.3 C 0 km/h
2415 08-10-2010 03:08:03 15.2 C 8.96 g/m*3 15.2 C 0 km/h
2416 08-10-2010 03:20:03 15 C 8.98 g/m*3 15 C 0 km/h
2417 08-10-2010 03:32:03 14.9 C 8.79 g/m*3 14.9 C 0 km/h
2418 08-10-2010 03:44:03 14.8 C 8.49 g/m*3 14.8 C 0 km/h
2419 08-10-2010 03:56:03 14.7 C 8.56 g/m*3 14.7 C 0 km/h
2420 08-10-2010 04:08:03 14.7 C 8.56 g/m*3 14.7 C 0 km/h
2421 08-10-2010 04:20:03 14.6 C 8.51 g/m*3 14.6 C 0 km/h
2422 08-10-2010 04:32:04 14.5 C 8.58 g/m*3 14.5 C 0 km/h
2423 08-10-2010 04:44:04 14.4 C 8.53 g/m*3 14.4 C 0 km/h
2424 08-10-2010 04:56:04 14.4 C 8.65 g/m*3 14.4 C 0 km/h
2425 08-10-2010 05:08:04 14.3 C 8.72 g/m*3 14.3 C 0 km/h
Sensor: Nr:Datum:Temp:Abs-Feuchte:Windchill:Wind:
Aussen-T/F 2426 08-10-2010 05:20:04 14.3 C 8.85 g/m*3 14.3 C 0 km/h
2427 08-10-2010 05:32:04 14.3 C 8.85 g/m*3 14.3 C 0 km/h
2428 08-10-2010 05:44:04 14.1 C 8.74 g/m*3 14.1 C 0 km/h
2429 08-10-2010 05:56:04 14.2 C 8.91 g/m*3 14.2 C 0 km/h
2430 08-10-2010 06:08:04 14.1 C 8.86 g/m*3 14.1 C 0 km/h
2431 08-10-2010 06:20:04 14 C 8.93 g/m*3 14 C 0 km/h
2432 08-10-2010 06:32:04 14 C 8.93 g/m*3 14 C 0 km/h
2433 08-10-2010 06:44:04 13.9 C 8.99 g/m*3 13.9 C 0 km/h
2434 08-10-2010 06:56:04 13.9 C 9.11 g/m*3 13.9 C 0 km/h
2435 08-10-2010 07:08:04 13.9 C 9.11 g/m*3 13.9 C 0 km/h
2436 08-10-2010 07:20:01 14 C 9.17 g/m*3 14 C 0 km/h
2437 08-10-2010 07:32:01 14.1 C 9.22 g/m*3 14.1 C 0 km/h
2438 08-10-2010 07:44:01 14.1 C 9.1 g/m*3 14.1 C 0 km/h
2439 08-10-2010 07:56:01 14 C 9.05 g/m*3 14 C 0 km/h
2440 08-10-2010 08:08:02 14 C 9.05 g/m*3 14 C 0 km/h
2441 08-10-2010 08:20:02 14.1 C 9.1 g/m*3 14.1 C 0 km/h
2442 08-10-2010 08:32:01 14.2 C 9.28 g/m*3 14.2 C 0 km/h
2443 08-10-2010 08:44:01 14.3 C 9.34 g/m*3 14.3 C 0 km/h
2444 08-10-2010 08:56:02 14.4 C 9.39 g/m*3 14.4 C 0 km/h
2445 08-10-2010 09:08:01 14.4 C 9.27 g/m*3 14.4 C 0 km/h
2446 08-10-2010 09:20:01 14.5 C 9.33 g/m*3 14.5 C 0 km/h
2447 08-10-2010 09:32:02 14.6 C 9.51 g/m*3 14.6 C 0 km/h
2448 08-10-2010 09:44:02 14.7 C 9.44 g/m*3 14.7 C 0 km/h
2449 08-10-2010 09:56:02 14.8 C 9.5 g/m*3 14.8 C 0 km/h
2450 08-10-2010 10:08:01 14.9 C 9.43 g/m*3 14.9 C 0 km/h
Sensor: Nr:Datum:Temp:Abs-Feuchte:Windchill:Wind:
Aussen-T/F 2451 08-10-2010 10:20:02 15.1 C 9.42 g/m*3 15.1 C 0 km/h
2452 08-10-2010 10:32:02 15.3 C 9.53 g/m*3 15.3 C 0 km/h
2453 08-10-2010 10:44:02 15.4 C 9.33 g/m*3 15.4 C 0 km/h
2454 08-10-2010 10:56:02 15.7 C 9.63 g/m*3 15.7 C 0 km/h
2455 08-10-2010 11:08:02 15.7 C 9.23 g/m*3 15.7 C 0 km/h
2456 08-10-2010 11:20:02 15.8 C 9.42 g/m*3 15.8 C 0 km/h
2457 08-10-2010 11:32:02 15.8 C 9.29 g/m*3 15.8 C 0 km/h
2458 08-10-2010 11:44:02 15.9 C 9.21 g/m*3 15.9 C 0 km/h
2459 08-10-2010 11:56:02 16.1 C 9.32 g/m*3 16.1 C 0 km/h
2460 08-10-2010 12:08:02 16.3 C 9.43 g/m*3 16.3 C 0 km/h
2461 08-10-2010 12:20:03 16.5 C 9.13 g/m*3 16.5 C 0 km/h
2462 08-10-2010 12:32:02 16.6 C 9.04 g/m*3 16.6 C 0 km/h
2463 08-10-2010 12:44:02 16.6 C 8.9 g/m*3 16.6 C 0 km/h
2464 08-10-2010 12:56:02 16.7 C 8.95 g/m*3 16.7 C 0 km/h
2465 08-10-2010 13:08:02 16.7 C 8.81 g/m*3 16.7 C 0 km/h
2466 08-10-2010 13:20:02 17 C 8.83 g/m*3 17 C 0 km/h
2467 08-10-2010 13:32:02 17 C 8.83 g/m*3 17 C 0 km/h
2468 08-10-2010 13:44:02 17 C 8.54 g/m*3 17 C 0 km/h
2469 08-10-2010 13:56:02 17 C 8.83 g/m*3 17 C 0 km/h
2470 08-10-2010 14:08:02 17.6 C 9 g/m*3 17.6 C 0 km/h
2471 08-10-2010 14:20:02 18.1 C 8.81 g/m*3 18.1 C 0 km/h
2472 08-10-2010 14:32:02 18.6 C 8.75 g/m*3 18.6 C 0 km/h
2473 08-10-2010 14:44:02 19.7 C 8.66 g/m*3 19.7 C 0 km/h
2474 08-10-2010 14:56:02 19.8 C 8.54 g/m*3 19.8 C 0 km/h
2475 08-10-2010 15:08:02 19.7 C 8.66 g/m*3 19.7 C 0 km/h
Sensor: Nr:Datum:Temp:Abs-Feuchte:Windchill:Wind:
Aussen-T/F 2476 08-10-2010 15:20:01 19.9 C 8.25 g/m*3 19.9 C 0 km/h
2477 08-10-2010 15:32:02 20.4 C 8.67 g/m*3 20.4 C 0 km/h
2478 08-10-2010 15:44:02 20.6 C 8.59 g/m*3 20.6 C 0 km/h
2479 08-10-2010 15:56:02 21 C 8.43 g/m*3 21 C 0 km/h
2480 08-10-2010 16:08:02 22 C 8.73 g/m*3 22 C 0 km/h
2481 08-10-2010 16:20:02 22.1 C 8.98 g/m*3 22.1 C 0 km/h
2482 08-10-2010 16:32:02 22.5 C 9.19 g/m*3 22.5 C 0 km/h
2483 08-10-2010 16:44:02 22.4 C 8.74 g/m*3 22.4 C 0 km/h
2484 08-10-2010 16:56:02 22 C 9.12 g/m*3 22 C 0 km/h
2485 08-10-2010 17:08:02 22.1 C 9.17 g/m*3 22.1 C 0 km/h
2486 08-10-2010 17:20:03 22.1 C 9.17 g/m*3 22.1 C 0 km/h
2487 08-10-2010 17:32:02 21.9 C 9.26 g/m*3 21.9 C 0 km/h
2488 08-10-2010 17:44:02 21.6 C 9.29 g/m*3 21.6 C 0 km/h
2489 08-10-2010 17:56:02 21.2 C 9.27 g/m*3 21.2 C 0 km/h
2490 08-10-2010 18:08:02 20.6 C 9.49 g/m*3 20.6 C 0 km/h
2491 08-10-2010 18:20:03 20 C 9.51 g/m*3 20 C 0 km/h
2492 08-10-2010 18:32:02 19.3 C 9.62 g/m*3 19.3 C 0 km/h
2493 08-10-2010 18:44:02 18.1 C 9.73 g/m*3 18.1 C 0 km/h
2494 08-10-2010 18:56:02 17.3 C 9.87 g/m*3 17.3 C 0 km/h
2495 08-10-2010 19:08:02 16.9 C 10.21 g/m*3 16.9 C 0 km/h
2496 08-10-2010 19:20:02 16.1 C 10.01 g/m*3 16.1 C 0 km/h
2497 08-10-2010 19:32:02 15.8 C 9.96 g/m*3 15.8 C 0 km/h
2498 08-10-2010 19:44:02 15.4 C 9.85 g/m*3 15.4 C 0 km/h
2499 08-10-2010 19:56:02 15.2 C 9.86 g/m*3 15.2 C 0 km/h
2500 08-10-2010 20:08:02 15 C 9.75 g/m*3 15 C 0 km/h
Sensor: Nr:Datum:Temp:Abs-Feuchte:Windchill:Wind:
Aussen-T/F 2501 08-10-2010 20:20:02 14.9 C 9.81 g/m*3 14.9 C 0 km/h
2502 08-10-2010 20:32:02 14.8 C 9.88 g/m*3 14.8 C 0 km/h
2503 08-10-2010 20:44:02 14.7 C 9.82 g/m*3 14.7 C 0 km/h
2504 08-10-2010 20:56:02 14.5 C 9.7 g/m*3 14.5 C 0 km/h
2505 08-10-2010 21:08:02 14.4 C 9.77 g/m*3 14.4 C 0 km/h
2506 08-10-2010 21:20:02 14.2 C 9.65 g/m*3 14.2 C 0 km/h
2507 08-10-2010 21:32:02 14.1 C 9.59 g/m*3 14.1 C 0 km/h
2508 08-10-2010 21:44:02 14 C 9.65 g/m*3 14 C 0 km/h
2509 08-10-2010 21:56:01 13.7 C 9.59 g/m*3 13.7 C 0 km/h
2510 08-10-2010 22:08:01 13.5 C 9.59 g/m*3 13.5 C 0 km/h
2511 08-10-2010 22:20:02 13.5 C 9.59 g/m*3 13.5 C 0 km/h
2512 08-10-2010 22:33:02 13.3 C 9.47 g/m*3 13.3 C 0 km/h
2513 08-10-2010 22:45:02 13.1 C 9.47 g/m*3 13.1 C 0 km/h
2514 08-10-2010 22:57:02 13 C 9.41 g/m*3 13 C 0 km/h
2515 08-10-2010 23:09:02 12.9 C 9.47 g/m*3 12.9 C 0 km/h
2516 08-10-2010 23:21:02 12.7 C 9.35 g/m*3 12.7 C 0 km/h
2517 08-10-2010 23:33:02 12.6 C 9.29 g/m*3 12.6 C 0 km/h
2518 08-10-2010 23:45:02 12.4 C 9.18 g/m*3 12.4 C 0 km/h
2519 08-10-2010 23:57:02 12.3 C 9.23 g/m*3 12.3 C 0 km/h
2520 09-10-2010 00:09:02 12.1 C 9.12 g/m*3 12.1 C 0 km/h
2521 09-10-2010 00:21:03 12 C 9.06 g/m*3 12 C 0 km/h
2522 09-10-2010 00:33:03 11.9 C 9.11 g/m*3 11.9 C 0 km/h
2523 09-10-2010 00:45:03 11.7 C 9.1 g/m*3 11.7 C 0 km/h
2524 09-10-2010 00:57:03 11.8 C 9.16 g/m*3 11.8 C 0 km/h
2525 09-10-2010 01:09:03 11.5 C 8.99 g/m*3 11.5 C 0 km/h
Sensor: Nr:Datum:Temp:Abs-Feuchte:Windchill:Wind:
Aussen-T/F 2526 09-10-2010 01:21:03 11.5 C 8.99 g/m*3 11.5 C 0 km/h
2527 09-10-2010 01:33:03 11.4 C 9.03 g/m*3 11.4 C 0 km/h
2528 09-10-2010 01:45:03 11.2 C 8.92 g/m*3 11.2 C 0 km/h
2529 09-10-2010 01:57:03 11.1 C 8.86 g/m*3 11.1 C 0 km/h
2530 09-10-2010 02:09:03 11 C 8.81 g/m*3 11 C 0 km/h
2531 09-10-2010 02:21:03 10.9 C 8.85 g/m*3 10.9 C 0 km/h
2532 09-10-2010 02:33:03 10.7 C 8.64 g/m*3 10.7 C 0 km/h
2533 09-10-2010 02:45:03 10.6 C 8.59 g/m*3 10.6 C 0 km/h
2534 09-10-2010 02:57:03 10.5 C 8.53 g/m*3 10.5 C 0 km/h
2535 09-10-2010 03:09:03 10.4 C 8.48 g/m*3 10.4 C 0 km/h
2536 09-10-2010 03:21:03 10.3 C 8.43 g/m*3 10.3 C 0 km/h
2537 09-10-2010 03:33:03 10.2 C 8.37 g/m*3 10.2 C 0 km/h
2538 09-10-2010 03:45:03 10.2 C 8.47 g/m*3 10.2 C 0 km/h
2539 09-10-2010 03:57:03 10.1 C 8.42 g/m*3 10.1 C 0 km/h
2540 09-10-2010 04:09:03 10 C 8.36 g/m*3 10 C 0 km/h
2541 09-10-2010 04:21:03 9.8 C 8.35 g/m*3 9.8 C 0 km/h
2542 09-10-2010 04:33:04 9.8 C 8.35 g/m*3 9.8 C 0 km/h
2543 09-10-2010 04:45:04 9.7 C 8.3 g/m*3 9.7 C 0 km/h
2544 09-10-2010 04:57:04 9.6 C 8.24 g/m*3 9.6 C 0 km/h
2545 09-10-2010 05:09:04 9.6 C 8.34 g/m*3 9.6 C 0 km/h
2546 09-10-2010 05:21:04 9.5 C 8.28 g/m*3 9.5 C 0 km/h
2547 09-10-2010 05:33:04 9.4 C 8.23 g/m*3 9.4 C 0 km/h
2548 09-10-2010 05:45:04 9.5 C 8.28 g/m*3 9.5 C 0 km/h
2549 09-10-2010 05:57:04 9.6 C 8.34 g/m*3 9.6 C 0 km/h
2550 09-10-2010 06:09:04 9.6 C 8.34 g/m*3 9.6 C 0 km/h
Sensor: Nr:Datum:Temp:Abs-Feuchte:Windchill:Wind:
Aussen-T/F 2551 09-10-2010 06:21:04 9.5 C 8.37 g/m*3 9.5 C 0 km/h
2552 09-10-2010 06:33:04 9.4 C 8.32 g/m*3 9.4 C 0 km/h
2553 09-10-2010 06:45:04 9.3 C 8.27 g/m*3 9.3 C 0 km/h
2554 09-10-2010 06:57:04 9.3 C 8.27 g/m*3 9.3 C 0 km/h
2555 09-10-2010 07:09:04 9.3 C 8.27 g/m*3 9.3 C 0 km/h
2556 09-10-2010 07:21:04 9.2 C 8.22 g/m*3 9.2 C 0 km/h
2557 09-10-2010 07:33:04 9.1 C 8.16 g/m*3 9.1 C 0 km/h
2558 09-10-2010 07:45:04 9.2 C 8.22 g/m*3 9.2 C 0 km/h
2559 09-10-2010 07:57:04 9.4 C 8.32 g/m*3 9.4 C 0 km/h
2560 09-10-2010 08:09:04 9.2 C 8.22 g/m*3 9.2 C 0 km/h
2561 09-10-2010 08:21:04 9.2 C 8.22 g/m*3 9.2 C 0 km/h
2562 09-10-2010 08:33:02 9.2 C 8.22 g/m*3 9.2 C 0 km/h
2563 09-10-2010 08:45:02 9.2 C 8.22 g/m*3 9.2 C 0 km/h
2564 09-10-2010 08:57:02 9.2 C 8.22 g/m*3 9.2 C 0 km/h
2565 09-10-2010 09:09:02 9.2 C 8.22 g/m*3 9.2 C 0 km/h
2566 09-10-2010 09:21:02 9.2 C 8.22 g/m*3 9.2 C 0 km/h
2567 09-10-2010 09:33:02 9.2 C 8.13 g/m*3 9.2 C 0 km/h
2568 09-10-2010 09:45:02 9.3 C 8.27 g/m*3 9.3 C 0 km/h
2569 09-10-2010 09:57:02 9.5 C 8.37 g/m*3 9.5 C 0 km/h
2570 09-10-2010 10:09:02 9.7 C 8.48 g/m*3 9.7 C 0 km/h
2571 09-10-2010 10:21:01 10 C 8.55 g/m*3 10 C 0 km/h
2572 09-10-2010 10:33:02 10.5 C 8.92 g/m*3 10.5 C 0 km/h
2573 09-10-2010 10:45:02 10.8 C 9.09 g/m*3 10.8 C 0 km/h
2574 09-10-2010 10:57:02 11.2 C 9.33 g/m*3 11.2 C 0 km/h
2575 09-10-2010 11:09:02 11.7 C 9.62 g/m*3 11.7 C 0 km/h
Sensor: Nr:Datum:Temp:Abs-Feuchte:Windchill:Wind:
Aussen-T/F 2576 09-10-2010 11:21:02 12.1 C 9.65 g/m*3 12.1 C 0 km/h
2577 09-10-2010 11:33:02 12.5 C 9.68 g/m*3 12.5 C 0 km/h
2578 09-10-2010 11:45:02 12.9 C 9.47 g/m*3 12.9 C 0 km/h
2579 09-10-2010 11:57:02 13.4 C 9.18 g/m*3 13.4 C 0 km/h
2580 09-10-2010 12:09:02 13.7 C 8.76 g/m*3 13.7 C 0 km/h
2581 09-10-2010 12:21:01 14.4 C 8.28 g/m*3 14.4 C 0 km/h
2582 09-10-2010 12:33:02 14.7 C 7.81 g/m*3 14.7 C 0 km/h
2583 09-10-2010 12:45:01 15.1 C 8.39 g/m*3 15.1 C 0 km/h
2584 09-10-2010 12:57:01 15.5 C 7.67 g/m*3 15.5 C 0 km/h
2585 09-10-2010 13:09:02 16.1 C 7.95 g/m*3 16.1 C 0 km/h
2586 09-10-2010 13:21:02 16.6 C 8.05 g/m*3 16.6 C 0 km/h
2587 09-10-2010 13:33:02 17 C 8.1 g/m*3 17 C 0 km/h
2588 09-10-2010 13:45:02 17.6 C 7.8 g/m*3 17.6 C 0 km/h
2589 09-10-2010 13:57:02 18.2 C 7.46 g/m*3 18.2 C 0 km/h
2590 09-10-2010 14:09:01 19 C 6.84 g/m*3 19 C 0 km/h
2591 09-10-2010 14:21:02 19.5 C 7.05 g/m*3 19.5 C 0 km/h
2592 09-10-2010 14:33:02 20 C 7.09 g/m*3 20 C 0 km/h
2593 09-10-2010 14:45:02 20.4 C 6.72 g/m*3 20.4 C 0 km/h
2594 09-10-2010 14:57:02 20.9 C 7.47 g/m*3 20.9 C 0 km/h
2595 09-10-2010 15:09:02 21.4 C 6.75 g/m*3 21.4 C 0 km/h
2596 09-10-2010 15:21:02 21.8 C 6.72 g/m*3 21.8 C 0 km/h
2597 09-10-2010 15:33:02 21.7 C 5.91 g/m*3 21.7 C 0 km/h
2598 09-10-2010 15:45:02 22.1 C 6.25 g/m*3 22.1 C 0 km/h
2599 09-10-2010 15:57:02 22.3 C 5.73 g/m*3 22.3 C 0 km/h
2600 09-10-2010 16:09:01 22.4 C 6.16 g/m*3 22.4 C 0 km/h
Sensor: Nr:Datum:Temp:Abs-Feuchte:Windchill:Wind:
Aussen-T/F 2601 09-10-2010 16:21:02 22.4 C 6.16 g/m*3 22.4 C 0 km/h
2602 09-10-2010 16:33:02 22.4 C 6.36 g/m*3 22.4 C 0 km/h
2603 09-10-2010 16:45:01 22 C 6.21 g/m*3 22 C 0 km/h
2604 09-10-2010 16:57:01 21.6 C 6.26 g/m*3 21.6 C 0 km/h
2605 09-10-2010 17:09:02 21.3 C 5.96 g/m*3 21.3 C 0 km/h
2606 09-10-2010 17:21:01 21.3 C 6.15 g/m*3 21.3 C 0 km/h
2607 09-10-2010 17:33:01 21.1 C 6.26 g/m*3 21.1 C 0 km/h
2608 09-10-2010 17:45:01 20.6 C 6.26 g/m*3 20.6 C 0 km/h
2609 09-10-2010 17:57:01 19.7 C 6.28 g/m*3 19.7 C 0 km/h
2610 09-10-2010 18:09:02 19.1 C 6.23 g/m*3 19.1 C 0 km/h
2611 09-10-2010 18:21:01 18.2 C 6.22 g/m*3 18.2 C 0 km/h
2612 09-10-2010 18:33:01 17 C 6.37 g/m*3 17 C 0 km/h
2613 09-10-2010 18:45:01 15.8 C 6.33 g/m*3 15.8 C 0 km/h
2614 09-10-2010 18:57:01 15 C 6.03 g/m*3 15 C 0 km/h
2615 09-10-2010 19:09:02 14.6 C 6.01 g/m*3 14.6 C 0 km/h
2616 09-10-2010 19:21:02 14 C 6.03 g/m*3 14 C 0 km/h
2617 09-10-2010 19:33:01 13.8 C 5.96 g/m*3 13.8 C 0 km/h
2618 09-10-2010 19:45:02 13.4 C 6.28 g/m*3 13.4 C 0 km/h
2619 09-10-2010 19:57:02 13.2 C 6.32 g/m*3 13.2 C 0 km/h
2620 09-10-2010 20:09:01 13 C 6.35 g/m*3 13 C 0 km/h
2621 09-10-2010 20:21:02 13.1 C 6.39 g/m*3 13.1 C 0 km/h
2622 09-10-2010 20:33:01 13 C 6.46 g/m*3 13 C 0 km/h
2623 09-10-2010 20:45:02 12.7 C 6.79 g/m*3 12.7 C 0 km/h
2624 09-10-2010 20:57:02 12.4 C 6.88 g/m*3 12.4 C 0 km/h
2625 09-10-2010 21:09:02 12 C 6.82 g/m*3 12 C 0 km/h
Sensor: Nr:Datum:Temp:Abs-Feuchte:Windchill:Wind:
Aussen-T/F 2626 09-10-2010 21:21:02 11.7 C 7.01 g/m*3 11.7 C 0 km/h
2627 09-10-2010 21:33:02 11.5 C 7.02 g/m*3 11.5 C 0 km/h
2628 09-10-2010 21:45:01 11.2 C 7.1 g/m*3 11.2 C 0 km/h
2629 09-10-2010 21:57:01 11 C 7.01 g/m*3 11 C 0 km/h
2630 09-10-2010 22:09:01 11 C 7.01 g/m*3 11 C 0 km/h
2631 09-10-2010 22:21:02 10.8 C 7.12 g/m*3 10.8 C 0 km/h
2632 09-10-2010 22:33:01 10.6 C 7.03 g/m*3 10.6 C 0 km/h
2633 09-10-2010 22:46:02 10.4 C 7.04 g/m*3 10.4 C 0 km/h
2634 09-10-2010 22:58:02 10.2 C 6.95 g/m*3 10.2 C 0 km/h
2635 09-10-2010 23:10:02 10 C 6.86 g/m*3 10 C 0 km/h
2636 09-10-2010 23:22:02 9.8 C 6.96 g/m*3 9.8 C 0 km/h
2637 09-10-2010 23:34:02 9.7 C 6.91 g/m*3 9.7 C 0 km/h
2638 09-10-2010 23:46:02 9.4 C 6.96 g/m*3 9.4 C 0 km/h
2639 09-10-2010 23:58:02 9.2 C 6.88 g/m*3 9.2 C 0 km/h
2640 10-10-2010 00:10:02 9.1 C 6.92 g/m*3 9.1 C 0 km/h
2641 10-10-2010 00:22:02 9.1 C 7.01 g/m*3 9.1 C 0 km/h
2642 10-10-2010 00:34:02 9 C 6.96 g/m*3 9 C 0 km/h
2643 10-10-2010 00:46:02 8.8 C 7.05 g/m*3 8.8 C 0 km/h
2644 10-10-2010 00:58:02 8.7 C 7.01 g/m*3 8.7 C 0 km/h
2645 10-10-2010 01:10:03 8.5 C 6.92 g/m*3 8.5 C 0 km/h
2646 10-10-2010 01:22:03 8.5 C 7 g/m*3 8.5 C 0 km/h
2647 10-10-2010 01:34:03 8.4 C 6.96 g/m*3 8.4 C 0 km/h
2648 10-10-2010 01:46:03 8.3 C 6.91 g/m*3 8.3 C 0 km/h
2649 10-10-2010 01:58:03 8.2 C 6.87 g/m*3 8.2 C 0 km/h
2650 10-10-2010 02:10:03 8 C 6.86 g/m*3 8 C 0 km/h
Sensor: Nr:Datum:Temp:Abs-Feuchte:Windchill:Wind:
Aussen-T/F 2651 10-10-2010 02:22:03 7.9 C 6.9 g/m*3 7.9 C 0 km/h
2652 10-10-2010 02:34:03 7.9 C 6.9 g/m*3 7.9 C 0 km/h
2653 10-10-2010 02:46:03 7.6 C 6.77 g/m*3 7.6 C 0 km/h
2654 10-10-2010 02:58:03 7.4 C 6.68 g/m*3 7.4 C 0 km/h
2655 10-10-2010 03:10:03 7.5 C 6.8 g/m*3 7.5 C 0 km/h
2656 10-10-2010 03:22:03 7.2 C 6.67 g/m*3 7.2 C 0 km/h
2657 10-10-2010 03:34:03 7.1 C 6.63 g/m*3 7.1 C 0 km/h
2658 10-10-2010 03:46:03 7 C 6.59 g/m*3 7 C 0 km/h
2659 10-10-2010 03:58:03 6.9 C 6.62 g/m*3 6.9 C 0 km/h
2660 10-10-2010 04:10:03 7 C 6.59 g/m*3 7 C 0 km/h
2661 10-10-2010 04:22:03 6.8 C 6.65 g/m*3 6.8 C 0 km/h
2662 10-10-2010 04:34:03 6.7 C 6.61 g/m*3 6.7 C 0 km/h
2663 10-10-2010 04:46:03 6.7 C 6.61 g/m*3 6.7 C 0 km/h
2664 10-10-2010 04:58:03 6.6 C 6.57 g/m*3 6.6 C 0 km/h
2665 10-10-2010 05:10:03 6.5 C 6.52 g/m*3 6.5 C 0 km/h
2666 10-10-2010 05:22:03 6.4 C 6.48 g/m*3 6.4 C 0 km/h
2667 10-10-2010 05:34:03 6.2 C 6.4 g/m*3 6.2 C 0 km/h
2668 10-10-2010 05:46:04 6.2 C 6.4 g/m*3 6.2 C 0 km/h
2669 10-10-2010 05:58:04 6.1 C 6.43 g/m*3 6.1 C 0 km/h
2670 10-10-2010 06:10:04 5.9 C 6.35 g/m*3 5.9 C 0 km/h
2671 10-10-2010 06:22:04 6 C 6.39 g/m*3 6 C 0 km/h
2672 10-10-2010 06:34:04 6 C 6.39 g/m*3 6 C 0 km/h
2673 10-10-2010 06:46:04 5.8 C 6.38 g/m*3 5.8 C 0 km/h
2674 10-10-2010 06:58:04 5.6 C 6.29 g/m*3 5.6 C 0 km/h
2675 10-10-2010 07:10:02 5.5 C 6.25 g/m*3 5.5 C 0 km/h
Sensor: Nr:Datum:Temp:Abs-Feuchte:Windchill:Wind:
Aussen-T/F 2676 10-10-2010 07:22:03 5.6 C 6.29 g/m*3 5.6 C 0 km/h
2677 10-10-2010 07:34:02 5.4 C 6.28 g/m*3 5.4 C 0 km/h
2678 10-10-2010 07:46:02 5.4 C 6.28 g/m*3 5.4 C 0 km/h
2679 10-10-2010 07:58:02 5.6 C 6.43 g/m*3 5.6 C 0 km/h
2680 10-10-2010 08:10:01 6 C 6.53 g/m*3 6 C 0 km/h
2681 10-10-2010 08:22:01 6.2 C 6.62 g/m*3 6.2 C 0 km/h
2682 10-10-2010 08:34:01 6.4 C 6.71 g/m*3 6.4 C 0 km/h
2683 10-10-2010 08:46:01 6.5 C 6.75 g/m*3 6.5 C 0 km/h
2684 10-10-2010 08:58:01 6.7 C 6.84 g/m*3 6.7 C 0 km/h
2685 10-10-2010 09:10:02 7 C 6.82 g/m*3 7 C 0 km/h
2686 10-10-2010 09:22:01 6.9 C 6.85 g/m*3 6.9 C 0 km/h
2687 10-10-2010 09:34:01 7.1 C 6.79 g/m*3 7.1 C 0 km/h
2688 10-10-2010 09:46:01 7.5 C 6.8 g/m*3 7.5 C 0 km/h
2689 10-10-2010 09:58:01 7.8 C 6.69 g/m*3 7.8 C 0 km/h
2690 10-10-2010 10:10:01 8.1 C 6.49 g/m*3 8.1 C 0 km/h
2691 10-10-2010 10:22:02 8.4 C 6.45 g/m*3 8.4 C 0 km/h
2692 10-10-2010 10:34:01 8.8 C 6.7 g/m*3 8.8 C 0 km/h
2693 10-10-2010 10:46:03 9.5 C 6.74 g/m*3 9.5 C 0 km/h
2694 10-10-2010 10:58:03 9.8 C 6.59 g/m*3 9.8 C 0 km/h
2695 10-10-2010 11:10:02 10.2 C 6.47 g/m*3 10.2 C 0 km/h
2696 10-10-2010 11:22:02 10.3 C 6.7 g/m*3 10.3 C 0 km/h
2697 10-10-2010 11:34:02 10.8 C 6.72 g/m*3 10.8 C 0 km/h
2698 10-10-2010 11:46:02 11.5 C 6.51 g/m*3 11.5 C 0 km/h
2699 10-10-2010 11:58:03 11.8 C 6.42 g/m*3 11.8 C 0 km/h
2700 10-10-2010 12:10:01 12 C 6.61 g/m*3 12 C 0 km/h
Sensor: Nr:Datum:Temp:Abs-Feuchte:Windchill:Wind:
Aussen-T/F 2701 10-10-2010 12:22:02 12.3 C 6.73 g/m*3 12.3 C 0 km/h
2702 10-10-2010 12:34:02 12.7 C 6.68 g/m*3 12.7 C 0 km/h
2703 10-10-2010 12:46:02 13.2 C 6.2 g/m*3 13.2 C 0 km/h
2704 10-10-2010 12:58:02 13.8 C 6.08 g/m*3 13.8 C 0 km/h
2705 10-10-2010 13:10:03 14.4 C 5.69 g/m*3 14.4 C 0 km/h
2706 10-10-2010 13:22:02 15.2 C 5.58 g/m*3 15.2 C 0 km/h
2707 10-10-2010 13:34:02 16 C 5.86 g/m*3 16 C 0 km/h
2708 10-10-2010 13:46:01 16.5 C 5.76 g/m*3 16.5 C 0 km/h
2709 10-10-2010 13:58:01 17.2 C 5.42 g/m*3 17.2 C 0 km/h
2710 10-10-2010 14:10:02 17.8 C 5.01 g/m*3 17.8 C 0 km/h
2711 10-10-2010 14:22:01 18.3 C 5.16 g/m*3 18.3 C 0 km/h
2712 10-10-2010 14:34:01 18.7 C 5.76 g/m*3 18.7 C 0 km/h
2713 10-10-2010 14:46:01 19 C 5.7 g/m*3 19 C 0 km/h
2714 10-10-2010 14:58:01 19.3 C 5.64 g/m*3 19.3 C 0 km/h
2715 10-10-2010 15:10:01 19.6 C 5.91 g/m*3 19.6 C 0 km/h
2716 10-10-2010 15:22:02 20 C 6.05 g/m*3 20 C 0 km/h
2717 10-10-2010 15:34:01 20.4 C 6.01 g/m*3 20.4 C 0 km/h
2718 10-10-2010 15:46:02 20.9 C 6.37 g/m*3 20.9 C 0 km/h
2719 10-10-2010 15:58:02 21.1 C 5.16 g/m*3 21.1 C 0 km/h
2720 10-10-2010 16:10:01 21.1 C 5.71 g/m*3 21.1 C 0 km/h
2721 10-10-2010 16:22:02 21.4 C 5.81 g/m*3 21.4 C 0 km/h
2722 10-10-2010 16:34:01 21.3 C 5.78 g/m*3 21.3 C 0 km/h
2723 10-10-2010 16:46:02 21.3 C 5.59 g/m*3 21.3 C 0 km/h
2724 10-10-2010 16:58:02 21.3 C 5.59 g/m*3 21.3 C 0 km/h
2725 10-10-2010 17:10:02 21.2 C 5.56 g/m*3 21.2 C 0 km/h
Sensor: Nr:Datum:Temp:Abs-Feuchte:Windchill:Wind:
Aussen-T/F 2726 10-10-2010 17:22:02 21 C 5.86 g/m*3 21 C 0 km/h
2727 10-10-2010 17:34:02 20.8 C 5.79 g/m*3 20.8 C 0 km/h
2728 10-10-2010 17:46:01 20.4 C 5.48 g/m*3 20.4 C 0 km/h
2729 10-10-2010 17:58:01 19.8 C 5.3 g/m*3 19.8 C 0 km/h
2730 10-10-2010 18:10:02 19.1 C 5.41 g/m*3 19.1 C 0 km/h
2731 10-10-2010 18:22:01 18.3 C 5.32 g/m*3 18.3 C 0 km/h
2732 10-10-2010 18:34:02 17.1 C 5.24 g/m*3 17.1 C 0 km/h
2733 10-10-2010 18:46:01 16.2 C 5.65 g/m*3 16.2 C 0 km/h
2734 10-10-2010 18:58:01 15.3 C 5.48 g/m*3 15.3 C 0 km/h
2735 10-10-2010 19:10:02 14.8 C 5.57 g/m*3 14.8 C 0 km/h
2736 10-10-2010 19:22:01 14.5 C 5.35 g/m*3 14.5 C 0 km/h
2737 10-10-2010 19:34:02 14.2 C 5.62 g/m*3 14.2 C 0 km/h
2738 10-10-2010 19:46:01 13.7 C 5.68 g/m*3 13.7 C 0 km/h
2739 10-10-2010 19:58:01 13.7 C 5.21 g/m*3 13.7 C 0 km/h
2740 10-10-2010 20:10:02 13.4 C 5.23 g/m*3 13.4 C 0 km/h
2741 10-10-2010 20:22:02 13 C 5.22 g/m*3 13 C 0 km/h
2742 10-10-2010 20:34:01 13 C 4.99 g/m*3 13 C 0 km/h
2743 10-10-2010 20:46:02 12.8 C 4.7 g/m*3 12.8 C 0 km/h
2744 10-10-2010 20:58:02 12.9 C 4.4 g/m*3 12.9 C 0 km/h
2745 10-10-2010 21:10:01 12.7 C 4.23 g/m*3 12.7 C 0 km/h
2746 10-10-2010 21:22:02 12.6 C 4.09 g/m*3 12.6 C 0 km/h
2747 10-10-2010 21:34:01 12.5 C 3.85 g/m*3 12.5 C 0 km/h
2748 10-10-2010 21:46:02 12.4 C 3.93 g/m*3 12.4 C 0 km/h
2749 10-10-2010 21:58:03 12 C 3.94 g/m*3 12 C 0 km/h
2750 10-10-2010 22:11:02 11.8 C 3.89 g/m*3 11.8 C 0 km/h
Sensor: Nr:Datum:Temp:Abs-Feuchte:Windchill:Wind:
Aussen-T/F 2751 10-10-2010 22:23:03 11.6 C 4.16 g/m*3 11.6 C 0 km/h
2752 10-10-2010 22:35:03 11.4 C 4.11 g/m*3 11.4 C 0 km/h
2753 10-10-2010 22:47:03 11.3 C 4.18 g/m*3 11.3 C 0 km/h
2754 10-10-2010 22:59:03 11.2 C 4.26 g/m*3 11.2 C 0 km/h
2755 10-10-2010 23:11:03 11.1 C 4.33 g/m*3 11.1 C 0 km/h
2756 10-10-2010 23:23:03 10.9 C 4.48 g/m*3 10.9 C 0 km/h
2757 10-10-2010 23:35:03 10.7 C 4.52 g/m*3 10.7 C 0 km/h
2758 10-10-2010 23:47:03 10.6 C 4.59 g/m*3 10.6 C 0 km/h
2759 10-10-2010 23:59:03 10.3 C 4.69 g/m*3 10.3 C 0 km/h
2760 11-10-2010 00:11:03 10.2 C 4.85 g/m*3 10.2 C 0 km/h
2761 11-10-2010 00:23:03 10 C 4.89 g/m*3 10 C 0 km/h
2762 11-10-2010 00:35:03 9.9 C 4.95 g/m*3 9.9 C 0 km/h
2763 11-10-2010 00:47:03 10 C 4.79 g/m*3 10 C 0 km/h
2764 11-10-2010 00:59:03 9.8 C 4.92 g/m*3 9.8 C 0 km/h
2765 11-10-2010 01:11:03 9.6 C 4.95 g/m*3 9.6 C 0 km/h
2766 11-10-2010 01:23:03 9.5 C 4.92 g/m*3 9.5 C 0 km/h
2767 11-10-2010 01:35:03 9.4 C 4.88 g/m*3 9.4 C 0 km/h
2768 11-10-2010 01:47:03 9.3 C 4.94 g/m*3 9.3 C 0 km/h
2769 11-10-2010 01:59:03 9.4 C 4.88 g/m*3 9.4 C 0 km/h
2770 11-10-2010 02:11:03 9.4 C 4.79 g/m*3 9.4 C 0 km/h
2771 11-10-2010 02:23:03 9.4 C 4.88 g/m*3 9.4 C 0 km/h
2772 11-10-2010 02:35:03 9 C 4.85 g/m*3 9 C 0 km/h
2773 11-10-2010 02:47:04 8.9 C 4.91 g/m*3 8.9 C 0 km/h
2774 11-10-2010 02:59:04 8.7 C 4.93 g/m*3 8.7 C 0 km/h
2775 11-10-2010 03:11:04 8.5 C 4.95 g/m*3 8.5 C 0 km/h
Sensor: Nr:Datum:Temp:Abs-Feuchte:Windchill:Wind:
Aussen-T/F 2776 11-10-2010 03:23:04 8.3 C 4.97 g/m*3 8.3 C 0 km/h
2777 11-10-2010 03:35:04 8.2 C 5.02 g/m*3 8.2 C 0 km/h
2778 11-10-2010 03:47:04 8.1 C 4.99 g/m*3 8.1 C 0 km/h
2779 11-10-2010 03:59:04 8.1 C 4.99 g/m*3 8.1 C 0 km/h
2780 11-10-2010 04:11:04 7.7 C 5.03 g/m*3 7.7 C 0 km/h
2781 11-10-2010 04:23:04 7.5 C 5.12 g/m*3 7.5 C 0 km/h
2782 11-10-2010 04:35:04 7.5 C 5.12 g/m*3 7.5 C 0 km/h
2783 11-10-2010 04:47:04 7.6 C 5.16 g/m*3 7.6 C 0 km/h
2784 11-10-2010 04:59:04 7.6 C 5.08 g/m*3 7.6 C 0 km/h
2785 11-10-2010 05:11:04 7.1 C 5.07 g/m*3 7.1 C 0 km/h
2786 11-10-2010 05:23:04 7 C 5.27 g/m*3 7 C 0 km/h
2787 11-10-2010 05:35:04 6.6 C 5.28 g/m*3 6.6 C 0 km/h
2788 11-10-2010 05:47:04 6.3 C 5.26 g/m*3 6.3 C 0 km/h
2789 11-10-2010 05:59:04 6.2 C 5.29 g/m*3 6.2 C 0 km/h
2790 11-10-2010 06:11:04 6 C 5.23 g/m*3 6 C 0 km/h
2791 11-10-2010 06:23:04 5.8 C 5.23 g/m*3 5.8 C 0 km/h
2792 11-10-2010 06:35:04 5.7 C 5.34 g/m*3 5.7 C 0 km/h
2793 11-10-2010 06:47:04 5.6 C 5.37 g/m*3 5.6 C 0 km/h
2794 11-10-2010 06:59:05 5.5 C 5.41 g/m*3 5.5 C 0 km/h
2795 11-10-2010 07:11:02 5.4 C 5.37 g/m*3 5.4 C 0 km/h
2796 11-10-2010 07:23:02 5.3 C 5.41 g/m*3 5.3 C 0 km/h
2797 11-10-2010 07:35:03 5.3 C 5.41 g/m*3 5.3 C 0 km/h
2798 11-10-2010 07:47:02 5.1 C 5.34 g/m*3 5.1 C 0 km/h
2799 11-10-2010 07:59:02 5 C 5.3 g/m*3 5 C 0 km/h
2800 11-10-2010 08:11:02 4.9 C 5.33 g/m*3 4.9 C 0 km/h
Sensor: Nr:Datum:Temp:Abs-Feuchte:Windchill:Wind:
Aussen-T/F 2801 11-10-2010 08:23:02 4.9 C 5.4 g/m*3 4.9 C 0 km/h
2802 11-10-2010 08:35:02 5 C 5.37 g/m*3 5 C 0 km/h
2803 11-10-2010 08:47:02 5 C 5.44 g/m*3 5 C 0 km/h
2804 11-10-2010 08:59:02 5 C 5.44 g/m*3 5 C 0 km/h
2805 11-10-2010 09:11:02 5.3 C 5.61 g/m*3 5.3 C 0 km/h
2806 11-10-2010 09:23:02 5.4 C 5.65 g/m*3 5.4 C 0 km/h
2807 11-10-2010 09:35:02 5.6 C 5.73 g/m*3 5.6 C 0 km/h
2808 11-10-2010 09:47:01 5.8 C 5.73 g/m*3 5.8 C 0 km/h
2809 11-10-2010 09:59:01 5.9 C 5.77 g/m*3 5.9 C 0 km/h
2810 11-10-2010 10:11:01 6.1 C 5.77 g/m*3 6.1 C 0 km/h
2811 11-10-2010 10:23:01 6.5 C 6 g/m*3 6.5 C 0 km/h
2812 11-10-2010 10:35:01 7.1 C 6.16 g/m*3 7.1 C 0 km/h
2813 11-10-2010 10:47:02 7.7 C 6.32 g/m*3 7.7 C 0 km/h
2814 11-10-2010 10:59:02 8.2 C 6.28 g/m*3 8.2 C 0 km/h
2815 11-10-2010 11:11:02 8.7 C 6.31 g/m*3 8.7 C 0 km/h
2816 11-10-2010 11:23:03 9 C 6.26 g/m*3 9 C 0 km/h
2817 11-10-2010 11:35:02 9.4 C 6.33 g/m*3 9.4 C 0 km/h
2818 11-10-2010 11:47:01 9.9 C 6.44 g/m*3 9.9 C 0 km/h
2819 11-10-2010 11:59:01 10.3 C 6.42 g/m*3 10.3 C 0 km/h
2820 11-10-2010 12:11:02 10.7 C 6.38 g/m*3 10.7 C 0 km/h
2821 11-10-2010 12:23:01 11.3 C 6.43 g/m*3 11.3 C 0 km/h
2822 11-10-2010 12:35:01 11.6 C 6.44 g/m*3 11.6 C 0 km/h
2823 11-10-2010 12:47:01 12 C 6.39 g/m*3 12 C 0 km/h
2824 11-10-2010 12:59:01 12.5 C 6.6 g/m*3 12.5 C 0 km/h
2825 11-10-2010 13:11:01 13.8 C 6.2 g/m*3 13.8 C 0 km/h
Sensor: Nr:Datum:Temp:Abs-Feuchte:Windchill:Wind:
Aussen-T/F 2826 11-10-2010 13:23:02 14.5 C 6.09 g/m*3 14.5 C 0 km/h
2827 11-10-2010 13:35:01 14.9 C 5.99 g/m*3 14.9 C 0 km/h
2828 11-10-2010 13:47:02 15.4 C 5.65 g/m*3 15.4 C 0 km/h
2829 11-10-2010 13:59:02 16 C 5.45 g/m*3 16 C 0 km/h
2830 11-10-2010 14:11:02 16.7 C 4.97 g/m*3 16.7 C 0 km/h
2831 11-10-2010 14:23:02 17.1 C 5.82 g/m*3 17.1 C 0 km/h
2832 11-10-2010 14:35:01 17.4 C 5.48 g/m*3 17.4 C 0 km/h
2833 11-10-2010 14:47:01 17.9 C 5.5 g/m*3 17.9 C 0 km/h
2834 11-10-2010 14:59:02 18.3 C 5.47 g/m*3 18.3 C 0 km/h
2835 11-10-2010 15:11:01 18.8 C 5.31 g/m*3 18.8 C 0 km/h
2836 11-10-2010 15:23:01 19.4 C 5.51 g/m*3 19.4 C 0 km/h
2837 11-10-2010 15:35:01 19.8 C 5.12 g/m*3 19.8 C 0 km/h
2838 11-10-2010 15:47:01 20.3 C 4.57 g/m*3 20.3 C 0 km/h
2839 11-10-2010 15:59:01 20.6 C 4.65 g/m*3 20.6 C 0 km/h
2840 11-10-2010 16:11:02 20.8 C 4.71 g/m*3 20.8 C 0 km/h
2841 11-10-2010 16:23:01 21.1 C 4.97 g/m*3 21.1 C 0 km/h
2842 11-10-2010 16:35:01 21.2 C 4.63 g/m*3 21.2 C 0 km/h
2843 11-10-2010 16:47:01 21 C 4.58 g/m*3 21 C 0 km/h
2844 11-10-2010 16:59:01 20.7 C 4.14 g/m*3 20.7 C 0 km/h
2845 11-10-2010 17:11:02 20.5 C 3.74 g/m*3 20.5 C 0 km/h
2846 11-10-2010 17:23:01 20 C 3.63 g/m*3 20 C 0 km/h
2847 11-10-2010 17:35:01 19.5 C 3.36 g/m*3 19.5 C 0 km/h
2848 11-10-2010 17:47:01 19.1 C 3.44 g/m*3 19.1 C 0 km/h
2849 11-10-2010 17:59:01 18.7 C 3.84 g/m*3 18.7 C 0 km/h
2850 11-10-2010 18:11:01 18 C 4.45 g/m*3 18 C 0 km/h
Sensor: Nr:Datum:Temp:Abs-Feuchte:Windchill:Wind:
Aussen-T/F 2851 11-10-2010 18:23:02 16.9 C 4.31 g/m*3 16.9 C 0 km/h
2852 11-10-2010 18:35:01 15.7 C 3.88 g/m*3 15.7 C 0 km/h
2853 11-10-2010 18:47:03 15.1 C 3.61 g/m*3 15.1 C 0 km/h
2854 11-10-2010 18:59:03 14.9 C 3.7 g/m*3 14.9 C 0 km/h
2855 11-10-2010 19:11:02 14.4 C 3.71 g/m*3 14.4 C 0 km/h
2856 11-10-2010 19:23:02 13.7 C 4.14 g/m*3 13.7 C 0 km/h
2857 11-10-2010 19:35:02 13.2 C 4.48 g/m*3 13.2 C 0 km/h
2858 11-10-2010 19:47:02 12.5 C 4.51 g/m*3 12.5 C 0 km/h
2859 11-10-2010 19:59:03 12.1 C 4.72 g/m*3 12.1 C 0 km/h
2860 11-10-2010 20:11:02 11.9 C 4.77 g/m*3 11.9 C 0 km/h
2861 11-10-2010 20:23:02 11.8 C 4.84 g/m*3 11.8 C 0 km/h
2862 11-10-2010 20:35:02 11.3 C 4.79 g/m*3 11.3 C 0 km/h
2863 11-10-2010 20:47:01 11 C 4.7 g/m*3 11 C 0 km/h
2864 11-10-2010 20:59:01 10.6 C 4.98 g/m*3 10.6 C 0 km/h
2865 11-10-2010 21:11:02 10.3 C 5.08 g/m*3 10.3 C 0 km/h
2866 11-10-2010 21:23:01 10.1 C 4.82 g/m*3 10.1 C 0 km/h
2867 11-10-2010 21:35:02 9.9 C 4.95 g/m*3 9.9 C 0 km/h
2868 11-10-2010 21:48:03 9.8 C 5.01 g/m*3 9.8 C 0 km/h
2869 11-10-2010 22:00:03 9.6 C 4.95 g/m*3 9.6 C 0 km/h
2870 11-10-2010 22:12:03 9.4 C 4.88 g/m*3 9.4 C 0 km/h
2871 11-10-2010 22:24:03 9.3 C 4.76 g/m*3 9.3 C 0 km/h
2872 11-10-2010 22:36:03 8.9 C 4.82 g/m*3 8.9 C 0 km/h
2873 11-10-2010 22:48:03 8.8 C 4.79 g/m*3 8.8 C 0 km/h
2874 11-10-2010 23:00:03 8.7 C 5.02 g/m*3 8.7 C 0 km/h
2875 11-10-2010 23:12:04 8.4 C 4.84 g/m*3 8.4 C 0 km/h
Sensor: Nr:Datum:Temp:Abs-Feuchte:Windchill:Wind:
Aussen-T/F 2876 11-10-2010 23:24:04 8.2 C 4.86 g/m*3 8.2 C 0 km/h
2877 11-10-2010 23:36:04 8.1 C 4.83 g/m*3 8.1 C 0 km/h
2878 11-10-2010 23:48:04 7.8 C 4.82 g/m*3 7.8 C 0 km/h
2879 12-10-2010 00:00:04 7.4 C 4.93 g/m*3 7.4 C 0 km/h
2880 12-10-2010 00:12:04 7.3 C 4.98 g/m*3 7.3 C 0 km/h
2881 12-10-2010 00:24:04 7.2 C 4.95 g/m*3 7.2 C 0 km/h
2882 12-10-2010 00:36:04 7.1 C 5.07 g/m*3 7.1 C 0 km/h
2883 12-10-2010 00:48:04 6.8 C 5.12 g/m*3 6.8 C 0 km/h
2884 12-10-2010 01:00:04 6.7 C 5.09 g/m*3 6.7 C 0 km/h
2885 12-10-2010 01:12:04 6.5 C 5.1 g/m*3 6.5 C 0 km/h
2886 12-10-2010 01:24:04 6.4 C 5.14 g/m*3 6.4 C 0 km/h
2887 12-10-2010 01:36:04 6.3 C 5.18 g/m*3 6.3 C 0 km/h
2888 12-10-2010 01:48:04 6.1 C 5.11 g/m*3 6.1 C 0 km/h
2889 12-10-2010 02:00:04 6 C 5.15 g/m*3 6 C 0 km/h
2890 12-10-2010 02:12:04 5.8 C 5.23 g/m*3 5.8 C 0 km/h
2891 12-10-2010 02:24:04 5.8 C 5.3 g/m*3 5.8 C 0 km/h
2892 12-10-2010 02:36:04 5.6 C 5.23 g/m*3 5.6 C 0 km/h
2893 12-10-2010 02:48:04 5.5 C 5.27 g/m*3 5.5 C 0 km/h
2894 12-10-2010 03:00:04 5.2 C 5.16 g/m*3 5.2 C 0 km/h
2895 12-10-2010 03:12:04 5.3 C 5.41 g/m*3 5.3 C 0 km/h
2896 12-10-2010 03:24:05 5.1 C 5.4 g/m*3 5.1 C 0 km/h
2897 12-10-2010 03:36:05 4.9 C 5.33 g/m*3 4.9 C 0 km/h
2898 12-10-2010 03:48:05 4.7 C 5.26 g/m*3 4.7 C 0 km/h
2899 12-10-2010 04:00:05 4.6 C 5.29 g/m*3 4.6 C 0 km/h
2900 12-10-2010 04:12:05 4.4 C 5.22 g/m*3 4.4 C 0 km/h
Sensor: Nr:Datum:Temp:Abs-Feuchte:Windchill:Wind:
Aussen-T/F 2901 12-10-2010 04:24:05 4.5 C 5.39 g/m*3 4.5 C 0 km/h
2902 12-10-2010 04:36:05 4.4 C 5.42 g/m*3 4.4 C 0 km/h
2903 12-10-2010 04:48:05 4.2 C 5.35 g/m*3 4.2 C 0 km/h
2904 12-10-2010 05:00:05 4.1 C 5.38 g/m*3 4.1 C 0 km/h
2905 12-10-2010 05:12:05 4 C 5.34 g/m*3 4 C 0 km/h
2906 12-10-2010 05:24:05 3.7 C 5.3 g/m*3 3.7 C 0 km/h
2907 12-10-2010 05:36:05 3.6 C 5.26 g/m*3 3.6 C 0 km/h
2908 12-10-2010 05:48:05 3.6 C 5.26 g/m*3 3.6 C 0 km/h
2909 12-10-2010 06:00:05 3.6 C 5.26 g/m*3 3.6 C 0 km/h
2910 12-10-2010 06:12:05 3.5 C 5.29 g/m*3 3.5 C 0 km/h
2911 12-10-2010 06:24:05 3.4 C 5.25 g/m*3 3.4 C 0 km/h
2912 12-10-2010 06:36:05 3.4 C 5.25 g/m*3 3.4 C 0 km/h
2913 12-10-2010 06:48:02 3.4 C 5.25 g/m*3 3.4 C 0 km/h
2914 12-10-2010 07:00:02 3.2 C 5.18 g/m*3 3.2 C 0 km/h
2915 12-10-2010 07:12:03 3.1 C 5.15 g/m*3 3.1 C 0 km/h
2916 12-10-2010 07:24:02 3 C 5.17 g/m*3 3 C 0 km/h
2917 12-10-2010 07:36:02 2.8 C 5.16 g/m*3 2.8 C 0 km/h
2918 12-10-2010 07:48:01 2.6 C 5.09 g/m*3 2.6 C 0 km/h
2919 12-10-2010 08:00:01 2.7 C 5.13 g/m*3 2.7 C 0 km/h
2920 12-10-2010 08:12:02 3.2 C 5.36 g/m*3 3.2 C 0 km/h
2921 12-10-2010 08:24:02 3.6 C 5.57 g/m*3 3.6 C 0 km/h
2922 12-10-2010 08:36:02 4 C 5.72 g/m*3 4 C 0 km/h
2923 12-10-2010 08:48:02 4.3 C 5.84 g/m*3 4.3 C 0 km/h
2924 12-10-2010 09:00:02 4.5 C 5.85 g/m*3 4.5 C 0 km/h
2925 12-10-2010 09:12:02 4.7 C 5.93 g/m*3 4.7 C 0 km/h
Sensor: Nr:Datum:Temp:Abs-Feuchte:Windchill:Wind:
Aussen-T/F 2926 12-10-2010 09:24:02 4.8 C 5.9 g/m*3 4.8 C 0 km/h
2927 12-10-2010 09:36:02 5.2 C 5.99 g/m*3 5.2 C 0 km/h
2928 12-10-2010 09:48:02 5.3 C 5.96 g/m*3 5.3 C 0 km/h
2929 12-10-2010 10:00:02 5.3 C 5.89 g/m*3 5.3 C 0 km/h
2930 12-10-2010 10:12:02 5.6 C 6.01 g/m*3 5.6 C 0 km/h
2931 12-10-2010 10:24:02 5.7 C 6.05 g/m*3 5.7 C 0 km/h
2932 12-10-2010 10:36:02 6 C 6.1 g/m*3 6 C 0 km/h
2933 12-10-2010 10:48:02 6.5 C 6.3 g/m*3 6.5 C 0 km/h
2934 12-10-2010 11:00:02 6.5 C 6.3 g/m*3 6.5 C 0 km/h
2935 12-10-2010 11:12:02 6.6 C 6.34 g/m*3 6.6 C 0 km/h
2936 12-10-2010 11:24:02 7 C 6.43 g/m*3 7 C 0 km/h
2937 12-10-2010 11:36:02 7.7 C 6.41 g/m*3 7.7 C 0 km/h
2938 12-10-2010 11:48:02 8 C 6.28 g/m*3 8 C 0 km/h
2939 12-10-2010 12:00:02 8.4 C 6.28 g/m*3 8.4 C 0 km/h
2940 12-10-2010 12:12:02 9 C 6.17 g/m*3 9 C 0 km/h
2941 12-10-2010 12:24:02 9.6 C 6.14 g/m*3 9.6 C 0 km/h
2942 12-10-2010 12:36:02 10.2 C 6.09 g/m*3 10.2 C 0 km/h
2943 12-10-2010 12:48:02 10.6 C 6.15 g/m*3 10.6 C 0 km/h
2944 12-10-2010 13:00:02 11.5 C 5.78 g/m*3 11.5 C 0 km/h
2945 12-10-2010 13:12:01 12.2 C 5.5 g/m*3 12.2 C 0 km/h
2946 12-10-2010 13:24:02 12.7 C 5.79 g/m*3 12.7 C 0 km/h
2947 12-10-2010 13:36:02 13 C 5.78 g/m*3 13 C 0 km/h
2948 12-10-2010 13:48:02 13.5 C 5.73 g/m*3 13.5 C 0 km/h
2949 12-10-2010 14:00:02 14.1 C 5.83 g/m*3 14.1 C 0 km/h
2950 12-10-2010 14:12:03 15 C 5.39 g/m*3 15 C 0 km/h
Sensor: Nr:Datum:Temp:Abs-Feuchte:Windchill:Wind:
Aussen-T/F 2951 12-10-2010 14:24:02 15.4 C 5.65 g/m*3 15.4 C 0 km/h
2952 12-10-2010 14:36:02 15.6 C 5.72 g/m*3 15.6 C 0 km/h
2953 12-10-2010 14:48:01 16.2 C 5.65 g/m*3 16.2 C 0 km/h
2954 12-10-2010 15:00:01 16.4 C 5.58 g/m*3 16.4 C 0 km/h
2955 12-10-2010 15:12:02 17 C 5.5 g/m*3 17 C 0 km/h
2956 12-10-2010 15:24:01 16.8 C 5.29 g/m*3 16.8 C 0 km/h
2957 12-10-2010 15:36:01 17.2 C 5.42 g/m*3 17.2 C 0 km/h
2958 12-10-2010 15:48:01 17.3 C 5.3 g/m*3 17.3 C 0 km/h
2959 12-10-2010 16:00:01 17.5 C 5.52 g/m*3 17.5 C 0 km/h
2960 12-10-2010 16:12:02 17.8 C 5.31 g/m*3 17.8 C 0 km/h
2961 12-10-2010 16:24:02 17.4 C 5.48 g/m*3 17.4 C 0 km/h
2962 12-10-2010 16:36:01 17.7 C 5.43 g/m*3 17.7 C 0 km/h
2963 12-10-2010 16:48:02 17.9 C 5.34 g/m*3 17.9 C 0 km/h
2964 12-10-2010 17:00:02 17.9 C 4.89 g/m*3 17.9 C 0 km/h
2965 12-10-2010 17:12:01 17.8 C 4.86 g/m*3 17.8 C 0 km/h
2966 12-10-2010 17:24:02 17.4 C 4.45 g/m*3 17.4 C 0 km/h
2967 12-10-2010 17:36:01 16.6 C 4.24 g/m*3 16.6 C 0 km/h
2968 12-10-2010 17:48:02 16.4 C 4.47 g/m*3 16.4 C 0 km/h
2969 12-10-2010 18:00:02 16 C 4.9 g/m*3 16 C 0 km/h
2970 12-10-2010 18:12:02 15.4 C 5.39 g/m*3 15.4 C 0 km/h
2971 12-10-2010 18:24:02 14.4 C 5.69 g/m*3 14.4 C 0 km/h
2972 12-10-2010 18:36:03 13.7 C 5.92 g/m*3 13.7 C 0 km/h
2973 12-10-2010 18:48:02 13 C 6.12 g/m*3 13 C 0 km/h
2974 12-10-2010 19:00:02 12.3 C 6.3 g/m*3 12.3 C 0 km/h
2975 12-10-2010 19:12:02 11.8 C 6.42 g/m*3 11.8 C 0 km/h
Sensor: Nr:Datum:Temp:Abs-Feuchte:Windchill:Wind:
Aussen-T/F 2976 12-10-2010 19:24:02 11.3 C 6.43 g/m*3 11.3 C 0 km/h
2977 12-10-2010 19:36:02 10.9 C 6.56 g/m*3 10.9 C 0 km/h
2978 12-10-2010 19:48:02 10.8 C 6.52 g/m*3 10.8 C 0 km/h
2979 12-10-2010 20:00:02 10.4 C 6.46 g/m*3 10.4 C 0 km/h
2980 12-10-2010 20:12:01 10.1 C 6.43 g/m*3 10.1 C 0 km/h
2981 12-10-2010 20:24:02 9.9 C 6.54 g/m*3 9.9 C 0 km/h
2982 12-10-2010 20:36:01 9.5 C 6.46 g/m*3 9.5 C 0 km/h
2983 12-10-2010 20:48:02 9.3 C 6.47 g/m*3 9.3 C 0 km/h
2984 12-10-2010 21:00:02 8.9 C 6.39 g/m*3 8.9 C 0 km/h
2985 12-10-2010 21:12:02 8.6 C 6.27 g/m*3 8.6 C 0 km/h
2986 12-10-2010 21:24:02 8.3 C 6.24 g/m*3 8.3 C 0 km/h
2987 12-10-2010 21:36:02 8.1 C 6.16 g/m*3 8.1 C 0 km/h
2988 12-10-2010 21:48:02 7.9 C 6.24 g/m*3 7.9 C 0 km/h
2989 12-10-2010 22:00:02 7.7 C 6.16 g/m*3 7.7 C 0 km/h
2990 12-10-2010 22:12:01 7.5 C 6.08 g/m*3 7.5 C 0 km/h
2991 12-10-2010 22:25:03 7.6 C 6.2 g/m*3 7.6 C 0 km/h
2992 12-10-2010 22:37:03 7.9 C 6.24 g/m*3 7.9 C 0 km/h
2993 12-10-2010 22:49:03 8 C 6.04 g/m*3 8 C 0 km/h
2994 12-10-2010 23:01:03 7.9 C 6 g/m*3 7.9 C 0 km/h
2995 12-10-2010 23:13:03 7.7 C 5.92 g/m*3 7.7 C 0 km/h
2996 12-10-2010 23:25:03 7.8 C 6.04 g/m*3 7.8 C 0 km/h
2997 12-10-2010 23:37:03 7.8 C 6.04 g/m*3 7.8 C 0 km/h
2998 12-10-2010 23:49:03 7.7 C 6 g/m*3 7.7 C 0 km/h
2999 13-10-2010 00:01:03 7.7 C 5.92 g/m*3 7.7 C 0 km/h
3000 13-10-2010 00:13:03 7.7 C 5.92 g/m*3 7.7 C 0 km/h
Sensor: Nr:Datum:Temp:Abs-Feuchte:Windchill:Wind:
Aussen-T/F 3001 13-10-2010 00:25:03 7.9 C 5.91 g/m*3 7.9 C 0 km/h
3002 13-10-2010 00:37:03 7.4 C 5.81 g/m*3 7.4 C 0 km/h
3003 13-10-2010 00:49:03 7.3 C 5.77 g/m*3 7.3 C 0 km/h
3004 13-10-2010 01:01:03 7.3 C 5.85 g/m*3 7.3 C 0 km/h
3005 13-10-2010 01:13:03 7.3 C 5.85 g/m*3 7.3 C 0 km/h
3006 13-10-2010 01:25:04 7 C 5.73 g/m*3 7 C 0 km/h
3007 13-10-2010 01:37:04 6.8 C 5.81 g/m*3 6.8 C 0 km/h
3008 13-10-2010 01:49:04 6.7 C 5.85 g/m*3 6.7 C 0 km/h
3009 13-10-2010 02:01:04 6.9 C 5.93 g/m*3 6.9 C 0 km/h
3010 13-10-2010 02:13:04 6.9 C 5.85 g/m*3 6.9 C 0 km/h
3011 13-10-2010 02:25:04 6.8 C 5.81 g/m*3 6.8 C 0 km/h
3012 13-10-2010 02:37:04 6.9 C 5.85 g/m*3 6.9 C 0 km/h
3013 13-10-2010 02:49:04 6.5 C 5.7 g/m*3 6.5 C 0 km/h
3014 13-10-2010 03:01:04 6.4 C 5.74 g/m*3 6.4 C 0 km/h
3015 13-10-2010 03:13:04 6.4 C 5.74 g/m*3 6.4 C 0 km/h
3016 13-10-2010 03:25:04 6.5 C 5.7 g/m*3 6.5 C 0 km/h
3017 13-10-2010 03:37:04 6.5 C 5.7 g/m*3 6.5 C 0 km/h
3018 13-10-2010 03:49:04 6.4 C 5.59 g/m*3 6.4 C 0 km/h
3019 13-10-2010 04:01:04 6.2 C 5.52 g/m*3 6.2 C 0 km/h
3020 13-10-2010 04:13:04 6.1 C 5.55 g/m*3 6.1 C 0 km/h
3021 13-10-2010 04:25:04 6.2 C 5.66 g/m*3 6.2 C 0 km/h
3022 13-10-2010 04:37:04 6.2 C 5.59 g/m*3 6.2 C 0 km/h
3023 13-10-2010 04:49:04 6.3 C 5.63 g/m*3 6.3 C 0 km/h
3024 13-10-2010 05:01:04 6.3 C 5.63 g/m*3 6.3 C 0 km/h
3025 13-10-2010 05:13:04 6.2 C 5.59 g/m*3 6.2 C 0 km/h
Sensor: Nr:Datum:Temp:Abs-Feuchte:Windchill:Wind:
Aussen-T/F 3026 13-10-2010 05:25:04 6.1 C 5.55 g/m*3 6.1 C 0 km/h
3027 13-10-2010 05:37:05 6 C 5.59 g/m*3 6 C 0 km/h
3028 13-10-2010 05:49:05 5.9 C 5.62 g/m*3 5.9 C 0 km/h
3029 13-10-2010 06:01:05 6 C 5.66 g/m*3 6 C 0 km/h
3030 13-10-2010 06:13:05 6 C 5.59 g/m*3 6 C 0 km/h
3031 13-10-2010 06:25:05 5.8 C 5.59 g/m*3 5.8 C 0 km/h
3032 13-10-2010 06:37:05 5.8 C 5.59 g/m*3 5.8 C 0 km/h
3033 13-10-2010 06:49:02 5.6 C 5.59 g/m*3 5.6 C 0 km/h
3034 13-10-2010 07:01:02 5.5 C 5.55 g/m*3 5.5 C 0 km/h
3035 13-10-2010 07:13:02 5.4 C 5.51 g/m*3 5.4 C 0 km/h
3036 13-10-2010 07:25:02 5.2 C 5.44 g/m*3 5.2 C 0 km/h
3037 13-10-2010 07:37:02 5.4 C 5.58 g/m*3 5.4 C 0 km/h
3038 13-10-2010 07:49:01 5.6 C 5.59 g/m*3 5.6 C 0 km/h
3039 13-10-2010 08:01:02 5.7 C 5.55 g/m*3 5.7 C 0 km/h
3040 13-10-2010 08:13:02 5.6 C 5.51 g/m*3 5.6 C 0 km/h
3041 13-10-2010 08:25:02 5.6 C 5.51 g/m*3 5.6 C 0 km/h
3042 13-10-2010 08:37:01 5.6 C 5.44 g/m*3 5.6 C 0 km/h
3043 13-10-2010 08:49:02 5.6 C 5.44 g/m*3 5.6 C 0 km/h
3044 13-10-2010 09:01:02 5.7 C 5.48 g/m*3 5.7 C 0 km/h
3045 13-10-2010 09:13:02 5.7 C 5.48 g/m*3 5.7 C 0 km/h
3046 13-10-2010 09:25:02 5.8 C 5.44 g/m*3 5.8 C 0 km/h
3047 13-10-2010 09:37:03 6 C 5.44 g/m*3 6 C 0 km/h
3048 13-10-2010 09:49:02 6.1 C 5.41 g/m*3 6.1 C 0 km/h
3049 13-10-2010 10:01:02 6.4 C 5.44 g/m*3 6.4 C 0 km/h
3050 13-10-2010 10:13:02 6.6 C 5.36 g/m*3 6.6 C 0 km/h
Sensor: Nr:Datum:Temp:Abs-Feuchte:Windchill:Wind:
Aussen-T/F 3051 13-10-2010 10:25:01 6.7 C 5.32 g/m*3 6.7 C 0 km/h
3052 13-10-2010 10:37:02 6.8 C 5.2 g/m*3 6.8 C 0 km/h
3053 13-10-2010 10:49:02 6.8 C 5.2 g/m*3 6.8 C 0 km/h
3054 13-10-2010 11:01:02 7 C 5.11 g/m*3 7 C 0 km/h
3055 13-10-2010 11:13:02 7 C 5.04 g/m*3 7 C 0 km/h
3056 13-10-2010 11:25:02 6.8 C 5.05 g/m*3 6.8 C 0 km/h
3057 13-10-2010 11:37:02 7.1 C 5.15 g/m*3 7.1 C 0 km/h
3058 13-10-2010 11:49:02 7.3 C 5.06 g/m*3 7.3 C 0 km/h
3059 13-10-2010 12:01:02 7.7 C 5.11 g/m*3 7.7 C 0 km/h
3060 13-10-2010 12:13:02 7.9 C 5.01 g/m*3 7.9 C 0 km/h
3061 13-10-2010 12:25:02 8 C 5.04 g/m*3 8 C 0 km/h
3062 13-10-2010 12:37:02 8.4 C 5.01 g/m*3 8.4 C 0 km/h
3063 13-10-2010 12:49:02 8.7 C 5.1 g/m*3 8.7 C 0 km/h
3064 13-10-2010 13:01:02 9 C 4.94 g/m*3 9 C 0 km/h
3065 13-10-2010 13:13:02 8.8 C 4.87 g/m*3 8.8 C 0 km/h
3066 13-10-2010 13:25:02 9 C 4.94 g/m*3 9 C 0 km/h
3067 13-10-2010 13:37:02 8.5 C 4.87 g/m*3 8.5 C 0 km/h
3068 13-10-2010 13:49:02 8.7 C 4.84 g/m*3 8.7 C 0 km/h
3069 13-10-2010 14:01:02 9.6 C 5.13 g/m*3 9.6 C 0 km/h
3070 13-10-2010 14:13:02 9.4 C 4.79 g/m*3 9.4 C 0 km/h
3071 13-10-2010 14:25:02 9.6 C 4.86 g/m*3 9.6 C 0 km/h
3072 13-10-2010 14:37:01 9.7 C 4.98 g/m*3 9.7 C 0 km/h
3073 13-10-2010 14:49:02 10.7 C 5.01 g/m*3 10.7 C 0 km/h
3074 13-10-2010 15:01:01 11.3 C 5 g/m*3 11.3 C 0 km/h
3075 13-10-2010 15:13:01 11.2 C 4.87 g/m*3 11.2 C 0 km/h
Sensor: Nr:Datum:Temp:Abs-Feuchte:Windchill:Wind:
Aussen-T/F 3076 13-10-2010 15:25:01 11.9 C 5.08 g/m*3 11.9 C 0 km/h
3077 13-10-2010 15:37:02 12 C 4.8 g/m*3 12 C 0 km/h
3078 13-10-2010 15:49:02 12.5 C 4.95 g/m*3 12.5 C 0 km/h
3079 13-10-2010 16:01:02 12.1 C 4.93 g/m*3 12.1 C 0 km/h
3080 13-10-2010 16:13:02 11.9 C 4.98 g/m*3 11.9 C 0 km/h
3081 13-10-2010 16:25:01 12.1 C 4.93 g/m*3 12.1 C 0 km/h
3082 13-10-2010 16:37:02 11.8 C 5.05 g/m*3 11.8 C 0 km/h
3083 13-10-2010 16:49:02 12.4 C 5.14 g/m*3 12.4 C 0 km/h
3084 13-10-2010 17:01:02 12.3 C 4.99 g/m*3 12.3 C 0 km/h
3085 13-10-2010 17:13:02 12.2 C 5.07 g/m*3 12.2 C 0 km/h
3086 13-10-2010 17:25:01 12.5 C 5.39 g/m*3 12.5 C 0 km/h
3087 13-10-2010 17:37:02 12.5 C 5.28 g/m*3 12.5 C 0 km/h
3088 13-10-2010 17:49:01 12.2 C 5.4 g/m*3 12.2 C 0 km/h
3089 13-10-2010 18:01:02 11.6 C 5.4 g/m*3 11.6 C 0 km/h
3090 13-10-2010 18:13:02 10.9 C 5.47 g/m*3 10.9 C 0 km/h
3091 13-10-2010 18:25:02 9.8 C 5.47 g/m*3 9.8 C 0 km/h
3092 13-10-2010 18:37:02 9 C 5.47 g/m*3 9 C 0 km/h
3093 13-10-2010 18:49:02 8.4 C 5.6 g/m*3 8.4 C 0 km/h
3094 13-10-2010 19:01:01 7.9 C 5.67 g/m*3 7.9 C 0 km/h
3095 13-10-2010 19:13:01 7.6 C 5.72 g/m*3 7.6 C 0 km/h
3096 13-10-2010 19:25:02 7.4 C 5.73 g/m*3 7.4 C 0 km/h
3097 13-10-2010 19:37:01 7.3 C 5.85 g/m*3 7.3 C 0 km/h
3098 13-10-2010 19:49:02 7.2 C 5.81 g/m*3 7.2 C 0 km/h
3099 13-10-2010 20:01:02 7.3 C 5.85 g/m*3 7.3 C 0 km/h
3100 13-10-2010 20:13:02 7 C 5.73 g/m*3 7 C 0 km/h
Sensor: Nr:Datum:Temp:Abs-Feuchte:Windchill:Wind:
Aussen-T/F 3101 13-10-2010 20:25:02 7 C 5.81 g/m*3 7 C 0 km/h
3102 13-10-2010 20:37:03 6.9 C 5.85 g/m*3 6.9 C 0 km/h
3103 13-10-2010 20:49:02 6.6 C 5.81 g/m*3 6.6 C 0 km/h
3104 13-10-2010 21:01:02 6.3 C 5.77 g/m*3 6.3 C 0 km/h
3105 13-10-2010 21:13:02 6 C 5.73 g/m*3 6 C 0 km/h
3106 13-10-2010 21:25:01 5.8 C 5.73 g/m*3 5.8 C 0 km/h
3107 13-10-2010 21:37:02 5.6 C 5.73 g/m*3 5.6 C 0 km/h
3108 13-10-2010 21:49:02 5.4 C 5.65 g/m*3 5.4 C 0 km/h
3109 13-10-2010 22:02:03 5.4 C 5.72 g/m*3 5.4 C 0 km/h
3110 13-10-2010 22:14:03 5.3 C 5.75 g/m*3 5.3 C 0 km/h
3111 13-10-2010 22:26:03 5.2 C 5.71 g/m*3 5.2 C 0 km/h
3112 13-10-2010 22:38:03 5.1 C 5.75 g/m*3 5.1 C 0 km/h
3113 13-10-2010 22:50:03 4.8 C 5.7 g/m*3 4.8 C 0 km/h
3114 13-10-2010 23:02:03 4.7 C 5.66 g/m*3 4.7 C 0 km/h
3115 13-10-2010 23:14:03 4.6 C 5.62 g/m*3 4.6 C 0 km/h
3116 13-10-2010 23:26:03 4.6 C 5.62 g/m*3 4.6 C 0 km/h
3117 13-10-2010 23:38:03 4.5 C 5.59 g/m*3 4.5 C 0 km/h
3118 13-10-2010 23:50:03 4.2 C 5.54 g/m*3 4.2 C 0 km/h
3119 14-10-2010 00:02:03 4.1 C 5.5 g/m*3 4.1 C 0 km/h
3120 14-10-2010 00:14:03 4.1 C 5.57 g/m*3 4.1 C 0 km/h
3121 14-10-2010 00:26:03 3.9 C 5.56 g/m*3 3.9 C 0 km/h
3122 14-10-2010 00:38:03 3.7 C 5.48 g/m*3 3.7 C 0 km/h
3123 14-10-2010 00:50:03 3.6 C 5.45 g/m*3 3.6 C 0 km/h
3124 14-10-2010 01:02:04 3.4 C 5.44 g/m*3 3.4 C 0 km/h
3125 14-10-2010 01:14:04 3.4 C 5.44 g/m*3 3.4 C 0 km/h
Sensor: Nr:Datum:Temp:Abs-Feuchte:Windchill:Wind:
Aussen-T/F 3126 14-10-2010 01:26:04 3.3 C 5.4 g/m*3 3.3 C 0 km/h
3127 14-10-2010 01:38:04 3.3 C 5.46 g/m*3 3.3 C 0 km/h
3128 14-10-2010 01:50:04 3.5 C 5.6 g/m*3 3.5 C 0 km/h
3129 14-10-2010 02:02:04 3.6 C 5.63 g/m*3 3.6 C 0 km/h
3130 14-10-2010 02:14:04 3.5 C 5.6 g/m*3 3.5 C 0 km/h
3131 14-10-2010 02:26:04 3.6 C 5.63 g/m*3 3.6 C 0 km/h
3132 14-10-2010 02:38:04 3.7 C 5.73 g/m*3 3.7 C 0 km/h
3133 14-10-2010 02:50:04 3.7 C 5.67 g/m*3 3.7 C 0 km/h
3134 14-10-2010 03:02:04 3.6 C 5.63 g/m*3 3.6 C 0 km/h
3135 14-10-2010 03:14:04 3.5 C 5.6 g/m*3 3.5 C 0 km/h
3136 14-10-2010 03:26:04 3.6 C 5.57 g/m*3 3.6 C 0 km/h
3137 14-10-2010 03:38:04 3.5 C 5.53 g/m*3 3.5 C 0 km/h
3138 14-10-2010 03:50:04 3.4 C 5.5 g/m*3 3.4 C 0 km/h
3139 14-10-2010 04:02:04 3.4 C 5.5 g/m*3 3.4 C 0 km/h
3140 14-10-2010 04:14:04 3.5 C 5.53 g/m*3 3.5 C 0 km/h
3141 14-10-2010 04:26:04 3.6 C 5.57 g/m*3 3.6 C 0 km/h
3142 14-10-2010 04:38:04 3.6 C 5.57 g/m*3 3.6 C 0 km/h
3143 14-10-2010 04:50:04 3.6 C 5.57 g/m*3 3.6 C 0 km/h
3144 14-10-2010 05:02:05 3.5 C 5.53 g/m*3 3.5 C 0 km/h
3145 14-10-2010 05:14:05 3.6 C 5.63 g/m*3 3.6 C 0 km/h
3146 14-10-2010 05:26:05 3.6 C 5.63 g/m*3 3.6 C 0 km/h
3147 14-10-2010 05:38:05 3.6 C 5.63 g/m*3 3.6 C 0 km/h
3148 14-10-2010 05:50:05 3.8 C 5.71 g/m*3 3.8 C 0 km/h
3149 14-10-2010 06:02:05 3.9 C 5.75 g/m*3 3.9 C 0 km/h
3150 14-10-2010 06:14:05 3.9 C 5.75 g/m*3 3.9 C 0 km/h
Sensor: Nr:Datum:Temp:Abs-Feuchte:Windchill:Wind:
Aussen-T/F 3151 14-10-2010 06:26:05 3.9 C 5.68 g/m*3 3.9 C 0 km/h
3152 14-10-2010 06:38:05 3.9 C 5.68 g/m*3 3.9 C 0 km/h
3153 14-10-2010 06:50:01 4 C 5.66 g/m*3 4 C 0 km/h
3154 14-10-2010 07:02:02 4 C 5.66 g/m*3 4 C 0 km/h
3155 14-10-2010 07:14:02 4 C 5.72 g/m*3 4 C 0 km/h
3156 14-10-2010 07:26:02 4.1 C 5.76 g/m*3 4.1 C 0 km/h
3157 14-10-2010 07:38:01 4.2 C 5.8 g/m*3 4.2 C 0 km/h
3158 14-10-2010 07:50:02 4.3 C 5.84 g/m*3 4.3 C 0 km/h
3159 14-10-2010 08:02:01 4.4 C 5.88 g/m*3 4.4 C 0 km/h
3160 14-10-2010 08:14:01 4.5 C 5.85 g/m*3 4.5 C 0 km/h
3161 14-10-2010 08:26:01 4.5 C 5.85 g/m*3 4.5 C 0 km/h
3162 14-10-2010 08:38:02 4.4 C 5.81 g/m*3 4.4 C 0 km/h
3163 14-10-2010 08:50:02 4.4 C 5.81 g/m*3 4.4 C 0 km/h
3164 14-10-2010 09:02:02 4.5 C 5.85 g/m*3 4.5 C 0 km/h
3165 14-10-2010 09:14:02 4.4 C 5.81 g/m*3 4.4 C 0 km/h
3166 14-10-2010 09:26:02 4.6 C 5.89 g/m*3 4.6 C 0 km/h
3167 14-10-2010 09:38:02 4.6 C 5.89 g/m*3 4.6 C 0 km/h
3168 14-10-2010 09:50:02 4.7 C 5.86 g/m*3 4.7 C 0 km/h
3169 14-10-2010 10:02:02 5 C 5.91 g/m*3 5 C 0 km/h
3170 14-10-2010 10:14:02 5 C 5.91 g/m*3 5 C 0 km/h
3171 14-10-2010 10:26:02 5 C 5.78 g/m*3 5 C 0 km/h
3172 14-10-2010 10:38:02 5.2 C 5.85 g/m*3 5.2 C 0 km/h
3173 14-10-2010 10:50:02 5.6 C 5.94 g/m*3 5.6 C 0 km/h
3174 14-10-2010 11:02:02 6 C 5.95 g/m*3 6 C 0 km/h
3175 14-10-2010 11:14:02 5.9 C 5.77 g/m*3 5.9 C 0 km/h
Sensor: Nr:Datum:Temp:Abs-Feuchte:Windchill:Wind:
Aussen-T/F 3176 14-10-2010 11:26:02 6.2 C 5.74 g/m*3 6.2 C 0 km/h
3177 14-10-2010 11:38:02 6.1 C 5.55 g/m*3 6.1 C 0 km/h
3178 14-10-2010 11:50:02 6.8 C 5.74 g/m*3 6.8 C 0 km/h
3179 14-10-2010 12:02:02 7 C 5.58 g/m*3 7 C 0 km/h
3180 14-10-2010 12:14:02 7.5 C 5.68 g/m*3 7.5 C 0 km/h
3181 14-10-2010 12:26:02 8 C 5.62 g/m*3 8 C 0 km/h
3182 14-10-2010 12:38:01 8.4 C 5.51 g/m*3 8.4 C 0 km/h
3183 14-10-2010 12:50:02 8.4 C 5.51 g/m*3 8.4 C 0 km/h
3184 14-10-2010 13:02:01 9.2 C 5.63 g/m*3 9.2 C 0 km/h
3185 14-10-2010 13:14:01 8.7 C 5.36 g/m*3 8.7 C 0 km/h
3186 14-10-2010 13:26:02 9.4 C 5.61 g/m*3 9.4 C 0 km/h
3187 14-10-2010 13:38:02 9.6 C 5.59 g/m*3 9.6 C 0 km/h
3188 14-10-2010 13:50:02 9.9 C 5.7 g/m*3 9.9 C 0 km/h
3189 14-10-2010 14:02:03 10.8 C 5.83 g/m*3 10.8 C 0 km/h
3190 14-10-2010 14:14:03 11.4 C 5.85 g/m*3 11.4 C 0 km/h
3191 14-10-2010 14:26:02 11.9 C 5.82 g/m*3 11.9 C 0 km/h
3192 14-10-2010 14:38:02 12.3 C 5.86 g/m*3 12.3 C 0 km/h
3193 14-10-2010 14:50:01 12.9 C 5.86 g/m*3 12.9 C 0 km/h
3194 14-10-2010 15:02:02 13.1 C 5.71 g/m*3 13.1 C 0 km/h
3195 14-10-2010 15:14:02 13.8 C 5.84 g/m*3 13.8 C 0 km/h
3196 14-10-2010 15:26:01 14 C 5.67 g/m*3 14 C 0 km/h
3197 14-10-2010 15:38:01 14.4 C 5.81 g/m*3 14.4 C 0 km/h
3198 14-10-2010 15:50:01 14.4 C 5.56 g/m*3 14.4 C 0 km/h
3199 14-10-2010 16:02:02 14.7 C 5.67 g/m*3 14.7 C 0 km/h
3200 14-10-2010 16:14:02 14.7 C 5.67 g/m*3 14.7 C 0 km/h
Sensor: Nr:Datum:Temp:Abs-Feuchte:Windchill:Wind:
Aussen-T/F 3201 14-10-2010 16:26:02 14.4 C 5.81 g/m*3 14.4 C 0 km/h
3202 14-10-2010 16:38:01 14 C 6.03 g/m*3 14 C 0 km/h
3203 14-10-2010 16:50:02 14.2 C 5.98 g/m*3 14.2 C 0 km/h
3204 14-10-2010 17:02:01 13.5 C 5.5 g/m*3 13.5 C 0 km/h
3205 14-10-2010 17:14:01 13.4 C 5.46 g/m*3 13.4 C 0 km/h
3206 14-10-2010 17:26:02 13.4 C 5.46 g/m*3 13.4 C 0 km/h
3207 14-10-2010 17:38:01 13 C 5.33 g/m*3 13 C 0 km/h
3208 14-10-2010 17:50:02 12.9 C 5.75 g/m*3 12.9 C 0 km/h
3209 14-10-2010 18:02:02 12 C 5.75 g/m*3 12 C 0 km/h
3210 14-10-2010 18:14:02 11.6 C 5.92 g/m*3 11.6 C 0 km/h
3211 14-10-2010 18:26:02 10.9 C 5.97 g/m*3 10.9 C 0 km/h
3212 14-10-2010 18:38:03 10.5 C 6.01 g/m*3 10.5 C 0 km/h
3213 14-10-2010 18:50:02 10.2 C 6.09 g/m*3 10.2 C 0 km/h
3214 14-10-2010 19:02:02 10.2 C 6.19 g/m*3 10.2 C 0 km/h
3215 14-10-2010 19:14:02 10.2 C 6.19 g/m*3 10.2 C 0 km/h
3216 14-10-2010 19:26:02 10.3 C 6.22 g/m*3 10.3 C 0 km/h
3217 14-10-2010 19:38:02 10.3 C 6.32 g/m*3 10.3 C 0 km/h
3218 14-10-2010 19:50:02 10.3 C 6.32 g/m*3 10.3 C 0 km/h
3219 14-10-2010 20:02:02 10.3 C 6.32 g/m*3 10.3 C 0 km/h
3220 14-10-2010 20:14:02 10.2 C 6.19 g/m*3 10.2 C 0 km/h
3221 14-10-2010 20:26:02 10.2 C 6.19 g/m*3 10.2 C 0 km/h
3222 14-10-2010 20:38:02 10.2 C 6.28 g/m*3 10.2 C 0 km/h
3223 14-10-2010 20:50:02 10.1 C 6.24 g/m*3 10.1 C 0 km/h
3224 14-10-2010 21:02:02 9.9 C 6.26 g/m*3 9.9 C 0 km/h
3225 14-10-2010 21:14:02 9.7 C 6.27 g/m*3 9.7 C 0 km/h
Sensor: Nr:Datum:Temp:Abs-Feuchte:Windchill:Wind:
Aussen-T/F 3226 14-10-2010 21:26:02 9.8 C 6.4 g/m*3 9.8 C 0 km/h
3227 14-10-2010 21:38:02 9.8 C 6.4 g/m*3 9.8 C 0 km/h
3228 14-10-2010 21:51:04 9.8 C 6.31 g/m*3 9.8 C 0 km/h
3229 14-10-2010 22:03:04 9.7 C 6.36 g/m*3 9.7 C 0 km/h
3230 14-10-2010 22:15:04 9.7 C 6.45 g/m*3 9.7 C 0 km/h
3231 14-10-2010 22:27:04 9.8 C 6.59 g/m*3 9.8 C 0 km/h
3232 14-10-2010 22:39:05 9.8 C 6.59 g/m*3 9.8 C 0 km/h
3233 14-10-2010 22:51:05 9.7 C 6.55 g/m*3 9.7 C 0 km/h
3234 14-10-2010 23:03:05 9.7 C 6.64 g/m*3 9.7 C